GFSGBSN_500_rhum_000.txt.gz
RH
45 14 14 16 14 13 12 11 10 9 8 9 9 8 8 8 10 9 10 10 12 19 25 16 24 31 37 30 37 24 23 38 43 39 40 44 38 33 26 23 22 17 14 19 30 36 46
52 47 17 15 17 16 14 12 10 10 10 9 9 8 7 7 10 10 10 12 12 16 29 27 30 37 48 42 56 49 45 47 46 40 39 38 38 35 28 25 26 22 19 18 24 29 30
45 51 46 29 14 17 17 17 14 11 10 9 9 8 7 7 8 10 10 11 12 19 31 32 35 53 48 60 52 56 44 47 44 42 40 36 38 38 34 31 27 24 26 22 19 28 24
25 30 46 46 37 14 15 17 18 18 17 14 10 10 8 8 6 8 10 10 12 21 28 38 28 35 47 65 48 52 36 41 48 47 44 46 45 42 40 36 32 33 55 39 18 22 24
21 30 32 38 46 41 29 11 16 18 19 18 17 13 10 9 7 6 9 11 13 22 28 36 36 37 39 67 58 51 57 58 54 53 54 60 58 52 48 42 41 36 36 26 28 22 27
22 20 18 20 24 36 44 38 16 13 18 19 18 17 15 11 9 7 7 10 16 19 30 33 31 41 46 70 74 68 60 57 56 54 58 74 80 62 48 40 28 29 32 31 22 23 33
31 31 25 20 18 11 30 46 48 32 8 18 19 18 18 15 11 9 6 11 15 20 26 33 32 63 66 78 75 67 56 54 58 54 72 89 88 65 49 39 35 37 37 41 48 42 32
31 29 30 29 21 15 9 34 48 52 31 6 16 19 18 17 13 11 7 12 17 20 26 28 52 75 80 77 68 67 68 66 74 68 94 93 73 68 66 52 41 37 40 43 53 51 46
8 12 22 26 24 14 9 9 53 53 47 14 7 17 16 16 14 12 9 14 24 27 28 28 64 69 79 70 77 85 84 94 84 78 86 100 69 75 58 52 44 35 40 33 53 58 53
3 3 4 8 10 7 6 6 32 55 47 80 9 13 22 16 15 12 12 13 35 39 30 30 52 74 86 80 73 96 81 98 83 62 98 99 86 92 58 34 41 30 23 16 37 71 56
2 2 2 2 2 2 2 4 9 57 46 72 17 13 20 16 16 15 16 17 32 45 37 41 71 88 90 96 98 92 100 100 85 92 100 85 74 58 44 39 33 27 20 14 61 96 75
2 2 1 1 34 60 3 1 17 54 50 60 59 14 20 16 17 19 19 20 34 45 37 62 94 94 92 93 93 100 98 100 93 100 97 68 70 71 57 50 34 25 23 35 96 100 76
3 3 2 2 24 88 100 39 28 68 53 70 87 18 24 16 18 22 19 17 34 34 43 87 98 97 97 93 93 96 99 100 92 89 88 88 68 90 94 100 62 35 25 93 98 97 96
2 2 3 2 21 100 100 93 55 75 57 67 73 20 19 17 22 28 17 17 39 32 51 98 99 97 92 97 86 100 100 89 89 81 88 88 65 75 96 91 71 42 77 98 81 90 88
3 2 3 2 98 100 100 100 62 84 56 70 75 19 17 20 29 28 16 28 37 37 83 98 98 96 50 68 99 100 94 83 88 73 99 100 69 94 96 97 83 85 95 98 97 99 72
4 3 2 13 100 100 96 96 100 100 62 83 70 20 19 24 31 20 15 43 34 48 95 98 88 47 49 75 97 100 76 92 99 98 100 100 100 100 100 100 70 89 99 97 98 91 80
4 3 1 2 97 100 100 100 98 100 75 93 42 24 26 24 25 19 32 39 44 89 98 98 43 54 56 70 80 73 96 99 86 92 100 100 94 85 66 79 98 98 97 91 96 99 77
4 2 44 99 99 100 100 100 93 99 94 100 34 26 29 29 27 19 52 31 74 95 98 94 33 48 57 78 98 100 100 98 59 84 100 99 98 100 59 74 91 98 99 98 100 95 80
3 4 82 100 100 100 100 99 97 86 99 93 34 29 32 30 24 28 46 35 92 97 97 70 26 41 55 50 83 80 73 70 84 98 99 99 99 93 94 98 98 97 97 94 85 90 82
9 92 100 100 100 94 100 100 100 100 100 43 34 31 30 28 20 29 50 33 99 96 96 71 26 38 51 54 79 93 100 97 98 95 99 98 97 98 90 84 81 73 76 86 91 80 75
30 98 100 100 87 98 100 96 100 100 85 40 32 31 28 24 22 30 42 35 96 99 95 84 38 31 39 41 59 47 77 94 97 98 98 99 98 99 86 82 97 95 95 96 91 77 66
7 76 100 100 89 99 97 98 100 100 81 37 29 31 28 25 29 37 46 41 98 100 97 95 64 31 32 36 35 39 56 85 92 100 99 99 100 74 75 80 68 74 83 82 83 84 79
4 48 100 100 100 89 100 100 100 99 43 34 29 28 24 27 34 34 49 29 94 99 97 99 55 53 32 35 35 29 38 58 79 93 88 98 84 68 67 66 74 63 57 55 58 53 70
20 36 100 100 92 89 100 100 100 82 39 31 30 29 22 28 30 43 46 32 92 98 97 98 93 56 55 40 40 32 63 49 52 57 60 68 84 76 68 64 66 74 69 68 72 76 57
74 99 87 100 91 93 100 100 86 82 39 34 44 28 23 27 30 39 48 38 85 95 98 97 98 75 70 52 50 42 99 86 51 52 60 73 72 63 69 72 72 73 74 70 71 75 63
56 100 99 100 84 87 100 100 100 88 58 74 46 23 25 32 31 45 46 100 91 98 97 97 98 86 74 86 58 49 48 57 60 49 57 63 67 78 73 70 81 72 78 64 51 62 60
17 100 100 100 100 99 87 99 98 94 96 94 53 24 28 32 41 52 48 100 94 98 99 98 96 99 84 81 73 66 61 59 63 71 76 83 80 77 85 78 77 87 84 80 70 67 64
10 94 97 100 98 94 100 100 98 98 98 97 48 29 28 36 37 50 53 99 98 98 99 97 96 96 90 78 72 99 93 83 71 69 97 90 90 85 84 72 66 92 96 94 90 89 82
4 64 90 100 88 79 100 100 100 100 99 86 42 30 28 40 42 58 61 89 98 99 97 99 98 98 82 62 68 72 98 100 87 84 79 80 80 89 94 80 94 96 98 92 95 91 95

GFSGBSN_500_rhum_003.txt.gz
RH
38 44 53 47 38 14 18 16 14 13 12 10 9 9 9 8 8 7 7 6 6 7 7 9 9 11 16 20 25 16 28 37 35 28 29 27 24 27 27 29 28 24 19 18 16 15 17
16 26 41 50 48 43 14 17 16 15 13 12 10 9 8 7 8 7 7 7 7 8 8 9 8 10 16 33 34 23 24 39 49 45 39 37 38 37 32 32 32 29 25 19 18 16 12
15 15 21 36 47 48 45 16 16 17 16 14 13 10 8 8 7 8 7 6 7 7 8 7 8 8 27 36 29 34 34 50 56 51 47 39 38 35 32 30 28 25 21 20 15 18 15
27 20 14 17 34 33 41 46 32 12 17 17 16 16 13 9 8 7 9 7 6 5 6 7 9 9 30 33 32 34 36 58 54 52 47 42 43 42 39 36 32 26 22 17 18 20 19
40 38 28 16 15 23 32 31 44 38 17 13 17 18 19 19 16 13 12 10 9 7 4 7 9 11 27 37 33 34 38 50 44 44 41 40 42 44 47 43 40 35 28 23 23 23 24
47 41 39 35 26 17 17 24 30 35 42 34 10 13 18 19 20 18 17 15 12 10 8 6 10 15 24 41 35 38 49 54 46 54 59 60 51 48 46 44 39 46 46 38 27 32 30
9 11 26 31 37 40 33 25 20 19 32 39 41 27 6 16 19 20 19 16 15 12 10 8 8 16 26 33 32 50 62 64 66 62 62 58 44 38 60 74 75 70 55 46 37 36 47
7 8 8 7 8 16 29 36 30 20 18 22 43 45 38 9 11 19 20 17 17 14 11 9 12 21 33 32 44 62 61 58 63 66 65 51 37 71 80 78 75 78 66 51 40 39 51
4 4 4 4 5 4 5 8 16 14 9 12 18 46 48 36 8 9 17 16 17 16 13 10 23 28 41 39 44 74 68 67 61 60 64 48 53 88 83 86 82 79 72 53 42 45 56
3 2 2 2 2 2 2 3 14 11 3 3 8 34 49 41 13 5 15 16 17 16 14 14 19 35 41 49 56 78 70 67 61 68 78 48 85 88 97 81 84 77 74 51 43 54 53
2 2 2 2 2 2 2 33 77 39 10 0 3 17 53 37 55 18 13 17 18 18 18 18 26 29 38 68 72 86 80 79 73 75 82 65 77 100 100 79 98 64 77 56 43 52 68
2 2 2 2 2 2 2 2 100 100 81 4 5 18 46 29 60 30 11 14 22 20 18 23 29 33 54 90 90 89 92 94 92 100 100 86 94 88 73 89 99 80 70 67 37 54 91
4 3 2 2 2 3 4 3 100 97 31 79 47 41 52 39 69 42 12 17 23 20 27 26 32 45 87 96 76 61 82 100 97 100 99 99 92 88 90 85 84 90 61 65 55 54 22
3 2 2 2 1 7 4 4 14 98 76 66 97 72 50 45 69 39 14 26 20 26 29 32 38 85 96 61 40 44 65 100 90 100 100 100 86 98 80 60 66 66 71 44 41 27 29
3 2 2 2 3 9 1 5 100 100 100 87 100 72 44 55 77 31 31 24 24 34 30 36 79 92 66 58 59 70 90 100 99 97 69 87 69 92 67 76 96 45 48 29 37 32 42
3 2 1 5 0 1 2 87 100 100 100 100 97 55 50 94 75 22 31 23 36 32 34 66 95 81 62 72 79 81 76 97 100 91 93 87 92 100 92 99 96 79 28 30 40 42 22
2 0 1 62 0 0 39 100 100 100 95 100 87 51 70 100 54 30 17 28 31 36 35 88 96 95 69 88 100 88 76 88 94 88 87 93 100 100 98 58 76 92 41 25 28 95 97
2 0 0 12 0 98 72 100 100 95 91 84 100 59 70 90 47 21 23 24 38 36 62 94 94 70 58 89 96 69 66 96 81 89 94 99 100 100 99 83 81 99 97 25 70 93 94
2 0 0 0 2 100 99 98 83 77 94 99 97 76 75 78 30 21 32 26 42 35 83 96 83 39 48 44 45 33 28 46 69 82 100 100 99 100 87 98 76 71 61 52 97 98 97
2 0 0 4 97 100 100 75 95 100 98 100 94 92 87 68 28 26 32 30 44 39 92 98 57 39 48 46 69 46 55 70 97 98 99 100 100 100 69 74 67 85 96 98 98 96 94
1 0 2 93 99 100 86 90 100 100 100 100 100 92 97 38 28 35 32 39 40 61 87 94 65 41 42 39 35 44 62 87 95 97 97 97 98 96 78 90 93 98 97 97 97 98 96
1 10 82 100 60 100 85 95 100 95 100 71 71 95 83 38 35 27 22 39 39 84 92 98 70 53 39 36 37 47 80 95 95 100 97 98 99 99 87 98 99 96 99 94 97 98 87
4 52 67 100 96 92 95 95 99 84 94 94 80 91 46 36 40 36 34 44 50 70 90 98 74 73 31 37 31 42 50 65 77 93 97 97 100 100 99 89 95 96 87 80 96 100 83
1 66 100 99 89 77 94 100 99 100 69 70 97 84 88 43 36 53 34 46 41 75 96 94 84 55 76 32 31 28 34 46 62 84 93 90 98 96 97 92 91 87 87 93 92 78 74
2 44 96 99 90 71 85 100 100 100 86 86 86 47 40 38 40 32 35 65 42 88 97 97 92 65 76 62 42 34 25 30 47 60 65 74 75 73 78 75 81 75 72 70 72 71 62
3 22 74 100 100 87 93 99 100 100 99 73 73 37 33 37 37 32 38 67 48 100 96 98 97 90 74 66 59 63 34 33 31 40 51 49 52 55 53 59 63 68 68 71 71 67 70
4 11 73 98 100 92 99 100 100 100 100 94 46 35 36 40 48 47 44 64 97 100 100 97 99 97 79 65 64 69 52 55 50 43 45 52 63 60 61 68 62 76 72 69 74 68 60
4 17 85 100 100 100 99 100 97 98 100 63 43 55 50 34 53 59 65 62 95 96 98 98 99 96 95 62 96 83 78 69 70 72 74 71 73 72 67 69 84 86 85 88 85 81 74
4 14 51 86 94 82 91 98 100 85 95 84 52 73 42 35 51 52 77 68 99 98 99 94 95 97 97 81 76 76 82 84 80 76 70 69 76 89 76 93 84 78 84 92 91 92 89

GFSGBSN_500_rhum_006.txt.gz
RH
50 30 13 13 38 51 53 41 14 21 18 15 13 12 12 11 10 10 10 10 9 8 7 7 6 6 8 8 12 10 22 26 22 24 23 25 23 18 15 14 15 12 13 18 20 16 14
62 56 42 24 14 30 48 52 42 15 20 18 16 14 12 12 11 9 9 9 8 8 7 6 6 6 7 8 7 8 16 29 34 28 28 26 27 21 14 13 13 13 14 20 22 22 18
29 43 56 49 44 14 23 43 46 46 22 18 18 17 15 14 13 11 9 8 8 7 6 5 5 6 6 6 8 9 15 28 27 36 35 39 38 30 24 21 19 16 23 26 25 27 27
19 16 22 47 49 52 18 15 40 42 47 33 14 18 18 17 15 14 11 9 8 7 6 6 5 5 6 7 7 9 11 28 26 23 38 50 53 48 46 39 34 31 29 24 24 24 26
9 6 6 9 27 46 51 27 15 32 36 43 43 16 16 18 18 17 18 17 13 10 8 7 7 8 7 10 11 13 15 24 27 29 32 41 57 55 51 43 37 34 30 26 26 30 29
7 7 7 5 5 7 31 47 32 16 21 37 33 46 27 11 17 18 19 20 19 17 14 12 10 10 10 12 13 16 19 24 25 31 38 42 39 44 37 38 26 30 32 39 35 42 39
5 5 6 7 6 5 6 8 35 39 20 18 31 35 44 40 21 10 16 19 20 19 18 15 13 14 12 10 12 15 22 27 30 31 46 58 43 32 46 61 60 50 41 37 44 47 49
4 3 2 2 3 5 4 5 6 7 26 34 26 19 34 40 44 36 14 7 16 18 18 18 15 15 14 12 16 25 26 28 33 36 36 44 47 56 65 63 56 49 40 35 37 49 47
4 3 2 2 2 2 3 3 3 4 5 10 30 29 17 26 39 45 40 32 11 8 17 17 17 19 22 17 18 29 30 31 43 46 57 59 57 60 61 62 56 48 43 46 45 60 44
3 2 2 2 2 2 2 2 2 3 5 4 6 14 14 14 18 41 49 43 29 9 9 13 18 26 26 25 21 29 31 42 44 65 70 57 54 55 56 54 68 43 64 70 70 67 48
2 2 2 2 2 2 2 2 2 7 100 63 13 4 8 10 14 28 46 47 25 8 10 10 16 31 32 26 25 29 41 67 73 77 74 66 66 70 52 73 94 62 93 81 78 77 67
2 2 2 3 3 3 3 3 2 11 76 94 100 88 8 4 11 26 43 47 34 42 32 18 24 35 31 28 26 36 75 82 64 50 48 72 80 84 88 92 80 95 98 97 82 85 61
2 4 4 3 3 2 2 2 3 3 93 100 100 96 53 7 36 29 40 44 37 52 33 24 31 31 27 31 48 78 78 42 36 37 47 85 86 82 100 100 100 100 100 100 97 77 54
5 7 4 3 2 3 9 7 3 8 100 100 98 98 100 52 41 42 43 35 44 46 20 21 28 24 31 63 88 66 45 58 52 46 79 96 78 100 99 99 100 100 100 99 97 82 67
8 6 3 1 4 38 80 39 3 27 100 100 100 93 79 60 61 59 36 33 50 38 21 24 26 28 54 99 79 53 75 79 71 57 91 81 100 100 98 100 100 97 98 90 100 98 85
9 4 2 4 57 96 100 58 6 64 89 100 78 99 89 89 67 53 35 49 56 32 25 30 29 35 96 77 43 55 83 77 87 71 98 88 64 66 83 78 80 85 94 100 95 84 70
9 3 1 11 84 72 84 19 4 44 100 99 100 94 98 93 74 47 42 70 50 34 26 25 38 76 96 38 38 33 55 69 81 57 44 62 54 66 80 83 86 73 77 77 77 66 68
8 2 1 18 43 48 92 20 98 50 100 100 100 100 97 85 57 45 82 60 26 20 23 29 48 98 55 43 59 30 25 35 46 36 54 82 93 96 100 100 98 93 67 63 69 48 56
7 2 1 2 14 14 100 77 76 100 100 97 93 97 93 75 53 53 92 29 19 22 24 33 83 91 36 54 66 60 30 41 54 68 89 95 97 100 99 73 69 61 47 56 66 48 85
6 2 0 0 67 100 88 99 100 100 100 100 100 92 98 65 67 90 81 23 24 26 30 41 98 78 31 49 67 91 96 96 88 98 98 100 100 100 100 99 99 60 30 37 48 33 98
5 2 0 0 94 67 97 100 100 100 92 98 98 99 88 57 60 89 45 26 28 26 38 61 100 76 30 40 46 56 78 94 98 100 99 100 100 100 100 100 100 100 99 90 84 57 93
4 4 2 5 80 79 99 78 90 83 97 100 100 96 100 93 75 91 31 33 41 48 42 82 100 88 40 36 40 47 78 98 100 99 99 99 100 99 91 94 89 68 72 91 96 96 96
3 13 7 28 62 89 100 89 91 100 100 100 100 100 99 88 98 66 38 37 36 38 44 90 100 95 68 36 33 43 73 77 92 96 100 100 98 98 95 97 96 95 97 97 98 98 97
2 20 18 67 74 95 88 89 100 100 100 98 100 95 100 100 92 58 44 31 48 58 58 88 99 100 80 33 35 44 61 67 63 96 100 99 97 96 99 98 97 84 97 96 98 99 99
3 13 39 49 87 99 92 84 96 100 100 100 99 77 66 86 93 52 36 37 50 52 40 82 100 98 88 54 31 29 33 38 53 74 88 89 98 89 86 79 73 71 91 96 71 86 91
3 6 44 66 61 98 88 98 93 100 100 90 96 100 91 95 56 39 35 41 43 53 43 92 96 100 95 71 56 37 32 28 44 61 64 77 72 79 71 72 69 78 79 79 81 81 75
3 4 33 49 50 56 100 100 100 100 100 98 100 97 91 92 88 40 44 42 50 54 70 98 97 100 100 85 77 51 52 36 34 46 46 49 53 58 58 68 72 80 86 85 88 86 71
2 4 23 43 80 85 86 100 100 100 100 98 90 98 100 84 46 51 42 46 63 72 99 98 94 97 99 93 95 67 55 56 44 44 38 38 40 51 56 75 71 75 70 76 74 75 68
3 3 15 52 85 94 95 99 100 91 98 100 95 100 88 47 44 76 44 75 69 76 97 94 98 99 100 97 79 67 67 74 79 71 63 61 55 68 68 68 68 70 70 75 80 80 83

GFSGBSN_500_rhum_009.txt.gz
RH
47 40 36 45 60 54 15 17 41 52 45 17 22 19 14 13 12 13 13 14 14 12 10 9 9 8 8 7 8 6 10 12 12 14 17 15 19 19 19 21 17 14 14 14 17 21 22
30 26 30 28 25 29 61 17 23 38 54 44 17 21 17 14 13 12 11 12 12 12 10 9 9 8 7 7 6 7 8 8 9 11 14 16 18 16 22 22 20 16 13 13 12 15 17
7 6 6 6 5 8 21 74 24 16 34 52 46 17 20 18 15 14 13 11 11 11 10 9 8 7 6 6 6 6 6 6 8 11 12 16 19 21 26 32 24 20 16 12 12 13 16
9 7 6 6 6 5 6 11 58 36 19 33 48 48 18 20 18 16 15 14 13 11 10 9 8 7 6 5 5 5 5 6 6 9 12 15 18 20 21 40 34 26 21 15 14 20 25
7 6 5 4 4 4 5 5 8 42 46 24 30 44 48 24 18 19 18 17 15 14 12 10 9 9 8 8 6 6 8 7 8 9 16 16 17 20 22 34 48 38 32 34 23 31 30
8 8 8 6 5 4 3 3 6 5 37 52 26 27 41 45 34 14 19 19 19 18 17 17 15 13 11 10 10 10 9 8 8 9 10 17 19 17 20 30 30 57 55 49 44 46 47
10 7 5 4 4 3 3 3 3 5 4 42 52 28 26 37 43 44 15 15 19 20 20 19 18 17 16 15 14 13 12 11 12 14 16 18 19 17 34 48 39 31 47 46 42 38 38
7 5 4 4 3 3 3 2 2 3 4 4 28 43 30 22 37 38 46 24 11 14 18 19 20 19 19 18 16 15 16 15 14 16 20 19 17 28 34 37 46 48 36 33 28 34 36
6 5 4 3 2 2 2 2 2 2 2 4 4 17 29 34 20 35 39 44 38 24 11 11 14 17 18 18 17 21 24 21 20 20 20 20 20 24 28 39 46 51 52 50 46 58 51
6 5 3 2 2 2 2 2 2 2 2 2 3 6 14 17 32 21 28 44 46 43 37 23 11 10 14 15 14 22 30 29 26 23 22 20 20 38 51 49 63 58 66 68 63 60 51
6 4 2 2 2 2 3 3 2 2 2 2 100 60 24 8 19 25 36 32 40 49 40 37 34 24 14 12 17 26 34 32 27 23 24 29 33 53 51 55 68 50 72 64 61 58 50
5 2 2 4 6 5 4 4 4 3 2 85 100 98 100 53 7 13 30 25 31 37 40 39 34 30 26 20 22 27 30 28 23 33 47 60 62 53 52 61 69 68 73 74 76 73 42
3 3 4 6 4 3 3 3 3 3 4 24 100 100 100 96 67 15 11 28 33 26 29 32 34 36 43 37 26 29 30 28 51 72 58 47 39 35 32 32 42 79 97 100 100 83 46
3 5 7 4 2 1 20 76 26 3 4 38 100 86 95 100 99 98 16 20 25 22 28 33 36 41 36 24 27 31 32 78 39 36 58 61 56 53 47 58 100 100 100 100 100 90 84
4 6 7 2 1 22 100 88 42 4 4 34 100 100 95 99 98 92 39 10 22 28 28 33 36 44 36 28 33 46 74 21 19 30 77 80 60 62 64 99 98 96 99 85 100 100 100
5 8 6 2 5 86 100 88 100 68 6 96 100 100 100 100 96 70 44 12 32 36 33 35 44 42 28 33 42 83 21 21 20 36 72 77 66 66 63 94 85 75 95 100 100 100 100
6 8 5 2 12 85 100 97 100 71 12 100 100 100 100 100 84 81 40 25 39 37 38 44 50 35 31 38 92 47 23 21 17 27 30 39 51 51 62 54 70 76 82 100 100 97 69
6 7 4 1 19 47 100 70 86 72 41 81 100 98 100 97 96 66 39 56 46 39 50 54 44 30 35 96 75 41 33 30 22 33 51 61 53 49 71 98 82 90 80 96 100 68 56
5 6 3 1 2 30 45 70 95 52 95 100 100 100 100 96 61 73 85 57 45 53 64 43 25 36 82 85 33 49 56 50 67 38 65 86 86 100 100 100 100 97 86 65 71 95 53
4 5 3 3 0 26 95 85 64 35 96 100 99 100 100 99 74 100 74 52 68 72 30 22 35 58 86 60 36 58 75 75 82 64 94 100 100 100 100 100 100 100 80 51 68 52 30
4 4 4 5 12 80 77 85 99 96 100 100 92 74 95 63 76 71 55 63 91 35 35 43 40 88 97 52 42 53 69 86 96 100 99 98 100 100 100 99 100 60 31 35 36 35 27
4 3 10 2 63 89 97 88 97 92 97 96 100 84 83 89 100 71 62 89 49 48 67 58 57 80 98 63 42 47 82 99 100 100 100 100 100 100 94 100 100 87 72 30 38 48 86
4 3 17 1 49 88 100 86 98 100 98 100 96 100 100 100 98 68 75 100 58 54 65 68 98 98 100 73 41 42 64 79 90 98 99 97 100 98 97 99 98 84 43 46 57 89 95
4 3 18 7 60 88 93 100 99 100 100 100 100 100 100 98 79 78 100 95 46 52 62 58 64 90 100 88 42 39 69 72 66 98 100 99 100 98 99 100 98 98 95 96 96 97 97
3 2 22 28 49 72 87 90 94 100 99 100 100 100 95 93 98 95 98 62 62 56 53 79 89 89 96 90 54 38 54 54 58 83 94 97 98 98 96 85 94 98 95 95 92 93 94
3 2 12 30 53 72 84 81 84 83 100 100 100 100 100 100 85 93 98 57 63 65 63 78 67 78 98 93 85 34 44 38 35 64 83 90 88 82 75 69 82 99 100 100 81 88 99
3 2 6 25 41 58 74 86 86 100 98 100 100 97 99 99 88 89 94 56 49 62 70 80 93 96 100 96 82 48 28 31 36 59 65 76 80 77 78 74 68 66 84 85 87 91 83
3 2 3 20 36 58 75 79 95 98 100 100 100 98 91 94 96 97 70 51 64 83 76 73 95 98 96 96 90 69 30 36 37 51 52 50 51 56 65 78 75 70 70 68 64 61 66
3 2 2 18 35 59 68 85 84 100 99 94 97 100 100 100 98 100 80 54 74 86 70 95 99 98 90 93 98 82 62 66 45 44 46 44 43 54 62 61 56 77 78 76 72 72 77

GFSGBSN_500_rhum_012.txt.gz
RH
7 8 9 9 8 7 8 17 30 41 22 20 47 50 20 24 19 17 17 18 18 16 14 10 10 11 11 10 10 8 7 8 8 9 10 10 11 12 12 13 12 10 17 16 14 13 15
14 15 14 11 9 7 6 8 35 12 40 20 23 46 51 21 21 16 14 16 17 17 17 15 13 13 12 12 8 8 9 9 9 8 7 9 9 8 12 14 15 15 16 17 18 14 15
12 11 10 8 7 6 5 4 5 18 9 34 27 24 52 47 22 18 15 13 13 15 15 15 14 14 13 11 9 10 8 7 7 6 6 6 7 8 11 14 12 16 17 18 20 21 15
13 11 10 10 9 8 6 6 5 4 5 10 30 34 25 55 34 20 18 15 13 12 13 13 12 12 11 9 8 7 6 6 5 5 5 6 6 6 7 11 11 13 15 20 25 20 19
15 14 12 10 8 6 5 4 4 4 4 5 18 37 37 28 50 33 20 19 16 14 12 11 12 11 9 8 7 7 6 6 6 7 7 7 7 8 8 10 14 16 16 18 29 30 22
17 15 13 11 8 6 5 4 4 3 3 3 5 25 45 37 35 44 38 18 19 17 15 14 12 11 10 9 9 9 9 9 10 10 8 7 7 7 8 12 12 15 14 15 17 32 35
16 14 12 9 4 3 3 2 2 2 2 3 3 5 49 50 30 40 46 45 17 19 19 19 15 14 12 12 11 12 12 13 13 12 11 10 10 10 13 16 14 13 13 13 23 25 34
17 13 8 5 4 3 2 2 2 2 2 2 3 3 12 58 55 21 42 48 42 15 18 20 20 18 17 16 17 17 17 16 15 14 14 14 13 14 14 14 16 15 15 16 19 37 33
19 10 7 6 4 2 2 2 2 2 2 2 2 3 4 31 42 49 22 42 42 45 21 15 19 20 20 20 19 18 18 18 18 17 19 21 22 22 21 20 19 19 18 19 24 40 42
15 9 7 4 3 3 4 5 5 5 3 2 2 3 3 6 97 39 33 27 41 42 47 32 14 14 16 17 17 18 17 16 15 16 20 23 26 26 26 24 24 24 25 27 23 29 32
11 9 7 3 4 5 5 4 4 5 6 2 2 3 3 7 100 74 40 27 34 42 44 44 38 24 18 14 12 13 13 13 13 18 22 23 25 28 27 29 33 31 35 42 39 42 42
12 10 5 4 5 6 3 2 2 3 4 4 3 3 12 43 85 100 97 29 30 38 41 42 43 42 40 37 34 31 24 19 19 25 29 31 34 33 38 61 65 66 62 66 64 66 46
13 8 4 5 6 4 2 4 43 46 10 4 5 3 78 100 100 100 94 31 35 31 32 35 34 37 39 37 34 30 34 41 30 30 34 39 37 34 32 45 56 52 53 69 73 65 43
11 6 5 5 6 2 3 80 100 100 51 5 6 12 53 76 100 100 100 73 32 33 31 30 28 27 28 30 34 39 40 30 35 37 44 24 12 16 30 60 76 83 93 98 78 62 50
10 6 6 5 5 3 61 58 86 74 47 9 8 100 100 100 100 78 87 72 23 26 30 30 27 24 26 32 37 39 44 40 38 50 18 11 15 26 60 73 99 100 98 95 100 100 97
10 6 6 4 5 3 37 84 86 100 38 39 25 100 100 100 97 100 100 76 37 15 21 31 27 24 24 34 40 43 38 38 63 26 17 12 14 24 27 49 59 53 85 82 94 97 85
10 6 6 4 4 4 85 92 96 73 42 6 94 100 100 100 100 100 88 52 48 23 14 29 24 22 32 41 45 37 32 74 47 25 25 14 19 35 46 41 48 64 72 87 94 100 92
8 5 5 4 4 2 73 100 71 72 93 6 94 100 100 100 100 100 94 58 71 46 16 26 24 25 40 45 41 31 77 42 42 33 37 39 33 51 95 97 70 57 54 67 53 47 76
8 5 5 3 8 2 19 85 81 100 56 44 99 100 100 100 99 71 66 92 83 40 28 25 30 36 43 40 32 72 42 54 63 66 62 68 70 91 98 100 100 100 100 100 97 85 61
8 4 4 6 6 4 16 56 77 98 90 57 100 100 100 95 80 85 100 92 68 46 43 38 38 47 47 29 82 45 43 53 62 64 70 90 100 100 98 100 100 100 100 100 100 79 37
8 4 3 13 25 37 46 90 100 66 90 96 100 100 95 53 61 96 100 100 66 54 46 46 53 47 35 84 86 38 45 69 98 100 97 98 99 100 100 100 98 90 100 83 22 28 42
7 3 3 19 98 69 94 100 100 100 75 100 97 100 82 69 87 98 100 86 64 64 64 62 46 39 80 100 79 41 52 89 100 98 98 100 99 98 99 100 88 56 30 22 18 28 51
6 2 3 21 79 55 79 100 95 72 91 96 100 100 100 100 100 97 73 67 100 92 70 43 66 65 100 100 85 40 62 89 88 98 97 100 96 100 98 98 98 80 50 39 41 47 81
7 2 2 19 82 68 60 100 89 88 100 97 75 90 85 82 75 86 99 100 100 88 45 48 75 91 100 88 85 42 60 81 86 98 98 99 97 100 99 98 99 82 78 84 86 95 98
6 3 2 17 61 73 45 79 94 89 100 99 100 98 93 96 100 89 100 100 98 64 56 64 80 77 73 84 79 67 54 75 85 96 96 96 99 88 98 91 99 100 88 73 84 90 100
6 3 2 14 41 63 69 71 76 77 77 99 100 98 97 100 100 99 91 100 91 72 49 77 99 92 96 90 81 64 47 75 49 68 92 89 86 75 86 93 80 95 100 87 70 75 77
9 5 2 5 26 55 61 73 72 100 97 99 100 98 98 100 89 96 94 100 88 74 82 96 97 90 86 86 83 79 83 48 41 59 69 78 75 73 67 69 80 78 77 68 75 82 88
11 5 3 2 19 43 50 76 85 85 99 100 97 100 99 99 100 100 100 100 89 80 74 98 96 95 88 84 99 94 100 50 38 51 64 64 63 66 62 53 56 68 74 69 65 64 65
11 6 2 2 5 30 43 69 80 84 92 92 97 97 92 95 100 100 93 100 94 78 100 98 96 100 97 98 92 98 96 68 53 46 59 54 51 58 58 56 49 51 57 54 53 63 63

GFSGBSN_500_rhum_018.txt.gz
RH
38 36 28 25 21 19 18 17 15 14 11 9 8 7 7 20 22 46 18 49 36 20 21 21 19 18 15 12 11 11 8 9 11 11 11 10 7 6 6 8 9 9 12 12 12 13 13
36 33 29 26 24 22 22 21 19 16 14 12 9 8 7 6 18 19 43 27 44 22 24 20 16 14 13 13 15 11 11 10 11 11 10 10 7 6 8 9 9 10 12 12 13 13 11
25 25 28 25 23 21 20 18 15 13 10 8 10 9 8 5 6 16 21 36 49 24 25 20 18 17 17 16 16 16 14 14 13 11 11 10 8 8 11 10 9 9 12 11 14 14 12
22 23 26 24 24 22 18 15 13 11 9 9 8 7 6 7 5 5 7 43 40 44 24 22 18 19 21 20 22 25 21 18 16 14 12 10 10 9 11 11 11 10 9 10 13 11 10
21 20 20 17 18 18 15 12 11 9 8 7 6 6 6 5 5 4 5 30 42 54 28 24 18 18 20 20 21 30 30 25 17 13 11 10 10 10 10 10 8 9 8 8 8 9 8
20 18 17 18 16 11 10 11 10 9 8 7 6 4 4 4 4 4 4 7 54 57 44 23 21 17 19 19 20 24 29 26 20 14 12 10 9 8 8 9 8 6 6 6 7 8 9
18 19 20 21 18 15 14 13 13 11 6 4 4 4 3 3 4 6 100 35 41 46 50 22 24 18 17 17 18 22 26 24 20 15 12 9 7 7 8 8 8 8 8 7 8 9 8
19 21 21 20 18 17 17 18 9 4 5 4 4 4 4 3 3 42 78 82 38 61 51 33 21 21 16 16 16 17 17 14 11 9 8 7 8 10 10 10 10 10 10 11 10 11 11
18 22 19 17 18 20 17 4 4 5 4 3 2 4 5 3 3 7 100 74 59 66 54 53 19 22 19 16 14 14 14 13 13 12 12 12 12 14 14 14 14 16 16 17 17 17 16
17 21 17 15 20 17 3 3 4 4 6 5 6 3 6 5 4 64 100 100 88 85 58 52 34 19 21 19 17 14 13 13 14 14 14 16 17 18 17 16 16 14 16 15 14 15 14
16 18 16 15 14 5 4 4 4 28 43 61 100 40 6 7 4 36 86 100 100 100 82 52 48 23 20 22 20 18 17 16 15 17 18 18 18 17 15 15 14 15 18 22 26 27 24
16 18 15 13 8 4 6 7 23 44 96 87 100 91 26 8 4 49 100 100 96 100 77 54 47 42 22 19 21 21 20 20 21 20 19 15 12 16 22 27 30 29 28 33 33 27 24
15 18 15 12 6 6 11 9 22 53 80 92 99 100 16 10 4 83 100 100 98 100 89 67 41 46 39 24 18 18 18 18 17 15 16 27 33 33 32 31 32 35 38 16 12 14 11
16 18 16 9 6 15 16 5 16 61 77 92 100 93 20 8 46 100 100 100 100 93 98 74 44 35 46 41 32 26 20 18 21 33 37 36 33 30 36 42 45 44 30 14 18 21 22
17 19 16 8 6 22 12 4 22 84 88 100 94 99 60 4 32 98 60 100 90 98 100 96 59 30 39 44 44 44 42 42 42 40 37 31 31 36 41 43 47 38 24 24 28 26 47
17 19 15 8 11 31 6 6 33 81 86 76 100 64 9 4 16 58 99 100 100 98 100 96 78 38 36 39 41 41 38 36 38 34 27 31 37 39 48 44 37 29 31 64 88 92 96
17 18 15 9 22 43 4 25 56 85 100 100 91 41 7 95 100 95 100 100 99 100 100 91 77 40 31 35 36 33 31 30 29 29 36 36 35 34 31 31 34 50 87 99 100 96 98
16 18 15 9 12 65 14 60 90 100 100 96 40 71 7 100 100 98 100 98 100 100 100 67 71 49 34 32 32 31 30 28 31 35 36 38 28 31 50 58 59 72 85 100 100 100 100
16 17 15 8 9 94 50 52 82 97 99 100 62 12 73 100 92 100 100 100 100 99 75 67 56 65 40 33 36 36 31 27 34 35 41 37 52 46 43 58 70 87 79 98 100 100 87
16 17 14 6 8 79 85 64 85 100 100 100 58 10 71 89 90 100 100 100 100 79 62 51 44 51 47 37 35 33 29 30 34 44 52 61 52 49 63 71 85 82 76 33 72 67 98
17 16 14 4 8 76 86 70 84 98 100 98 98 25 77 92 80 92 100 100 100 90 74 52 30 32 30 30 34 30 24 35 45 57 76 57 60 61 83 87 93 87 88 39 20 30 42
18 16 14 4 6 63 92 47 50 54 88 90 73 42 48 78 84 81 95 100 100 82 81 65 42 22 21 26 32 32 37 40 62 80 69 74 86 90 99 95 100 89 86 68 43 41 58
20 16 16 4 4 43 72 82 31 63 91 78 49 54 60 79 96 99 100 100 93 83 61 57 47 31 26 34 31 36 35 52 73 68 79 86 93 92 97 99 95 93 95 85 76 84 96
24 16 17 5 3 40 66 92 59 97 78 81 89 85 68 90 100 96 81 73 62 61 57 49 41 44 44 41 41 41 55 60 74 90 96 95 90 91 99 92 85 84 91 92 86 83 83
29 18 17 8 3 34 61 66 68 95 82 54 49 86 100 93 86 73 67 77 63 64 67 65 69 60 58 46 50 60 58 79 88 100 96 84 86 87 97 100 100 100 100 96 88 82 70
33 20 16 14 2 27 29 52 58 92 100 87 84 76 97 89 79 76 83 74 89 88 90 71 74 65 54 45 60 77 68 76 91 85 85 69 84 78 91 98 99 100 93 92 86 90 100
36 22 16 18 5 12 26 35 56 77 76 82 75 90 77 70 75 71 85 86 91 94 75 78 79 74 62 61 63 75 70 66 74 62 64 72 66 68 71 92 97 98 99 98 91 99 97
40 21 17 19 13 3 24 28 34 49 61 68 76 79 73 96 89 92 89 85 81 99 100 100 70 71 77 69 69 76 72 66 66 54 51 64 60 52 58 69 72 89 94 95 84 90 94
40 23 18 18 20 10 4 31 38 44 50 74 64 75 74 90 89 88 86 92 92 94 89 81 88 79 78 78 76 80 79 62 58 60 42 48 55 56 51 60 67 76 76 75 73 75 73

GFSGBSN_500_rhum_021.txt.gz
RH
11 12 14 16 19 22 23 24 24 23 21 19 18 16 13 10 8 7 19 30 58 49 57 54 20 25 21 21 20 18 16 13 10 8 7 7 7 9 15 12 8 6 8 9 11 11 13
12 12 13 14 16 19 22 24 24 22 20 19 17 16 16 13 10 7 6 13 23 40 44 45 26 20 24 20 19 18 17 15 11 9 9 8 7 10 15 10 8 6 8 10 10 11 11
11 11 11 14 16 17 17 16 17 18 18 17 16 14 13 12 11 9 6 6 11 26 29 48 25 23 21 20 20 18 15 13 12 13 11 14 12 15 13 9 8 7 10 11 11 12 10
10 9 10 11 12 11 10 10 9 8 8 10 12 13 12 11 9 8 7 6 5 13 36 41 28 26 22 20 18 17 17 15 13 14 14 13 14 12 11 9 12 11 11 12 11 12 10
11 11 10 11 13 12 11 9 7 5 4 4 4 6 10 10 10 9 8 6 5 5 27 39 39 27 23 21 22 21 18 16 16 16 16 15 15 13 11 12 12 14 14 14 12 13 9
13 12 11 11 13 14 14 13 10 5 3 3 3 3 3 4 7 8 8 7 32 14 15 43 46 27 24 22 23 22 22 21 20 22 23 25 22 19 15 14 15 16 14 16 14 12 11
15 15 12 13 15 16 17 11 4 4 5 5 4 3 3 4 4 4 6 5 58 96 17 48 51 27 28 24 24 22 23 23 23 27 32 29 23 21 26 16 13 13 12 13 13 13 10
17 18 14 14 16 18 14 4 7 12 8 8 4 4 4 4 4 4 4 5 66 98 52 53 65 41 27 24 24 22 22 22 24 30 32 25 24 29 18 14 12 11 10 11 12 11 10
22 20 15 14 17 17 9 6 20 13 8 12 11 19 7 3 5 5 4 42 100 100 95 55 70 58 26 24 22 20 20 24 26 27 26 24 22 18 17 14 13 13 11 12 10 10 10
25 22 16 14 16 14 5 18 22 9 20 62 88 100 72 4 6 5 31 100 100 100 65 66 84 59 23 25 22 19 18 21 21 22 17 13 16 20 18 16 16 14 14 14 14 14 14
27 23 17 14 17 11 6 29 14 17 48 83 100 100 100 12 15 5 87 100 100 100 100 88 86 65 22 25 21 18 16 17 17 14 16 16 18 18 18 18 18 17 15 15 13 13 14
30 23 16 15 16 6 18 26 6 39 45 85 92 100 94 37 9 4 56 100 100 100 100 84 74 71 27 21 23 22 17 15 15 15 16 15 17 18 18 17 14 12 16 26 30 28 22
32 22 15 15 13 4 33 11 4 50 75 95 97 94 89 38 7 16 100 100 100 100 94 96 73 65 42 20 23 21 20 18 18 18 18 19 19 18 14 16 26 30 31 29 27 29 27
32 20 16 15 10 6 41 7 8 41 75 96 92 93 62 10 5 81 100 100 100 100 94 98 77 60 50 25 21 23 23 23 21 21 20 18 16 16 28 33 32 30 28 34 39 37 32
32 19 16 14 7 14 47 19 23 47 72 69 90 97 92 10 4 65 98 100 100 91 99 100 82 55 48 43 26 20 19 19 18 17 16 17 24 35 37 33 31 27 36 46 44 43 34
32 20 17 14 5 34 70 46 73 87 96 91 100 83 100 36 5 82 100 100 100 97 100 100 96 57 39 46 42 34 30 28 28 29 33 38 39 38 31 29 32 37 33 34 37 37 66
30 21 17 13 5 42 88 46 75 98 100 86 82 100 84 6 24 100 100 100 100 93 100 100 94 54 37 42 46 45 46 44 43 42 41 39 34 28 30 37 32 32 37 53 68 73 94
28 24 16 12 5 40 83 53 78 96 99 69 88 96 17 9 78 100 100 100 87 94 100 100 98 55 39 39 40 44 45 43 41 36 32 30 27 35 37 40 42 40 54 68 89 86 78
30 26 17 13 6 38 67 74 100 100 100 78 46 26 9 75 100 100 100 98 96 100 100 99 99 57 39 38 45 45 41 36 30 30 28 33 35 37 44 51 46 57 72 87 73 71 61
32 30 17 13 8 26 36 76 99 83 100 52 18 6 32 88 100 100 83 94 100 100 99 87 87 92 48 39 39 40 35 32 28 28 32 38 41 52 54 69 59 62 76 96 98 75 68
35 32 18 14 8 19 34 51 75 62 83 47 41 64 85 85 82 88 89 100 100 98 82 77 65 83 60 46 42 41 37 30 28 31 40 45 69 63 90 85 80 82 90 93 84 82 63
39 35 19 15 8 14 34 45 51 100 75 36 29 95 100 98 99 97 100 100 100 89 74 58 52 57 67 61 48 39 34 28 30 42 52 70 90 93 96 92 85 90 86 83 83 86 80
43 38 20 16 8 14 23 37 64 70 51 28 52 68 86 88 83 91 98 100 93 78 68 56 49 44 47 46 38 30 29 32 49 49 67 85 100 100 98 88 87 70 81 80 76 66 62
48 40 22 18 8 22 23 34 38 43 33 26 48 49 47 86 76 86 83 68 60 68 67 49 50 50 28 26 22 24 27 30 49 58 79 98 95 99 96 97 80 82 78 72 87 78 85
51 40 24 20 15 12 30 27 26 28 62 77 45 48 64 66 76 76 78 78 76 67 61 48 47 43 33 24 26 33 41 54 49 79 96 96 99 97 97 87 87 95 91 78 77 89 96
52 41 29 22 19 11 17 37 57 45 27 43 46 57 63 74 68 67 55 50 49 47 50 50 49 51 49 37 36 44 64 60 64 94 94 97 95 89 98 96 90 91 98 90 90 89 88
45 44 33 24 22 19 8 17 26 39 55 48 48 47 62 53 60 57 60 62 58 69 76 74 74 69 63 55 53 52 69 65 70 88 78 81 84 73 81 84 85 93 82 74 90 94 93
41 43 40 30 21 21 18 6 17 22 28 45 55 68 56 50 49 58 51 63 81 82 88 75 74 78 77 70 54 50 65 70 65 79 71 62 72 72 66 58 66 71 76 68 65 67 77
42 42 44 37 22 21 20 18 6 18 20 19 34 55 66 51 62 59 59 62 81 83 81 84 78 81 90 83 71 61 64 69 61 68 65 60 56 63 60 61 66 70 72 73 66 61 60

GFSGBSN_500_rhum_024.txt.gz
RH
12 13 13 12 10 10 10 10 10 11 14 17 20 19 18 18 18 17 11 7 14 28 58 47 58 45 26 25 24 23 23 21 20 16 11 9 9 9 8 7 5 5 8 15 13 8 7
15 15 15 15 13 12 9 10 10 11 11 12 12 13 17 17 17 17 17 11 7 10 23 56 42 50 39 24 24 24 22 22 20 19 15 10 9 8 7 6 6 5 8 14 10 8 9
17 17 17 18 18 15 13 11 10 10 10 10 9 8 9 11 16 16 16 16 10 6 10 16 56 56 62 29 23 24 22 21 20 19 17 12 9 9 8 9 7 8 13 13 9 10 9
18 20 20 23 20 18 14 12 12 13 12 7 5 4 5 4 5 15 15 14 13 8 6 6 29 39 56 50 23 24 21 20 18 18 22 15 10 10 9 7 10 17 14 12 11 10 10
22 24 23 27 23 18 13 13 14 9 4 4 6 6 6 5 4 4 15 14 11 10 6 6 8 36 42 43 30 23 21 20 18 17 65 61 13 11 10 13 17 16 15 12 10 11 10
27 31 28 30 22 15 14 14 8 4 14 27 20 18 13 9 7 5 4 14 13 10 9 7 6 25 34 41 30 24 22 19 19 20 24 48 13 12 14 17 18 19 14 12 12 10 14
33 36 33 30 19 15 12 11 6 17 40 17 11 8 9 8 6 4 3 6 12 12 9 9 12 20 41 38 29 24 22 23 22 18 20 22 16 12 42 24 25 18 14 15 16 14 12
38 40 36 29 17 13 12 7 19 42 17 9 16 20 35 60 5 4 4 4 9 13 10 30 14 23 42 41 29 24 22 21 22 22 22 20 18 36 32 31 29 23 20 20 22 19 13
45 43 38 24 16 12 10 10 36 13 7 26 63 70 95 99 12 4 6 6 7 16 72 99 28 22 51 42 29 24 24 24 26 29 27 33 36 36 34 31 27 26 21 20 16 15 12
48 47 38 22 14 12 7 24 23 8 17 75 86 95 100 100 82 5 6 5 71 100 100 97 57 34 57 53 28 26 24 23 25 27 29 32 31 36 34 31 26 20 16 14 15 14 12
49 47 31 22 14 11 12 39 7 8 45 94 100 100 93 100 90 29 6 24 100 100 96 81 99 50 55 81 29 24 22 22 26 29 30 32 34 31 25 25 18 17 14 16 16 16 14
50 46 28 22 14 9 33 26 7 10 55 70 86 86 87 84 78 21 10 100 100 100 100 84 75 63 60 74 26 23 21 22 26 25 24 25 21 21 22 20 19 17 17 18 16 14 13
49 41 28 20 12 10 54 32 36 41 67 80 91 100 100 70 54 10 28 100 100 100 100 96 83 56 72 62 25 22 20 20 23 23 21 21 23 21 20 19 19 17 15 14 17 21 18
44 38 30 17 10 15 53 48 82 91 81 84 90 100 93 87 24 9 93 99 98 99 100 79 63 74 89 50 23 25 22 19 19 18 18 17 18 20 20 19 17 15 19 33 29 20 17
42 37 31 15 9 18 47 61 77 85 84 86 90 83 83 73 84 32 95 98 100 100 99 87 80 80 90 58 22 23 23 24 20 20 22 23 18 20 18 16 19 25 32 32 27 24 22
39 38 31 14 9 19 34 62 86 83 61 86 99 99 92 86 38 93 100 100 100 100 93 95 98 85 84 55 22 22 24 24 25 25 22 20 18 17 20 32 36 35 29 27 32 29 20
39 39 30 14 9 15 39 60 71 96 90 50 70 99 93 39 90 98 100 100 100 100 99 97 92 81 80 52 30 22 24 23 21 19 18 20 22 31 39 36 29 26 31 32 26 29 42
45 42 28 15 9 13 40 58 65 100 68 39 31 62 6 78 95 100 100 100 100 98 95 100 90 72 82 54 46 37 31 29 30 35 40 43 42 35 30 26 32 31 33 42 44 57 58
47 44 28 15 9 9 39 50 83 100 31 14 28 16 42 98 100 100 100 100 89 97 100 100 90 60 49 51 49 47 46 47 48 47 44 38 30 31 31 37 35 41 53 54 68 67 62
46 42 30 16 11 8 35 62 60 72 29 11 8 19 67 100 94 99 100 100 100 100 99 100 88 52 48 46 48 49 50 49 47 40 30 27 27 42 46 51 46 62 75 71 71 54 58
41 40 35 17 12 9 25 45 30 41 23 23 32 95 92 98 100 100 98 98 100 100 100 98 100 60 50 46 47 50 47 40 31 27 25 27 46 55 72 66 63 64 65 77 72 70 55
40 40 38 20 13 10 20 36 30 49 26 64 71 61 69 73 75 87 94 100 96 98 85 76 73 92 59 47 42 39 36 34 30 29 30 45 69 86 88 74 70 72 76 80 78 74 75
39 38 41 25 16 13 17 25 40 36 49 52 46 52 70 76 76 75 84 75 86 76 66 58 52 61 89 67 50 43 39 37 33 32 48 70 78 100 88 82 76 78 83 70 75 72 71
40 36 42 32 20 18 10 25 36 39 39 65 72 67 62 76 64 68 65 56 61 59 65 58 44 40 49 65 63 53 54 31 28 38 58 72 95 98 99 87 81 90 83 69 72 74 83
44 37 37 41 29 19 16 12 42 50 36 32 48 55 47 62 63 51 42 42 37 44 46 48 42 37 34 34 40 38 26 23 29 58 60 78 93 98 100 98 97 100 90 82 76 82 91
50 38 37 41 38 23 20 13 14 38 45 36 31 32 34 39 33 44 51 52 50 43 44 43 38 36 37 24 17 18 20 34 60 64 65 96 96 97 100 100 100 93 85 77 76 79 84
55 39 37 43 40 30 23 21 17 11 25 35 27 27 26 37 45 46 55 52 44 42 42 38 39 38 40 33 25 24 25 44 73 66 73 96 94 88 83 93 88 90 80 66 68 74 78
56 43 38 37 45 38 26 24 23 18 7 18 28 38 28 45 41 42 46 47 46 48 52 58 54 60 69 62 49 39 44 45 64 64 66 96 77 73 70 64 62 66 59 58 60 54 59
50 46 44 41 41 46 37 25 24 23 19 7 10 20 46 52 43 33 36 46 48 72 77 84 68 82 82 78 70 61 50 48 51 60 58 78 67 60 70 63 54 54 59 59 59 64 74

GFSGBSN_500_rhum_030.txt.gz
RH
49 46 40 40 41 42 37 29 27 25 21 12 8 10 11 10 11 18 16 16 17 26 26 20 9 8 90 67 40 26 30 38 29 25 21 15 15 20 19 17 19 15 14 14 14 14 12
62 57 38 49 49 41 29 25 23 19 10 8 10 16 27 31 22 8 22 24 20 23 27 27 19 74 34 90 76 30 36 34 40 30 25 20 14 14 18 19 16 14 15 13 13 13 12
71 58 53 62 54 34 23 16 15 10 9 13 13 14 17 27 49 40 9 28 25 25 29 30 23 71 11 99 97 34 32 38 42 39 31 26 20 14 13 15 17 16 15 14 14 15 13
80 57 65 65 49 27 16 14 11 10 29 25 6 7 11 18 21 31 43 8 25 29 31 32 24 28 8 82 98 99 32 34 51 38 40 32 25 22 17 12 12 13 13 13 15 14 12
87 66 64 64 44 18 15 10 10 28 44 29 7 27 36 68 52 27 28 37 13 26 31 31 26 72 74 27 99 99 74 31 30 34 32 36 33 26 23 16 12 11 10 11 12 11 11
76 75 61 60 31 14 10 9 20 46 64 44 12 48 78 98 98 85 22 28 17 21 28 26 32 81 26 18 81 99 100 43 39 44 59 57 33 27 23 19 15 13 11 10 10 10 9
82 64 60 44 19 13 8 10 39 58 80 66 27 55 65 80 98 97 77 16 22 11 24 29 85 90 40 16 47 94 93 75 36 49 46 75 74 28 23 23 21 17 13 10 10 9 8
75 62 54 30 16 10 8 15 54 74 96 88 65 58 79 93 91 87 48 14 18 11 19 27 60 76 95 22 46 86 97 88 66 35 52 65 70 90 88 82 29 21 18 16 13 10 8
72 62 46 27 14 9 8 20 67 95 100 100 100 96 87 89 93 95 26 9 13 12 18 45 100 100 45 45 30 61 99 97 41 30 28 41 78 81 87 72 91 64 28 18 13 11 9
78 56 45 27 11 9 8 24 68 100 100 91 87 100 100 81 99 75 11 6 9 15 25 73 59 48 95 36 24 47 78 99 71 28 26 26 40 91 57 69 85 53 32 21 17 15 10
78 55 46 22 10 9 8 27 54 97 100 95 80 89 87 78 84 90 6 6 18 91 100 78 99 100 99 29 28 41 47 84 75 66 29 28 25 26 26 27 23 21 22 20 16 13 11
87 55 46 20 11 9 7 16 28 66 93 98 89 80 90 91 53 8 6 10 98 100 100 100 94 98 70 21 31 43 43 52 45 38 43 30 29 26 26 25 23 28 30 27 22 19 12
82 55 49 20 12 8 7 8 7 7 29 69 82 77 97 58 9 30 74 21 100 100 92 100 59 56 38 16 22 40 42 33 48 31 24 26 28 27 31 26 26 39 36 27 22 17 13
80 60 54 22 13 8 6 6 6 7 33 46 28 16 21 9 30 86 99 79 98 87 88 99 36 32 21 21 36 44 38 32 30 38 27 28 31 37 35 37 37 32 23 19 16 14 13
89 69 59 26 15 8 5 6 4 6 6 8 25 72 81 28 78 78 97 100 97 80 67 38 39 50 26 22 34 48 32 27 25 27 31 32 36 39 36 30 24 25 20 18 17 15 11
96 83 65 29 16 9 6 9 9 6 18 64 87 98 100 100 97 94 98 88 86 73 60 67 52 40 44 30 52 66 30 25 26 25 34 35 42 32 28 26 23 21 20 22 22 17 13
97 92 65 31 16 9 7 28 28 47 59 87 99 88 91 100 100 99 65 75 99 89 87 79 86 63 53 47 72 61 28 26 23 24 28 28 30 25 24 23 23 21 20 23 27 25 20
99 92 63 32 17 10 10 14 46 50 44 55 63 64 68 77 100 100 100 88 60 76 60 68 75 83 70 78 81 33 27 27 23 22 25 27 28 26 22 22 24 33 35 28 22 22 28
98 93 62 34 19 11 16 16 34 39 33 43 54 24 27 55 62 92 100 97 78 84 66 51 52 51 62 88 50 25 26 27 27 26 27 26 23 23 26 32 37 29 25 27 28 42 63
97 94 64 37 23 12 15 20 20 34 40 42 38 33 43 32 37 75 85 79 77 67 69 71 78 70 80 59 34 23 24 25 26 25 23 24 34 39 38 32 25 29 34 42 57 63 62
96 98 67 42 30 16 11 14 24 27 28 40 59 54 47 47 50 68 78 74 70 69 76 68 75 84 73 51 30 24 23 25 25 28 36 45 44 38 29 23 35 53 72 79 79 63 58
78 98 71 47 37 24 14 11 13 22 22 26 34 41 55 55 56 57 64 56 56 56 60 77 75 78 80 55 48 43 37 42 46 48 47 44 34 28 24 32 57 82 89 76 70 70 71
94 98 78 50 41 35 23 16 13 13 18 27 24 29 34 35 49 53 54 52 48 44 41 57 76 79 69 80 61 54 50 50 49 46 40 31 29 32 49 72 85 90 88 76 80 84 78
78 99 88 49 45 40 34 23 16 14 12 15 18 21 20 30 32 33 39 38 38 44 41 38 37 44 72 56 48 50 48 44 41 36 32 31 45 62 74 92 91 94 92 91 85 71 50
100 100 90 49 46 43 38 38 25 17 13 12 13 24 23 36 37 33 34 32 33 32 33 34 34 31 30 59 42 40 38 38 38 38 30 31 60 82 87 98 98 100 96 91 74 50 38
100 100 90 54 47 49 44 51 49 31 22 17 13 15 25 27 32 30 29 28 31 30 34 32 31 32 32 29 60 58 49 50 57 55 26 31 69 88 97 99 98 97 93 82 57 50 45
100 100 92 63 54 55 52 53 68 60 40 25 18 15 16 23 28 22 25 23 30 36 34 41 43 38 34 30 32 61 66 56 55 49 25 47 79 98 100 98 94 95 89 75 59 53 54
99 100 98 87 58 63 63 61 62 75 67 53 37 26 19 11 14 21 21 22 20 23 38 39 38 37 37 32 29 29 44 45 45 33 34 67 87 99 100 95 89 76 62 62 54 52 49
100 100 98 98 81 69 71 72 69 76 80 68 61 52 43 31 16 12 15 20 20 23 42 34 39 39 38 39 38 32 26 24 29 27 32 70 82 96 91 81 70 61 54 50 54 48 46

GFSGBSN_500_rhum_033.txt.gz
RH
69 81 88 87 72 61 38 25 17 11 8 8 13 19 28 30 16 16 20 19 27 23 23 33 30 19 59 32 95 94 57 41 37 31 28 21 18 19 24 21 16 11 11 14 16 18 15
77 76 78 78 60 45 30 20 12 8 8 17 26 55 56 14 18 37 18 31 17 27 28 37 37 28 40 21 74 100 97 38 43 36 31 27 21 17 18 25 20 13 14 17 18 17 16
75 74 76 68 58 37 28 15 9 9 18 29 48 78 34 23 22 59 61 46 41 22 32 36 44 32 66 24 42 99 99 89 40 48 35 32 30 21 15 18 22 16 16 17 16 18 16
71 66 72 71 47 37 22 10 9 12 31 49 84 84 17 51 77 94 68 44 60 15 35 39 47 36 28 100 29 88 100 93 90 64 49 35 32 27 20 15 18 20 16 17 18 19 17
68 71 77 59 44 32 16 9 8 17 44 78 100 70 43 67 83 100 90 55 48 15 30 41 46 33 25 100 72 87 99 84 98 82 77 46 35 31 27 18 14 16 17 16 18 18 16
75 72 72 55 43 26 13 9 8 22 56 99 100 89 64 93 86 89 71 81 38 23 22 40 43 27 73 61 40 86 99 76 99 99 91 82 45 35 28 21 16 14 14 14 15 16 14
79 78 72 50 40 23 12 9 8 27 85 100 100 100 92 76 93 100 100 67 36 26 23 38 37 29 42 68 33 84 100 65 97 93 93 90 54 32 30 27 26 19 14 12 12 12 11
86 81 65 52 45 21 12 8 6 14 90 100 100 98 100 92 86 92 78 39 34 16 27 35 33 26 42 100 58 75 98 91 71 95 75 80 70 46 36 33 28 22 18 16 16 13 10
89 79 62 56 44 20 12 7 5 8 16 99 100 94 96 78 87 91 81 20 33 13 29 32 37 100 100 73 45 60 98 98 95 98 94 98 98 97 82 48 30 26 23 21 18 15 12
91 82 70 60 45 19 11 5 4 6 14 85 90 98 99 100 98 87 25 16 24 20 31 29 68 100 89 42 38 81 99 99 98 90 97 73 100 91 97 100 75 31 31 29 25 21 17
96 90 76 61 41 18 9 5 4 4 17 67 90 94 99 96 95 60 9 18 17 33 43 28 88 94 99 56 41 52 76 100 94 97 69 77 86 93 92 100 97 93 86 80 58 37 23
100 94 82 56 35 15 7 6 12 27 32 31 62 87 74 38 24 7 12 16 31 100 64 98 100 98 71 38 40 51 48 94 100 57 42 51 63 89 98 97 78 46 70 51 25 20 20
98 94 83 46 31 12 7 10 37 62 60 23 8 7 7 7 9 11 15 23 100 75 92 100 94 68 97 53 29 43 50 72 94 62 41 34 33 32 34 30 23 23 22 19 18 17 16
69 97 83 39 26 10 8 29 35 66 63 65 86 84 24 10 13 45 100 100 86 56 51 59 47 43 92 45 34 43 49 60 86 74 77 74 55 34 26 24 23 21 20 20 18 18 18
96 97 84 38 24 10 12 21 32 47 71 86 60 93 85 76 67 93 96 97 99 49 96 98 88 99 65 27 24 44 46 39 54 63 40 32 34 38 33 27 27 32 30 31 23 17 14
80 98 85 42 23 10 12 22 23 29 39 55 94 40 32 52 52 59 47 91 98 99 83 75 80 55 28 21 39 47 41 35 35 80 45 30 28 31 34 34 38 38 32 25 19 15 14
65 100 87 51 25 11 12 20 23 24 24 24 41 67 73 25 45 68 28 56 83 98 48 36 33 23 16 25 46 46 36 32 28 30 27 37 37 46 42 35 30 27 24 21 20 18 17
90 99 94 70 31 13 13 20 24 25 23 31 18 38 95 72 58 56 40 36 38 27 31 51 44 50 44 49 76 72 32 28 26 29 37 38 41 36 31 27 25 23 22 25 27 25 20
88 100 100 90 36 22 13 17 21 33 30 30 27 18 60 84 82 51 42 53 54 54 72 74 61 62 49 56 74 68 28 27 25 26 29 30 29 28 25 24 24 31 34 32 26 22 30
68 82 100 90 44 30 13 15 24 26 39 44 31 19 22 49 57 66 66 57 44 42 27 41 46 43 44 75 67 30 26 28 27 27 28 27 26 24 25 32 37 36 31 27 28 39 57
65 45 100 99 62 35 18 14 16 28 30 32 49 41 35 48 51 46 53 52 56 57 65 65 71 65 71 68 36 24 24 26 29 28 26 24 26 38 42 38 30 26 27 34 68 72 85
52 50 97 99 91 42 28 16 14 15 24 27 28 42 46 49 42 48 48 44 43 48 60 68 77 88 84 59 39 26 24 25 26 28 28 37 44 44 38 28 28 41 54 83 87 82 80
11 17 73 100 96 50 35 27 18 14 14 23 24 25 32 36 42 44 46 41 43 40 45 54 76 80 73 58 47 40 33 31 32 36 44 47 45 37 28 31 49 72 94 87 82 79 78
4 7 31 100 99 66 41 36 32 24 15 14 17 22 21 19 22 31 30 30 36 33 33 36 34 47 65 85 77 61 53 50 49 48 47 43 36 26 31 54 67 88 97 94 87 70 49
4 5 51 98 100 86 50 40 43 43 32 19 14 18 25 25 26 31 31 30 30 29 28 30 30 34 31 48 74 64 58 55 48 45 42 33 29 38 59 82 85 96 100 99 89 61 41
6 9 40 98 100 94 62 48 50 56 52 42 27 15 15 24 31 32 29 31 28 28 31 33 32 32 34 33 58 60 41 42 40 38 38 32 29 56 81 91 92 96 100 94 72 50 51
24 36 54 99 100 96 76 58 57 60 62 60 51 36 21 14 18 24 28 27 26 25 25 29 31 33 35 35 34 49 64 50 41 44 58 42 26 61 87 94 95 99 100 96 78 63 49
75 100 81 99 100 98 88 71 69 67 64 68 62 58 47 31 22 16 16 21 24 25 24 24 27 34 32 30 32 34 44 71 65 56 57 57 28 71 92 95 98 100 97 76 63 56 48
82 100 82 98 100 99 99 86 79 79 74 82 82 67 61 59 53 46 33 16 14 17 23 22 30 32 29 32 31 31 34 38 62 57 53 41 34 78 94 100 94 95 80 61 59 56 49

GFSGBSN_500_rhum_036.txt.gz
RH
35 44 68 81 72 68 57 42 29 20 13 10 10 23 72 86 90 65 54 60 55 35 29 34 30 33 32 36 81 64 98 98 82 56 39 30 27 27 25 23 22 20 19 17 18 18 20
42 49 71 77 75 65 49 37 26 17 11 8 15 65 100 86 79 60 85 100 100 72 31 28 38 43 38 22 54 54 99 96 81 53 41 34 26 24 27 26 21 18 15 17 18 16 15
45 63 73 77 76 56 50 33 23 13 7 8 43 100 100 92 42 94 100 100 100 98 38 30 45 49 39 23 100 97 97 95 95 49 46 40 36 25 21 24 26 19 18 18 17 18 14
63 65 82 80 68 60 47 30 16 8 6 13 65 100 100 80 78 95 93 90 85 72 60 29 50 54 38 26 77 84 89 96 96 62 48 46 40 35 24 19 20 21 19 18 17 17 14
75 78 85 83 71 62 39 20 10 5 6 33 100 100 100 87 75 98 100 100 80 79 52 28 50 47 39 29 48 71 79 100 100 100 81 52 41 35 31 22 18 17 17 17 20 20 18
78 80 77 86 70 54 28 12 6 8 11 16 92 100 96 93 92 99 100 100 91 43 43 26 48 45 37 32 95 52 52 100 98 100 99 76 48 37 32 25 20 16 15 17 22 21 17
67 76 78 93 70 44 18 8 6 17 17 24 80 100 96 97 87 92 100 95 63 40 29 34 46 39 38 33 95 99 46 98 100 100 89 79 60 36 31 27 26 23 17 15 16 18 17
78 65 59 89 70 30 11 6 11 20 11 22 96 100 100 95 82 90 82 88 32 51 17 41 49 45 32 43 100 99 88 98 100 100 98 100 77 65 42 32 29 26 22 18 15 14 14
63 76 73 91 58 21 8 7 18 21 22 11 95 100 96 80 100 100 89 40 42 28 29 47 50 41 47 86 93 78 99 99 100 100 100 99 98 87 60 39 32 27 25 25 22 18 13
79 64 78 87 46 16 8 12 36 47 18 6 13 86 97 93 100 96 29 33 36 26 44 47 44 39 86 99 87 63 100 100 91 98 100 98 94 92 75 54 39 34 32 30 26 21 16
54 60 71 83 39 13 9 21 43 51 21 8 7 9 15 35 48 15 29 29 25 43 82 40 35 34 44 92 100 92 98 100 95 94 98 99 95 99 100 89 59 41 32 29 26 22 17
44 54 76 87 37 12 10 22 29 38 35 10 10 15 11 10 17 26 21 26 42 44 42 80 100 48 85 72 38 65 91 100 98 100 98 99 100 100 96 100 100 96 85 55 32 28 17
38 49 70 89 37 12 11 19 23 39 34 13 41 47 71 19 20 22 88 99 62 34 79 96 99 99 79 40 35 64 72 93 100 94 92 93 99 100 99 98 98 100 94 74 66 57 37
32 39 89 80 47 12 12 18 26 34 56 25 27 25 66 26 63 90 80 58 35 58 82 99 64 85 73 34 30 42 66 98 94 96 91 84 78 95 80 100 99 95 59 30 24 23 21
73 38 77 97 60 17 11 16 17 26 47 70 38 40 62 64 34 49 40 75 80 91 70 95 87 63 34 29 26 38 51 71 100 98 68 57 52 50 46 57 49 37 30 30 29 23 21
42 46 36 93 87 23 12 13 17 29 33 66 58 47 76 63 61 85 59 64 53 61 71 50 44 68 74 31 36 44 46 54 89 88 80 73 69 57 42 33 27 27 32 32 26 27 23
28 40 28 56 100 49 14 12 21 24 27 33 72 39 47 44 33 77 49 39 68 75 78 73 90 68 43 50 49 51 49 43 44 90 59 42 36 34 38 41 36 32 32 31 33 23 18
53 54 43 44 76 88 13 14 19 22 23 31 38 72 59 21 26 60 69 48 41 68 62 63 40 24 28 42 54 49 41 37 34 40 78 33 34 32 34 41 39 39 37 31 24 21 20
79 31 53 39 42 98 15 15 15 27 28 21 33 26 59 61 21 24 34 24 29 24 25 29 46 32 26 35 52 51 34 32 29 30 39 39 40 47 43 37 32 28 25 22 23 29 31
46 35 37 40 57 99 35 14 15 20 27 39 28 46 44 53 53 55 43 34 35 34 49 47 46 47 40 67 81 74 30 30 28 27 33 32 34 32 29 26 26 27 32 36 34 29 26
41 29 21 45 37 91 80 17 14 14 21 27 46 48 49 44 39 46 43 48 57 59 52 52 52 43 38 69 71 40 27 28 28 28 30 29 28 26 25 29 38 40 36 32 29 30 70
8 18 9 17 10 80 98 31 16 14 14 21 26 33 40 50 49 43 43 40 41 52 65 68 65 66 63 66 39 25 24 26 27 29 29 26 25 30 39 43 38 31 29 37 57 87 81
9 19 6 7 6 48 95 50 26 20 15 13 14 20 27 31 27 40 44 40 41 39 44 49 75 90 79 60 43 36 27 25 26 26 25 26 35 44 42 37 31 34 43 71 96 93 88
2 5 6 6 6 22 93 89 36 28 22 16 14 14 17 18 18 22 31 30 31 32 30 31 38 46 67 74 56 45 40 33 28 31 34 43 46 46 38 32 36 56 75 98 98 90 79
2 3 4 8 10 32 86 99 45 40 39 31 18 15 14 18 19 27 29 30 29 27 26 29 32 32 35 36 62 78 63 56 51 50 49 48 46 37 33 35 49 77 90 99 97 84 58
9 10 8 25 27 37 90 99 64 48 51 50 46 28 21 15 18 20 27 34 32 32 30 28 31 37 37 35 38 56 73 64 60 56 49 45 40 34 34 46 75 98 98 99 93 76 46
13 24 19 60 100 68 99 96 91 56 55 61 58 55 44 33 22 16 17 24 29 30 27 26 26 25 27 30 36 37 50 61 46 45 42 39 36 34 29 52 92 97 98 99 94 77 54
20 30 27 38 87 95 100 94 98 69 61 66 67 68 65 56 44 40 28 18 17 22 26 27 24 22 21 25 28 31 32 37 62 52 41 40 47 52 32 54 94 98 98 100 96 80 65
38 51 38 40 86 100 100 99 100 93 80 80 76 74 85 79 66 58 54 51 41 29 16 15 21 25 25 25 30 26 26 30 35 62 57 54 54 59 53 53 89 92 93 96 94 69 62

GFSGBSN_500_rhum_039.txt.gz
RH
71 75 72 56 70 81 92 77 42 16 8 6 9 11 23 73 100 100 98 84 80 85 76 68 47 31 42 34 24 23 75 100 95 85 95 81 76 42 80 78 83 51 47 39 45 38 34
80 88 68 43 65 86 90 53 16 8 8 16 17 16 59 100 100 98 68 85 100 97 99 85 59 36 46 34 26 25 78 99 90 95 96 79 76 42 44 56 70 80 60 56 56 45 36
88 90 44 62 74 82 73 20 8 8 17 14 14 23 100 100 100 72 82 98 89 99 100 100 83 56 44 33 29 23 53 56 100 100 98 80 63 48 36 49 45 83 67 38 37 32 28
51 57 42 58 76 90 36 9 8 18 22 13 12 55 90 100 97 78 95 100 98 89 100 100 87 49 39 35 28 69 100 59 95 98 97 84 54 46 31 46 45 53 67 26 24 20 17
60 43 42 45 82 69 17 9 12 21 29 9 22 82 90 100 89 86 100 100 98 96 100 100 72 36 42 36 37 61 100 91 99 100 97 95 56 47 37 42 45 34 46 39 20 18 15
67 40 36 42 83 48 13 8 16 23 31 9 32 100 88 99 99 85 100 96 97 92 89 82 37 37 42 40 81 100 93 99 100 100 100 99 78 43 41 41 54 37 28 37 24 24 19
59 64 25 44 87 36 10 11 24 30 33 29 25 100 99 64 82 97 100 98 88 54 76 42 41 48 50 41 36 90 78 100 100 100 97 94 67 36 37 32 33 31 21 20 20 22 21
68 54 30 52 89 24 11 16 29 35 28 32 14 64 98 86 92 96 100 100 56 43 45 36 58 53 45 36 28 31 55 98 100 99 99 95 68 53 40 37 34 28 23 19 17 16 20
54 59 28 74 91 19 13 16 25 36 22 48 16 10 91 96 97 97 93 34 45 48 36 58 58 49 39 64 85 77 86 99 100 99 97 96 88 61 44 37 34 31 29 25 21 17 15
38 22 37 59 97 20 14 13 24 46 36 51 18 19 13 30 45 28 36 48 30 43 60 99 55 51 33 45 74 98 100 99 100 100 100 99 99 85 56 43 37 33 31 30 27 21 17
20 18 25 46 93 35 12 15 22 48 34 52 17 24 71 63 33 32 25 29 51 52 90 100 65 50 31 100 99 100 100 100 100 99 99 100 100 99 90 72 48 39 34 30 27 24 21
21 19 18 36 73 74 14 17 22 45 33 57 17 47 63 58 21 30 42 48 50 51 70 74 66 61 64 98 86 98 93 94 100 100 99 100 99 95 100 99 78 59 43 34 26 22 20
21 22 17 44 75 88 28 18 21 41 39 47 52 30 41 47 38 43 58 49 40 36 44 54 68 99 92 95 92 99 83 86 94 97 95 98 99 96 100 100 100 71 56 39 33 26 22
21 17 33 39 84 74 47 15 22 36 63 45 60 20 48 31 34 36 42 59 80 100 67 41 50 45 65 83 88 85 98 79 98 100 100 99 96 100 100 100 100 100 100 88 69 65 55
23 18 20 22 82 81 80 15 20 34 72 76 45 15 47 30 36 36 52 70 67 79 92 60 43 60 34 29 76 71 90 100 100 100 100 99 97 92 100 99 96 100 98 99 77 48 35
22 16 11 36 76 78 89 17 21 29 40 74 34 23 26 36 52 49 58 47 56 58 47 61 68 48 37 35 42 60 56 87 98 100 100 98 96 98 94 95 98 96 81 66 42 33 28
24 13 9 23 43 58 100 20 18 24 25 61 56 23 18 26 40 38 45 54 64 54 49 54 78 71 33 30 34 42 51 66 97 96 95 79 74 66 68 63 50 48 39 40 40 35 35
18 8 6 15 25 45 99 30 16 22 22 42 60 25 21 18 34 31 27 23 42 53 58 53 46 27 23 25 32 45 49 48 62 93 76 60 56 68 57 53 44 40 35 29 33 39 31
13 3 4 8 20 23 52 77 14 16 29 30 58 61 49 32 30 38 28 34 18 18 18 20 19 16 17 36 48 46 43 42 37 49 80 68 36 35 32 33 37 39 38 40 38 28 23
2 2 2 4 9 12 13 99 16 15 19 34 47 52 54 52 56 61 54 44 39 35 28 45 46 37 28 40 51 47 36 34 29 31 40 54 39 42 44 44 41 40 34 28 25 28 29
1 1 1 2 5 6 7 64 38 15 18 21 39 43 50 48 45 43 47 60 59 45 44 47 47 50 44 60 75 76 35 31 28 27 32 40 36 38 36 33 30 27 27 28 36 34 30
2 2 1 1 2 4 5 26 81 19 14 15 18 34 39 49 48 47 46 57 66 66 69 70 70 60 49 64 66 65 29 26 26 26 27 36 31 29 27 29 37 41 38 35 30 28 31
4 3 2 2 2 2 4 6 69 34 18 15 15 16 25 33 30 37 43 41 40 40 55 66 82 80 80 73 47 30 25 26 28 29 30 29 26 31 43 46 43 37 32 27 31 51 75
8 4 4 3 3 2 4 5 43 71 29 19 15 14 14 16 17 22 30 35 34 35 31 31 46 72 79 69 55 44 35 27 26 26 28 29 34 45 44 42 38 35 34 38 52 89 87
6 11 7 5 6 6 6 10 42 82 42 32 21 18 16 16 16 16 18 23 26 28 31 30 27 29 46 52 76 77 55 49 44 34 31 34 46 47 44 41 37 33 43 62 82 96 93
13 16 12 10 10 16 18 28 42 86 76 41 36 29 25 20 18 17 18 19 24 29 31 31 28 29 33 38 42 55 78 77 62 54 52 50 49 46 43 38 33 44 60 84 99 99 96
40 29 15 15 16 26 31 73 68 95 99 48 48 50 50 44 34 26 20 17 18 20 25 28 27 26 26 26 26 30 37 50 69 64 60 57 51 45 42 35 34 53 81 96 100 100 96
58 19 18 19 18 30 35 34 96 100 100 90 53 57 63 65 64 60 47 38 31 23 20 19 20 23 25 22 22 21 28 32 36 51 55 49 46 42 40 38 33 49 89 100 99 99 94
61 30 16 28 32 72 46 48 94 98 100 100 94 65 69 78 80 83 77 70 64 56 49 44 34 22 16 20 21 22 24 28 27 28 39 58 44 42 48 57 52 43 86 100 100 97 98

GFSGBSN_500_rhum_045.txt.gz
RH
15 18 22 24 22 24 27 53 40 25 17 22 20 16 29 96 82 96 98 91 100 98 100 100 100 98 62 30 50 59 61 60 40 18 48 63 55 49 52 83 99 93 86 92 71 47 40
16 20 24 25 23 24 27 48 27 21 26 19 18 16 76 100 88 98 95 100 78 76 70 69 100 100 94 40 30 50 65 61 52 34 28 75 58 58 52 54 84 99 95 95 90 57 51
18 22 24 26 21 27 30 57 26 20 18 16 12 18 36 100 97 100 100 86 76 100 77 60 59 100 100 61 29 30 77 63 43 47 28 81 76 74 69 58 64 70 93 99 97 80 60
17 21 25 24 23 25 40 38 41 21 12 12 14 19 32 100 98 60 89 85 82 85 74 78 74 78 88 64 34 43 78 81 44 50 35 80 92 89 84 82 60 57 84 95 98 97 71
17 22 27 25 25 28 46 27 48 22 13 12 14 19 31 96 88 64 66 70 79 80 81 93 94 100 100 67 41 38 71 79 50 59 33 55 90 97 88 88 76 53 62 93 97 97 90
19 24 31 29 20 28 47 26 54 24 13 14 14 17 17 99 100 92 85 86 96 97 87 87 100 91 92 62 42 36 61 58 61 64 47 42 60 90 85 90 85 62 61 80 97 98 92
20 23 30 31 16 34 53 28 57 18 19 17 16 18 18 28 100 100 83 100 100 90 69 90 100 100 100 52 55 72 64 54 55 99 60 65 73 68 66 56 83 77 68 78 99 90 94
19 26 30 23 12 34 54 25 54 16 22 21 24 29 29 32 32 41 57 72 65 84 68 77 100 95 55 68 59 77 59 43 52 36 46 79 83 96 99 74 80 78 70 76 96 88 96
21 27 28 15 10 26 55 23 44 18 22 24 31 52 65 36 49 91 69 98 100 100 88 98 88 67 77 76 46 39 40 44 60 57 62 84 95 100 99 88 69 75 71 73 97 91 93
25 26 24 7 8 26 56 22 37 20 22 32 35 40 71 59 60 94 100 96 89 89 97 99 98 100 99 100 81 32 63 83 87 74 97 100 100 100 100 100 92 76 72 67 93 94 65
23 20 14 4 5 20 49 22 34 25 27 49 69 62 46 55 50 60 100 100 98 98 92 100 100 100 100 69 98 99 100 100 100 98 97 92 100 99 100 100 83 67 71 49 82 98 85
14 16 10 2 4 14 29 27 31 35 22 45 56 60 60 40 39 49 55 66 69 85 100 89 89 100 100 100 95 99 100 100 98 100 100 99 100 99 98 98 78 64 50 36 67 97 94
10 11 7 2 2 8 18 70 27 36 19 32 39 51 57 41 36 47 50 44 39 47 62 60 100 98 100 88 92 100 100 100 99 100 100 100 99 99 99 100 74 51 44 41 54 89 88
8 6 4 2 2 3 14 78 18 27 19 26 35 31 44 51 26 24 32 40 20 22 26 37 45 73 74 87 67 99 100 100 100 100 100 100 99 100 98 95 67 50 46 44 41 54 55
5 4 3 2 2 2 17 25 23 26 18 22 29 24 30 30 43 16 22 26 34 46 53 58 68 90 83 78 88 91 93 99 100 100 100 99 96 100 100 100 95 61 45 43 40 38 39
3 4 3 3 2 2 2 18 71 26 20 20 22 22 21 25 35 40 28 28 41 39 40 58 61 70 83 89 94 86 78 88 93 97 100 100 100 100 99 100 100 93 78 64 51 48 41
3 3 3 3 2 2 2 7 27 20 33 16 18 24 18 21 28 39 48 40 44 37 26 31 31 33 56 74 85 92 77 69 80 81 91 100 100 99 100 96 100 94 99 85 86 80 77
4 3 3 3 3 2 2 2 8 62 22 30 22 22 20 22 23 29 33 40 36 33 34 30 29 24 24 38 73 76 78 82 70 87 92 92 98 98 100 100 100 100 100 100 100 100 98
4 3 3 3 4 2 2 2 4 24 19 32 31 32 34 36 34 32 26 35 36 37 34 24 21 19 18 20 27 45 53 69 89 81 78 86 89 97 98 95 95 99 100 99 94 88 84
4 4 4 4 5 3 2 2 3 5 57 18 35 36 41 49 53 40 26 19 25 27 27 18 14 13 12 18 24 36 42 45 53 77 89 94 94 95 89 97 84 87 84 81 76 62 48
4 4 4 5 5 4 3 2 2 4 14 28 26 40 38 43 43 50 48 28 20 14 19 29 29 27 16 18 31 41 44 42 42 40 52 74 82 81 58 61 77 72 68 63 68 54 47
4 3 4 4 5 6 4 3 2 7 6 74 15 22 34 38 41 46 49 57 54 47 43 42 43 37 39 27 35 52 49 39 37 30 29 33 64 66 42 45 44 45 44 41 41 51 41
4 3 4 3 5 7 6 4 4 12 8 17 81 15 21 28 36 42 42 53 55 52 57 66 70 63 52 39 41 50 66 67 34 30 29 27 32 50 44 46 41 37 36 41 48 46 35
4 3 4 4 6 9 7 5 5 20 19 12 58 63 16 16 25 33 37 42 44 40 36 34 32 64 73 69 66 61 55 55 30 27 29 29 36 36 38 51 33 33 34 38 39 37 34
4 3 3 4 7 12 8 9 7 28 27 26 16 85 54 16 15 18 27 32 38 39 39 36 30 28 29 67 68 59 49 37 30 26 28 30 31 31 30 30 38 41 43 40 37 36 33
4 3 3 4 8 15 11 8 11 24 61 42 43 34 96 35 17 15 14 15 15 19 23 28 29 28 27 26 27 35 51 66 47 39 29 28 29 31 33 38 45 44 42 38 34 37 50
3 3 3 8 24 37 13 9 15 20 33 56 57 78 92 97 27 18 16 17 20 18 18 22 20 23 24 22 21 24 30 32 46 62 63 48 36 32 31 36 42 44 41 37 35 43 57
4 3 4 17 64 71 21 15 35 46 40 40 50 83 97 100 80 28 22 20 20 21 22 22 23 21 22 23 20 20 24 23 23 25 33 54 62 56 49 42 46 44 41 38 39 53 68
4 4 12 50 96 84 68 28 54 66 78 59 67 53 99 100 100 61 36 35 40 39 35 31 30 29 27 26 25 23 22 20 20 19 23 27 35 49 60 58 53 49 44 38 36 42 77

GFSGBSN_500_rhum_048.txt.gz
RH
13 14 18 21 28 20 23 40 44 33 19 13 11 10 12 43 100 100 100 92 94 82 84 100 100 100 100 35 23 31 78 73 65 53 29 17 53 48 51 47 82 97 91 98 99 81 88
11 13 17 22 26 16 24 53 39 28 13 13 13 13 14 66 100 98 92 93 100 82 69 60 99 99 100 99 40 19 63 75 58 62 52 18 42 61 56 53 51 93 100 98 97 74 73
10 14 19 24 22 14 22 55 38 20 16 17 20 16 17 94 100 96 59 71 100 80 82 84 61 100 91 100 67 21 53 89 82 66 72 36 29 72 60 58 50 70 95 98 89 60 87
10 15 20 24 13 9 22 45 35 14 18 25 35 20 16 65 83 84 67 57 80 73 77 80 68 61 91 100 82 47 62 99 95 100 91 39 45 80 66 63 52 53 86 95 99 83 90
9 16 23 17 7 6 20 43 31 16 24 33 48 43 38 27 93 100 98 84 80 81 78 74 76 69 100 100 87 43 71 86 98 100 89 57 24 72 75 62 56 52 57 83 95 98 100
10 14 16 12 4 5 17 45 29 20 38 38 46 40 63 85 59 67 89 100 96 93 88 79 99 86 98 100 71 87 99 94 83 95 100 65 35 50 77 75 60 54 52 56 72 90 95
12 12 13 7 3 3 17 49 28 28 52 40 41 42 48 56 99 96 71 81 100 90 72 84 90 78 86 71 62 96 100 99 76 100 91 68 47 28 30 58 78 84 72 59 56 64 93
12 11 10 5 2 2 12 55 27 34 51 39 34 48 86 75 55 74 97 64 74 70 81 82 100 83 69 73 75 92 100 96 90 81 63 51 30 34 39 75 93 90 84 79 57 64 74
10 8 8 4 2 2 7 55 29 23 51 48 33 30 49 84 100 97 67 82 88 85 79 96 82 69 71 85 93 100 87 77 72 49 48 35 29 30 37 63 96 85 67 81 77 59 62
6 8 7 4 2 2 2 29 36 13 38 49 44 24 40 47 69 49 56 62 65 82 79 77 73 98 100 100 100 67 50 42 61 39 85 50 53 72 79 76 87 90 74 76 82 67 63
6 7 9 4 3 2 2 12 50 14 19 45 50 24 30 36 46 46 78 85 100 99 100 97 92 93 92 100 86 61 40 67 38 31 28 33 43 81 90 91 99 100 80 68 68 75 68
6 7 10 4 3 2 2 4 39 23 14 28 40 43 23 27 36 42 51 67 65 75 98 100 100 89 99 92 96 72 46 58 45 45 51 71 91 90 96 100 99 92 89 73 82 77 66
6 7 8 4 3 3 2 2 14 32 12 16 25 36 28 18 25 34 40 40 41 73 100 100 100 98 100 100 83 86 99 91 87 96 97 99 90 84 100 100 100 97 96 100 89 71 63
6 6 6 4 3 3 3 2 4 37 15 15 18 27 30 16 18 21 22 28 30 44 67 80 98 98 98 96 100 100 100 96 100 99 100 100 98 97 93 97 100 100 100 100 93 76 60
6 6 5 4 4 5 3 2 2 16 29 13 15 19 25 27 13 21 32 45 45 53 57 68 69 71 73 72 81 100 100 100 100 100 100 100 97 100 99 100 98 98 95 93 93 64 45
7 6 6 4 4 5 4 2 2 4 33 20 13 15 20 26 20 22 32 48 40 36 55 64 62 71 66 73 72 72 92 97 100 100 98 96 100 100 99 100 100 100 97 90 82 62 50
8 6 6 4 4 4 5 3 2 2 12 31 15 14 16 20 32 24 27 38 48 44 28 35 40 52 78 77 70 65 57 68 84 100 100 98 94 95 95 98 98 97 89 78 69 57 53
8 7 6 5 4 4 4 4 3 3 3 26 21 20 15 16 28 35 34 34 37 43 35 29 30 27 25 39 70 64 65 68 65 73 87 99 100 100 99 98 100 100 100 97 91 76 61
7 7 6 5 4 4 5 4 3 2 4 4 29 24 18 22 21 20 30 33 34 32 36 31 25 24 21 18 29 67 65 68 70 75 92 87 99 100 98 99 100 98 99 100 95 98 99
6 6 5 5 4 3 4 5 4 3 4 4 30 23 34 36 37 37 22 26 38 36 34 31 20 18 16 14 17 24 36 45 57 76 78 80 82 90 94 100 100 98 98 97 95 98 97
6 6 5 4 4 3 3 4 4 4 4 9 8 33 34 43 44 45 43 28 24 20 25 24 21 18 16 12 18 28 38 43 45 47 65 71 87 91 88 98 98 97 91 86 87 91 84
6 5 4 4 3 3 3 6 6 5 4 14 7 53 27 40 45 43 40 51 49 36 26 24 36 35 32 28 19 24 35 45 42 39 39 43 56 76 82 72 58 61 84 83 74 78 76
6 5 4 4 3 3 3 5 8 7 6 12 13 15 60 34 41 43 38 40 59 65 65 64 65 65 58 45 35 35 59 63 55 38 34 29 30 43 78 58 43 51 49 48 50 50 48
8 6 4 3 3 2 3 5 12 9 8 22 21 19 55 56 29 35 45 41 46 49 40 37 34 43 72 70 59 46 47 58 64 52 29 27 27 28 43 51 50 45 44 48 52 50 54
7 6 4 3 2 2 3 9 15 13 10 21 29 23 26 85 41 22 32 41 39 43 42 40 38 32 28 33 72 66 55 46 40 29 26 26 28 33 41 34 44 41 36 34 37 41 39
10 7 4 3 2 3 4 10 35 16 15 23 40 18 42 31 96 34 20 21 33 33 39 40 39 37 33 29 25 32 45 58 57 46 40 27 27 29 31 32 29 36 47 45 42 39 39
11 8 4 3 2 3 5 10 27 12 32 40 47 27 43 51 49 100 41 18 20 20 19 22 23 23 26 27 25 23 24 27 33 52 62 54 39 29 28 28 36 43 47 44 43 43 40
12 8 3 2 3 3 4 12 11 21 40 58 55 55 22 60 72 88 100 24 18 18 18 17 19 20 21 23 19 20 18 21 25 26 29 38 51 55 47 32 36 39 42 42 43 39 41
12 9 3 2 2 3 6 11 19 20 37 68 57 72 70 73 73 94 100 87 22 19 21 18 20 22 24 25 26 25 24 22 19 19 20 22 24 26 40 50 54 50 46 44 44 41 38

GFSGBSN_500_rhum_054.txt.gz
RH
24 10 11 10 7 6 5 3 3 16 19 23 27 31 35 51 70 23 79 82 71 52 77 96 70 81 100 100 66 29 24 33 100 100 97 51 20 32 45 36 50 60 69 97 100 93 97
28 11 14 11 8 7 5 3 3 18 16 23 28 29 28 39 59 46 55 90 55 54 100 96 73 66 98 100 95 40 27 24 88 100 99 78 30 18 49 41 44 67 93 97 96 90 92
26 28 15 10 8 7 6 4 3 18 19 30 23 41 24 30 61 77 36 78 59 76 79 79 73 66 94 100 100 60 34 26 33 100 99 70 48 20 26 50 46 58 87 97 95 92 90
24 24 17 10 8 7 7 4 3 12 17 35 29 42 27 31 49 84 48 56 68 65 64 67 82 75 85 100 99 100 40 28 29 98 99 100 81 33 19 50 54 44 58 59 91 95 94
20 28 15 10 8 8 8 4 3 10 16 31 45 36 24 39 37 43 61 68 67 74 71 62 49 65 98 98 100 94 43 28 39 98 100 100 73 50 19 23 52 42 45 38 56 89 96
27 23 14 10 8 8 8 5 3 4 15 22 37 39 28 50 38 35 45 65 62 71 88 91 49 62 93 98 100 100 45 27 50 98 100 99 77 50 31 15 18 27 32 38 43 54 94
36 20 13 10 8 7 8 6 4 2 15 14 27 26 33 30 36 52 44 50 56 64 78 82 70 74 76 95 97 100 76 22 47 100 100 98 80 43 33 20 12 31 53 39 42 42 64
31 21 14 10 9 8 7 6 4 2 8 12 18 21 26 34 51 48 56 45 62 80 78 75 62 94 95 98 100 100 100 94 95 100 91 93 80 66 50 34 16 26 51 52 56 52 50
30 26 14 13 12 8 7 6 4 3 3 12 12 18 21 24 45 49 58 70 54 63 71 73 58 64 73 89 98 100 100 100 99 98 98 85 80 91 60 40 21 13 35 54 56 55 46
43 28 16 12 12 7 7 7 5 3 3 10 11 16 18 21 31 39 29 56 73 98 98 100 82 40 61 93 100 100 100 99 100 100 100 100 99 69 58 41 27 20 33 53 58 57 54
45 34 14 15 10 7 8 7 5 3 3 5 11 14 17 16 27 34 41 34 62 69 84 99 100 98 62 98 100 94 100 100 100 100 98 93 87 67 46 34 27 31 42 45 57 60 58
44 35 16 15 9 7 7 6 6 4 3 3 13 11 15 17 21 29 54 36 57 70 61 76 100 77 94 56 81 99 100 98 100 100 98 96 76 58 44 34 31 33 25 23 35 48 55
45 36 15 15 12 7 6 6 6 6 3 3 4 12 13 20 21 25 30 44 47 71 82 65 73 76 83 55 65 73 82 97 99 86 71 51 44 36 32 27 21 21 19 23 32 36 18
47 39 19 15 14 10 7 6 6 6 5 3 3 14 12 18 24 31 22 29 47 56 57 76 54 48 83 76 93 88 72 63 80 65 65 43 37 31 26 26 36 42 38 54 74 40 51
53 42 26 13 14 11 8 7 6 6 6 4 3 4 15 14 17 24 29 34 41 45 58 69 68 53 54 40 35 38 52 50 46 40 38 34 36 39 32 33 37 49 55 75 75 65 59
58 50 31 14 14 11 10 7 6 5 6 5 3 3 12 16 14 18 23 31 34 39 36 54 68 69 63 96 96 79 21 24 22 22 26 34 32 43 54 56 51 74 98 75 76 75 60
58 58 34 15 14 11 8 7 6 5 6 5 3 3 8 20 19 15 23 24 30 31 28 29 48 63 69 90 84 87 35 21 17 20 21 28 42 53 70 65 69 84 96 81 90 91 78
64 62 41 18 13 10 9 6 6 5 5 4 4 3 6 16 30 18 20 29 26 23 27 28 24 24 43 55 83 74 59 57 60 56 61 61 63 70 71 80 76 74 75 77 86 86 96
64 65 53 19 12 13 9 8 6 4 5 5 4 4 6 6 25 27 22 24 30 30 28 27 29 23 22 26 42 47 63 68 70 76 74 69 71 73 71 79 73 77 83 86 90 94 91
67 69 56 26 9 15 8 7 5 4 5 5 4 4 5 7 25 36 34 35 31 23 27 32 32 29 20 18 17 35 51 53 54 64 68 70 74 77 83 84 81 81 89 96 97 81 88
70 70 57 31 17 18 8 6 5 5 4 5 4 5 6 6 16 38 51 51 52 42 26 31 33 32 21 17 15 14 27 39 47 56 64 67 74 84 83 84 87 85 84 84 80 99 75
78 81 64 38 22 22 10 6 5 5 4 4 4 5 9 7 9 40 47 58 55 61 47 32 23 25 25 35 32 20 24 29 37 42 44 50 63 70 78 84 84 90 92 88 84 86 74
77 76 64 50 39 25 12 7 6 5 4 4 3 4 8 13 12 22 61 51 61 57 65 61 42 26 32 45 45 41 31 29 37 42 44 43 44 46 47 60 74 76 84 80 76 81 84
78 76 67 63 41 27 13 8 7 5 4 3 3 3 6 14 15 23 51 64 55 62 58 71 76 72 69 78 76 70 53 40 49 58 55 45 38 34 30 29 33 54 85 75 56 57 61
79 78 66 66 49 34 18 14 10 6 4 4 3 3 7 17 21 20 53 74 66 51 59 57 53 45 47 56 71 75 74 61 56 57 57 66 53 30 28 27 29 35 52 54 61 47 64
86 78 64 70 61 39 30 26 17 6 5 4 3 3 11 36 28 26 32 61 96 76 48 53 53 49 43 39 34 31 47 74 66 59 50 43 31 27 27 28 38 42 36 55 50 38 37
86 86 67 73 71 56 44 31 20 10 6 4 3 4 16 25 28 32 51 49 73 98 79 45 49 50 48 43 42 40 37 33 33 44 58 63 56 47 34 29 31 34 37 39 55 53 52
87 86 74 72 63 56 45 35 26 17 6 4 3 5 8 19 19 37 65 81 53 80 100 77 40 42 43 42 40 36 32 28 30 29 30 33 40 54 60 58 55 39 35 41 51 60 69
90 79 77 65 58 51 44 41 35 18 8 3 3 3 6 18 24 25 44 80 84 64 90 100 85 34 29 31 33 28 24 27 25 24 24 24 23 25 26 28 35 47 54 48 38 41 46

GFSGBSN_500_rhum_057.txt.gz
RH
33 24 17 12 12 10 8 8 4 3 4 12 16 21 33 32 36 49 45 31 64 51 40 54 96 85 66 89 54 22 28 24 67 100 97 75 25 18 24 31 38 29 82 98 97 96 95
34 25 16 13 13 12 8 8 5 3 5 12 18 25 26 28 39 57 45 39 58 48 77 100 100 79 70 98 94 31 17 27 25 100 98 91 31 20 22 40 39 35 37 97 98 96 98
36 30 17 16 13 11 10 8 7 3 4 11 17 22 29 35 32 45 35 36 52 62 71 74 70 69 63 96 96 96 17 25 26 99 100 97 51 22 20 43 46 42 58 99 97 97 97
36 33 19 16 13 16 10 9 8 4 3 10 17 20 40 34 41 39 40 36 44 61 56 59 65 75 67 91 97 100 24 18 29 100 98 100 97 36 21 42 51 51 56 86 97 98 97
40 35 23 17 13 13 10 9 9 4 3 9 15 19 25 36 39 56 62 48 51 60 72 52 45 54 77 74 98 100 35 27 28 100 100 100 97 45 20 30 51 43 42 54 73 93 96
40 36 27 19 16 12 11 9 9 6 3 7 13 18 23 39 31 48 69 65 43 70 54 42 46 65 95 100 100 83 47 28 35 100 100 100 100 61 31 17 13 13 23 41 56 82 91
41 35 31 22 17 13 10 8 9 8 4 4 10 18 18 39 26 44 64 90 61 38 48 45 60 78 91 74 100 94 53 36 51 98 100 99 81 56 40 17 16 26 40 32 37 49 83
43 37 32 23 22 17 11 11 9 9 7 3 9 15 17 31 37 38 71 93 96 43 42 44 62 79 93 86 84 86 39 33 44 92 100 91 71 73 59 23 14 18 39 53 47 41 44
46 40 33 27 24 19 17 11 9 11 8 4 4 10 17 22 41 31 65 89 100 82 36 47 53 58 62 97 100 52 53 100 80 98 91 92 81 68 53 38 21 16 22 37 51 44 36
44 40 36 32 19 19 18 12 10 11 11 5 3 9 12 17 32 36 52 67 85 100 55 40 69 77 93 100 99 88 100 100 100 100 100 100 98 76 59 46 35 18 14 18 39 52 43
44 40 40 35 23 17 18 15 11 11 11 6 4 4 11 17 24 33 36 57 75 69 52 30 43 70 95 100 99 100 49 47 98 98 98 88 99 88 67 50 38 26 16 14 23 44 52
43 43 44 40 30 17 18 15 11 10 10 9 4 3 11 16 21 21 28 36 55 71 68 39 42 76 72 100 99 100 100 100 91 100 100 100 86 80 89 77 45 34 25 19 18 24 28
45 51 46 45 33 18 18 17 10 9 8 9 5 3 7 13 18 20 24 38 45 60 58 43 52 37 37 70 96 100 100 100 97 98 100 94 94 76 66 52 39 30 25 20 22 19 11
50 52 48 48 39 20 16 17 12 9 7 8 6 3 3 9 14 20 21 33 44 55 55 34 33 40 42 50 53 100 100 100 100 99 89 80 78 68 50 40 34 26 23 20 18 15 14
55 52 54 52 47 21 15 21 12 10 7 7 8 4 3 3 15 14 22 26 36 40 63 48 36 62 71 45 42 85 98 97 96 82 76 68 65 51 43 38 34 28 23 26 24 22 26
58 52 58 60 55 30 14 20 13 9 7 6 9 6 3 3 10 16 14 26 35 31 37 64 56 52 35 43 44 64 78 73 62 45 40 46 43 37 34 33 28 27 33 38 41 41 48
50 51 58 62 62 46 14 21 13 10 8 6 8 6 3 3 6 19 17 17 28 33 30 30 62 79 84 83 63 32 46 44 43 37 32 33 31 31 28 22 32 50 38 47 67 68 46
50 59 66 66 69 55 34 20 11 10 12 7 7 6 4 3 4 15 27 17 29 25 28 27 24 47 69 92 100 92 31 25 21 23 28 34 46 52 75 88 94 82 77 82 78 77 61
56 60 56 69 61 54 40 30 10 10 11 7 6 6 5 4 5 10 29 24 21 30 32 26 24 23 27 54 68 82 86 74 77 72 74 68 65 66 78 87 81 70 72 75 76 75 55
57 62 58 72 61 57 45 36 11 10 17 7 6 6 6 5 4 8 27 37 27 27 28 33 34 26 21 20 37 51 58 55 61 64 66 59 68 68 64 61 65 77 82 83 84 59 60
56 65 64 72 70 58 54 44 16 14 18 9 6 7 7 5 4 8 19 40 46 46 46 31 41 37 25 22 18 23 48 49 51 51 54 74 83 77 73 74 79 81 82 74 61 77 60
58 58 69 70 71 69 58 51 33 22 21 14 8 8 8 5 4 8 11 51 51 51 52 46 34 37 33 22 18 13 15 34 46 45 53 63 71 69 72 73 73 74 80 86 87 82 66
61 61 62 70 67 73 59 59 44 32 28 26 18 19 9 7 7 6 14 39 64 62 59 59 48 36 29 33 32 25 20 16 22 32 36 40 44 48 53 59 57 53 70 67 70 78 82
64 61 61 65 68 76 63 54 54 44 34 35 27 24 14 8 9 9 15 26 74 62 64 67 65 57 46 40 44 44 43 33 22 28 33 36 42 43 41 41 39 42 50 64 67 72 59
67 58 61 63 68 80 60 47 48 36 33 34 29 18 16 6 8 11 21 27 59 79 74 68 77 80 76 78 86 83 71 59 42 34 41 51 51 49 42 35 31 29 32 52 70 66 61
81 69 79 65 73 81 61 43 43 33 34 26 16 8 7 5 7 13 24 42 51 82 83 69 65 66 67 78 84 74 79 80 69 54 50 57 56 63 52 29 27 29 38 42 39 51 55
88 85 75 72 84 83 64 43 42 38 32 23 12 7 5 4 5 10 11 34 65 62 91 88 62 61 54 46 44 40 38 37 40 56 70 61 50 44 34 28 29 30 39 43 39 49 51
98 87 83 83 84 72 51 44 43 38 26 17 16 8 4 4 5 12 11 24 51 74 58 84 86 57 62 57 48 46 44 41 38 34 31 30 44 62 59 53 53 36 33 33 37 46 57
98 92 90 91 84 69 49 45 44 39 32 25 16 8 4 4 5 19 25 23 25 59 76 64 96 88 53 54 52 49 45 42 38 35 32 31 28 30 34 36 42 52 57 56 39 37 49

GFSGBSN_500_rhum_060.txt.gz
RH
35 32 31 24 22 16 17 14 15 13 10 5 6 17 22 27 30 33 47 33 28 34 29 40 45 65 93 67 72 45 35 40 78 100 97 64 40 24 16 18 23 50 73 68 92 97 99
37 34 32 28 24 18 17 13 16 13 11 5 6 15 19 28 32 46 60 44 27 38 46 82 100 100 89 67 57 66 25 44 31 99 100 83 38 42 20 18 22 27 60 74 65 99 98
38 36 33 31 26 21 19 17 17 15 12 7 4 10 16 28 31 44 68 60 32 35 46 62 67 67 79 64 73 80 23 36 29 95 96 94 73 48 26 20 32 37 38 62 92 97 96
36 41 34 33 28 24 20 19 17 16 13 8 4 7 16 25 30 51 66 70 39 28 45 45 82 68 51 69 100 82 24 22 30 39 100 100 100 89 32 22 41 51 49 40 54 96 95
36 41 42 33 30 24 20 20 18 15 13 10 4 5 15 21 29 53 67 76 48 26 37 37 47 53 56 92 100 93 27 16 35 31 100 100 98 90 56 28 40 38 57 31 46 64 96
37 44 45 34 31 25 20 21 18 15 12 10 5 4 12 20 32 48 65 76 58 32 38 45 58 75 84 100 100 100 34 27 31 29 98 100 98 86 73 23 23 33 41 41 47 63 98
37 46 43 33 32 28 20 20 20 16 12 10 6 4 10 17 32 37 56 77 65 39 38 46 69 80 61 92 100 96 40 26 31 64 100 99 92 71 70 32 24 33 52 58 53 57 80
35 47 46 36 33 31 23 19 20 17 12 10 9 4 8 14 30 34 47 68 57 60 49 66 86 91 91 100 100 75 64 32 58 100 100 94 74 77 76 37 20 28 37 43 46 53 56
35 51 44 39 38 34 27 17 19 18 12 10 12 6 5 13 26 27 37 62 31 62 34 38 52 69 81 81 97 72 67 64 100 100 100 99 88 98 86 39 20 19 41 47 50 46 46
47 57 42 40 41 39 31 18 16 17 12 10 11 9 3 9 20 23 33 55 44 33 44 49 46 65 86 54 74 42 58 46 100 100 100 100 100 100 74 40 26 19 36 40 49 44 39
58 60 47 44 42 43 34 18 17 16 13 9 11 8 4 5 17 22 28 44 68 43 39 61 76 77 71 58 73 96 65 60 89 98 96 96 96 90 61 54 28 16 15 22 34 38 33
66 60 52 48 46 44 43 19 20 17 12 13 10 8 4 4 11 22 28 37 58 52 42 46 56 82 49 73 93 96 79 77 75 100 100 100 100 94 72 56 41 29 20 15 14 15 12
64 58 60 50 47 51 49 31 24 22 10 17 8 8 5 3 5 16 25 31 51 50 42 40 37 51 84 97 49 44 82 97 97 100 97 100 94 85 75 60 48 37 30 23 18 15 10
60 57 58 50 52 53 51 45 32 22 10 18 12 11 8 4 3 15 17 34 36 65 40 22 22 31 43 57 98 90 92 82 87 76 92 87 85 88 79 65 54 43 35 28 24 21 17
55 51 54 50 55 51 50 41 37 34 11 17 15 13 12 6 3 12 17 25 36 37 49 46 20 21 29 42 94 100 87 86 84 100 99 97 80 74 63 76 72 52 37 32 26 20 16
48 51 50 57 55 47 49 40 39 36 14 18 17 14 14 15 6 4 19 18 31 36 53 52 39 23 43 46 50 96 100 100 99 96 84 77 74 69 56 49 42 38 37 32 26 22 20
48 50 50 54 57 50 49 41 39 42 28 23 24 20 19 20 15 6 12 19 20 33 34 58 69 44 33 45 44 44 60 85 74 54 57 64 64 56 54 40 39 34 31 29 29 21 18
51 53 54 47 58 56 48 50 49 45 39 31 27 26 24 26 20 12 4 18 21 26 31 33 44 69 62 45 46 41 51 53 55 53 42 37 39 40 33 32 31 30 27 26 30 28 37
56 52 53 48 52 59 59 55 46 44 41 39 34 25 22 28 25 13 6 10 28 25 32 29 33 34 59 76 70 43 36 39 42 39 33 34 30 32 29 34 31 31 56 81 80 67 54
59 56 51 49 50 56 61 56 51 48 37 40 34 26 20 25 23 14 5 6 27 27 29 32 32 35 34 36 74 84 46 29 32 33 54 58 48 50 52 53 72 69 97 87 81 61 61
70 70 58 51 50 50 58 52 56 46 32 32 30 25 12 13 15 9 4 10 28 48 44 42 42 41 36 32 28 43 73 75 77 79 75 79 82 85 85 76 71 74 73 77 75 88 60
66 72 59 52 46 53 59 54 60 56 36 28 26 20 12 12 12 7 5 6 14 48 58 65 45 46 45 38 27 29 22 47 71 69 65 66 80 98 96 94 86 81 88 88 86 93 76
74 72 67 60 43 53 63 62 64 55 41 26 24 19 15 15 11 7 4 4 10 42 60 69 67 46 49 46 37 25 22 19 22 46 52 47 54 61 60 64 62 58 64 57 61 76 77
84 75 65 59 51 58 63 66 64 54 39 30 28 23 22 12 8 6 5 4 10 42 77 73 79 60 44 41 39 40 32 26 22 25 32 36 45 46 44 48 47 49 51 62 58 66 68
98 87 76 60 61 68 76 68 71 54 36 35 32 29 17 10 6 6 7 6 15 33 76 75 78 87 70 47 34 39 40 40 48 39 34 40 44 44 44 45 42 39 34 31 34 52 65
97 94 90 68 67 71 82 74 70 48 33 33 32 30 14 7 5 5 7 9 10 34 37 78 77 90 93 82 60 52 64 77 75 60 45 37 48 59 54 56 51 38 31 28 32 36 46
99 99 94 75 68 80 91 85 69 46 31 32 28 22 14 6 4 5 9 12 10 18 34 57 75 81 86 88 89 95 92 86 86 80 75 62 59 58 62 53 51 31 28 29 43 43 40
100 98 98 85 77 82 90 89 68 41 36 32 20 16 9 6 4 4 7 18 24 17 30 51 64 70 74 70 65 66 66 59 53 50 48 55 60 63 60 48 52 40 31 31 34 38 39
98 98 95 98 87 93 93 89 70 40 39 37 23 14 9 6 4 4 7 20 40 40 44 40 50 58 71 69 66 57 47 45 45 44 41 37 34 33 39 49 54 57 57 56 51 40 34

GFSGBSN_500_rhum_063.txt.gz
RH
26 29 36 40 36 32 26 20 18 19 15 14 11 7 5 11 22 22 42 53 47 36 43 40 45 41 77 83 88 99 45 49 78 100 100 85 99 77 33 26 33 63 58 78 93 91 98
22 30 35 42 38 33 24 20 20 20 15 14 12 8 5 11 21 28 38 52 45 33 40 44 66 67 92 94 73 87 61 65 60 100 100 100 100 75 27 27 22 39 48 66 79 96 97
21 29 36 43 40 33 24 20 21 19 16 13 12 8 5 11 21 29 40 46 41 29 36 40 48 89 76 89 69 68 78 58 64 100 100 100 100 94 35 21 25 21 45 78 74 74 99
25 32 36 41 42 33 29 21 21 20 16 13 12 8 4 10 23 34 40 39 37 29 40 34 51 50 60 65 53 63 83 56 56 87 100 100 100 98 38 21 26 24 27 51 88 72 85
28 33 36 42 43 35 33 23 21 21 17 15 12 8 5 8 18 36 43 36 31 38 55 58 49 56 80 88 86 64 69 46 51 77 99 100 100 99 52 28 25 22 19 22 53 84 70
47 40 35 42 45 39 36 24 22 24 20 14 14 10 6 6 15 31 43 37 34 39 54 67 64 84 100 99 100 77 50 36 49 66 100 100 98 90 75 46 39 37 15 22 28 46 64
56 45 36 48 47 42 39 30 23 24 20 13 17 15 7 5 14 26 43 38 39 39 42 56 72 85 99 100 100 100 35 41 52 39 91 98 81 79 59 60 44 31 21 46 60 40 34
62 52 47 58 50 45 42 33 26 25 22 15 16 17 11 6 9 22 36 48 41 51 44 36 47 60 74 99 89 89 47 53 41 35 94 92 81 91 86 70 66 34 28 42 79 52 38
68 60 60 64 56 48 42 41 32 26 24 19 17 18 15 11 8 20 26 53 46 55 56 49 38 47 47 64 83 86 53 59 36 52 93 93 87 86 92 78 74 31 29 44 67 62 51
69 65 66 70 63 51 45 48 39 30 26 19 19 18 19 20 9 12 21 45 52 53 58 54 72 73 40 70 76 89 71 38 30 86 100 96 100 99 97 89 75 28 28 41 43 34 36
68 67 67 71 63 52 51 47 37 32 29 23 20 21 24 26 14 7 20 27 46 52 52 42 50 53 56 85 60 63 48 60 100 100 100 98 95 94 92 93 75 33 22 25 32 30 30
67 66 62 72 57 52 55 43 36 35 32 26 24 26 24 28 28 6 15 26 45 44 45 74 48 80 71 86 62 92 100 100 100 100 100 100 95 97 96 99 76 30 19 18 26 25 18
63 62 61 72 56 54 57 39 34 34 33 27 27 27 25 29 36 10 9 23 29 43 36 40 49 64 81 52 57 69 97 100 98 100 100 100 97 100 98 94 49 34 18 16 16 12 10
61 60 60 62 54 59 56 39 31 35 32 26 27 28 25 29 39 16 8 14 33 44 41 27 30 42 72 69 53 26 44 79 100 100 89 81 84 94 85 63 54 34 20 16 13 12 12
56 53 59 61 58 59 56 38 34 31 30 24 25 26 24 27 34 16 8 14 25 32 47 21 26 28 39 89 51 33 35 46 60 99 80 76 90 83 78 73 61 46 38 32 26 22 21
55 50 59 60 58 62 56 40 41 32 30 22 22 24 20 23 22 14 7 10 19 34 41 44 33 44 39 58 84 61 73 84 100 99 100 99 96 90 81 78 65 57 52 43 37 32 27
55 55 60 59 53 64 61 45 39 33 33 24 21 21 17 14 16 15 6 7 19 30 34 50 41 50 48 40 89 73 73 74 94 98 92 92 92 80 78 60 65 66 61 49 39 30 26
59 58 63 59 59 58 63 48 45 36 39 32 26 22 19 15 15 17 7 6 18 21 33 35 42 60 63 57 42 42 86 100 96 83 87 85 80 70 65 56 49 45 38 35 32 27 23
63 63 59 57 60 56 62 55 42 41 41 39 30 24 21 16 17 15 8 4 11 28 30 37 36 34 79 78 66 46 47 82 68 60 49 61 61 67 50 47 36 39 37 34 28 24 18
65 66 61 63 64 56 58 56 54 43 41 38 33 28 23 16 12 10 9 5 6 27 29 37 39 38 38 92 93 69 48 38 40 50 50 49 45 44 41 38 38 32 33 34 34 37 52
79 66 68 67 62 57 56 56 55 47 43 39 34 28 20 16 10 9 8 6 4 17 39 36 38 45 42 37 70 99 99 81 43 44 46 40 32 31 30 31 33 38 47 67 54 70 55
97 90 79 67 72 67 58 59 56 52 48 38 31 28 20 13 8 7 6 6 5 10 34 56 42 43 56 53 38 34 74 94 84 53 39 61 80 81 82 81 79 76 71 74 87 89 69
97 97 93 74 74 69 60 59 65 64 50 40 30 23 18 12 7 5 5 6 6 7 23 55 61 63 48 59 58 43 32 35 65 80 81 80 75 72 76 82 83 85 99 81 85 85 73
94 94 98 85 76 71 65 68 72 76 64 43 28 22 14 10 7 5 5 7 7 6 15 41 61 68 77 55 54 55 43 30 26 26 42 66 62 52 54 58 55 54 63 67 63 58 51
92 95 98 97 93 79 68 76 72 73 79 49 32 21 15 12 8 4 4 6 10 8 12 25 74 74 88 79 54 49 47 48 56 53 41 36 37 38 40 45 43 42 44 44 43 42 41
94 94 96 93 96 86 77 80 76 75 74 54 36 27 22 14 7 4 4 5 13 13 11 26 65 89 90 94 80 59 44 41 44 44 56 53 40 35 41 46 54 56 60 42 36 31 30
97 94 99 98 97 88 82 84 79 80 77 54 47 37 28 14 7 5 4 4 12 23 13 24 38 85 78 88 89 75 58 43 50 66 84 81 64 49 61 63 65 55 60 48 31 30 33
96 100 99 98 99 94 89 91 82 82 73 64 48 44 23 11 7 5 4 4 9 22 29 22 26 44 82 83 87 94 90 87 92 91 91 86 80 74 74 71 67 58 50 38 32 32 35
97 98 100 100 97 94 86 91 86 84 73 62 55 28 18 11 7 5 4 4 9 16 24 40 27 37 45 70 80 83 92 99 92 85 69 50 47 47 51 52 62 67 65 61 61 58 44

GFSGBSN_500_rhum_066.txt.gz
RH
38 27 26 25 36 39 33 33 30 21 22 16 13 16 18 16 9 11 27 29 32 29 21 20 36 49 73 90 76 76 97 90 49 87 100 99 97 85 56 92 89 79 75 63 34 36 96
46 40 32 29 35 39 37 38 33 22 22 17 14 18 18 20 11 11 29 34 36 34 25 21 43 68 48 83 75 72 100 100 97 72 100 100 100 82 72 96 94 98 88 80 42 35 90
56 48 40 31 35 36 43 42 37 24 22 20 15 18 19 24 12 11 24 42 40 37 30 36 36 45 49 76 81 84 99 100 100 100 98 100 100 94 80 72 74 52 83 93 63 58 97
59 54 45 46 35 38 48 44 40 25 22 20 17 18 20 24 16 12 27 47 45 43 35 55 64 94 87 29 63 64 94 97 99 96 100 100 100 100 95 84 63 47 79 99 99 96 97
62 61 50 50 37 47 52 46 40 29 24 20 17 18 20 24 23 9 27 52 50 51 36 55 77 94 98 99 49 39 84 94 65 98 100 100 100 100 88 59 83 53 80 94 89 82 83
61 61 57 54 53 56 57 49 37 31 28 19 18 20 21 25 27 9 24 49 55 52 41 47 61 60 75 100 100 31 79 84 60 98 100 100 96 100 95 86 57 54 34 58 64 66 62
53 64 62 59 62 63 64 52 38 32 27 21 21 21 22 27 27 9 22 48 60 54 38 44 43 44 45 98 100 58 69 67 62 100 95 100 98 84 82 85 58 65 28 21 36 50 64
53 57 65 62 68 71 66 52 36 32 27 20 18 19 24 30 29 11 17 42 57 54 36 47 42 45 39 53 100 50 100 84 66 100 100 100 94 80 84 98 42 36 29 29 30 27 30
58 58 66 67 70 74 64 51 35 33 26 18 16 19 23 26 26 11 14 41 55 54 49 72 66 44 41 55 86 64 78 68 51 88 78 85 82 90 88 94 63 40 44 32 25 39 41
61 64 70 71 71 74 62 54 37 28 26 18 16 16 20 23 20 13 10 35 60 48 54 55 99 73 67 83 76 91 65 51 81 98 100 100 100 100 88 94 90 51 38 32 25 36 41
67 70 75 71 71 72 61 56 36 27 23 16 15 16 18 15 14 14 11 21 55 51 52 49 99 59 66 100 62 56 46 53 51 89 85 85 96 96 96 84 76 63 55 54 28 32 35
76 74 76 71 72 68 59 58 37 29 21 18 17 17 16 12 13 15 10 16 35 48 43 53 76 55 64 77 69 58 44 37 60 100 96 100 98 100 100 99 96 87 81 78 30 30 24
87 66 76 71 72 63 63 58 39 32 23 21 21 18 16 12 12 15 10 15 23 42 36 43 70 51 36 50 61 39 37 71 99 100 99 100 99 97 98 95 92 86 76 49 26 23 16
96 63 69 76 75 63 66 58 44 35 31 26 24 20 18 12 9 13 10 11 21 49 30 32 36 72 43 40 95 97 100 100 99 99 93 90 80 95 90 81 89 81 71 58 42 25 15
99 71 60 80 74 65 70 58 52 41 36 30 28 23 19 12 8 11 10 7 14 32 40 27 34 37 59 30 60 94 100 100 97 90 100 82 88 87 84 79 80 75 56 42 26 18 15
100 85 60 79 75 66 70 61 57 45 38 31 33 25 20 12 8 8 9 6 12 22 54 36 33 37 45 50 30 55 76 91 100 99 91 91 97 92 96 96 82 63 46 32 22 19 17
96 94 69 76 79 65 70 65 59 47 37 32 33 26 20 11 9 6 8 6 6 17 30 60 47 46 47 78 41 20 34 61 68 87 100 95 100 100 92 78 69 62 50 41 35 33 29
85 98 78 75 83 70 68 65 61 51 42 32 32 27 20 12 9 5 6 6 5 11 24 34 66 51 50 56 71 64 67 58 74 88 97 99 100 99 98 89 83 76 62 54 48 46 40
75 98 85 80 88 71 66 64 61 59 45 32 31 27 20 13 9 5 5 5 5 6 19 31 35 64 67 55 46 52 64 80 83 100 98 96 91 84 81 74 56 50 63 65 59 47 35
85 97 96 81 93 79 74 68 64 59 47 36 30 26 22 14 10 5 4 5 6 5 13 26 32 36 60 82 70 52 61 83 93 76 84 86 81 82 76 65 65 54 53 47 40 31 33
90 97 97 92 95 88 95 72 67 60 47 40 31 25 21 14 12 6 4 5 6 6 10 29 29 37 43 68 99 78 54 65 96 74 56 46 56 63 61 55 50 44 40 34 29 32 22
98 97 97 89 88 91 96 84 71 68 61 44 38 31 20 20 13 6 4 4 6 7 7 21 34 34 41 53 60 88 100 81 62 48 42 49 49 44 37 34 32 30 32 29 28 34 39
99 96 97 95 93 87 96 93 79 74 68 62 47 36 29 27 15 7 4 4 5 7 7 13 30 37 40 41 55 49 49 69 82 83 60 43 40 39 52 73 79 74 78 74 71 69 54
98 97 97 97 97 98 96 97 87 79 71 65 49 47 37 36 15 6 4 4 4 6 7 7 18 43 61 59 48 55 53 42 36 55 83 86 76 78 81 80 66 68 86 85 84 82 72
98 96 97 97 97 96 96 97 84 83 78 69 59 52 44 30 14 7 4 4 4 5 8 8 11 31 62 72 81 59 54 54 43 30 28 40 61 68 62 56 51 52 51 53 55 55 54
97 97 96 97 96 96 96 96 92 84 80 66 54 52 51 23 15 7 4 4 4 5 8 10 9 22 72 86 90 81 53 52 48 44 37 33 25 25 33 40 43 46 45 44 45 43 40
98 97 97 97 96 96 96 96 96 94 79 64 54 55 35 20 13 7 5 4 4 4 9 13 12 16 45 78 86 90 78 57 47 43 44 46 48 46 42 31 36 36 40 46 53 47 39
98 97 97 97 98 96 95 96 96 93 83 79 55 57 34 19 14 7 5 4 4 4 8 14 16 16 39 70 79 91 92 78 58 59 61 63 73 80 69 53 50 45 47 52 52 49 38
98 98 97 98 99 96 96 96 95 89 78 80 58 50 37 17 12 8 6 4 4 4 7 16 21 26 22 39 64 81 96 98 92 93 90 88 84 84 81 75 70 66 66 66 61 55 45

GFSGBSN_500_rhum_072.txt.gz
RH
51 42 52 54 66 67 64 58 55 55 57 60 41 24 17 14 10 9 8 8 8 14 42 41 39 38 45 57 15 92 97 100 90 100 71 51 100 99 90 87 96 97 88 94 70 82 64
50 57 51 64 67 70 73 64 60 62 63 60 39 26 16 15 11 9 8 7 8 19 44 46 44 41 42 75 31 54 93 95 100 100 52 72 100 99 99 97 92 89 98 89 96 81 46
53 49 56 63 73 77 78 75 66 68 66 59 38 25 18 15 12 9 8 7 10 18 41 51 50 43 41 75 62 41 73 94 94 100 58 74 93 100 100 100 89 97 99 98 75 56 71
85 57 54 58 74 78 85 83 78 75 70 56 36 24 18 16 12 9 8 7 10 17 41 58 46 43 41 74 100 41 42 79 76 100 84 47 97 100 100 83 93 96 99 98 98 97 97
96 84 55 56 62 77 86 90 91 81 70 56 36 23 21 17 12 9 7 7 11 16 39 61 33 40 46 68 100 99 28 71 90 100 100 49 88 100 100 84 98 100 98 93 93 94 98
89 96 77 61 68 78 86 92 98 86 70 55 39 24 23 18 12 9 7 7 10 18 36 60 30 36 45 65 89 100 26 82 95 94 100 72 98 90 100 100 93 86 89 88 94 90 100
98 100 95 67 74 71 93 92 97 89 71 55 40 27 25 19 13 9 7 6 9 25 36 53 36 53 47 56 53 55 36 94 100 81 100 69 99 84 84 79 92 100 100 100 100 91 94
10 100 97 82 85 72 92 99 96 92 73 56 42 28 27 20 13 9 7 6 8 22 32 50 39 62 77 73 52 49 78 100 99 94 100 100 82 73 77 100 100 97 96 100 99 99 96
3 28 99 94 86 87 90 99 96 92 76 57 43 32 30 20 13 9 7 6 8 25 30 42 41 60 86 66 76 83 100 84 98 100 100 100 99 100 95 95 99 94 96 95 98 96 100
4 4 76 96 90 99 95 96 96 92 79 61 44 36 31 18 14 9 6 5 8 24 28 52 32 48 97 49 95 100 83 72 85 94 100 100 100 97 100 97 94 84 86 93 94 84 100
5 4 14 100 71 98 91 95 97 90 81 64 48 38 32 17 13 9 6 5 7 21 27 64 34 33 64 69 98 97 100 97 100 82 89 100 100 98 100 100 100 82 88 82 92 96 83
4 4 4 94 85 97 96 98 97 88 82 68 52 41 33 17 13 7 6 5 6 16 26 47 32 38 40 54 91 96 100 97 100 96 92 100 100 88 99 87 83 77 88 91 91 95 86
5 4 3 71 96 97 99 99 97 89 84 70 56 44 32 18 13 7 6 5 6 12 36 47 33 33 41 42 69 83 95 100 96 78 97 94 88 89 86 97 100 97 97 98 83 78 78
5 4 3 42 87 96 99 97 94 93 85 73 57 45 32 18 12 7 5 4 5 9 26 36 40 22 28 35 46 70 97 95 100 99 96 89 74 76 87 81 96 96 100 94 60 55 73
4 4 3 36 85 95 98 98 89 96 85 74 57 49 30 18 13 7 5 4 4 6 26 34 42 21 19 30 51 56 58 74 91 93 95 90 84 88 81 100 96 95 93 77 74 64 55
2 3 3 49 91 96 99 97 93 97 87 74 57 48 29 19 13 7 5 4 4 5 23 28 40 29 23 25 22 25 34 55 85 79 93 95 90 90 89 100 100 100 89 81 84 83 69
2 3 5 76 93 97 99 97 96 97 91 74 60 48 28 20 13 7 5 4 3 4 11 27 34 41 29 36 51 69 59 81 84 89 94 94 86 93 92 89 99 100 94 98 97 88 82
3 4 11 94 93 98 97 97 99 97 92 73 59 45 29 22 14 7 4 4 3 3 6 17 40 38 40 55 72 68 67 74 75 74 79 90 97 96 92 86 86 85 86 93 96 85 76
4 4 38 96 97 98 96 97 97 98 91 76 61 44 31 26 18 7 4 4 3 3 4 11 22 51 37 42 38 46 56 74 75 76 68 82 86 92 95 100 100 96 100 100 98 84 57
5 58 65 98 97 100 97 97 97 98 89 79 61 42 32 28 22 7 5 4 3 3 4 4 10 30 54 37 52 43 32 58 69 66 57 67 93 93 91 94 100 99 96 82 77 64 65
19 45 95 100 99 98 96 98 97 98 93 80 64 45 34 32 27 8 5 4 3 3 4 3 5 15 35 54 46 61 61 42 33 47 57 51 60 97 97 96 94 95 91 85 75 87 60
99 53 96 96 96 97 97 98 97 98 96 84 66 49 40 39 28 10 5 4 3 3 3 3 4 10 21 38 40 56 46 58 67 66 57 68 80 96 98 100 92 88 85 78 76 66 55
100 100 99 99 100 97 97 98 97 97 96 88 70 52 44 41 28 12 6 4 4 3 3 3 3 4 11 29 40 42 65 73 59 95 100 91 96 99 86 65 60 68 73 67 60 48 38
100 100 98 96 99 98 98 97 97 97 90 90 67 52 45 41 27 16 7 4 4 3 3 3 3 4 5 20 38 46 45 49 86 72 75 87 96 80 72 54 40 44 44 38 31 28 24
100 98 96 94 92 96 98 98 98 96 93 90 66 55 44 43 30 22 9 4 4 4 3 3 3 4 4 5 31 45 48 45 44 56 75 78 68 83 78 54 47 36 34 32 29 31 36
98 98 93 98 99 97 96 98 98 96 96 89 65 48 41 42 31 28 11 6 4 4 4 4 3 3 4 4 6 30 53 46 48 47 45 42 38 44 80 70 56 43 42 45 52 50 51
99 100 99 98 98 97 95 97 98 98 97 88 77 61 46 44 35 27 15 9 5 4 4 4 4 3 4 4 6 14 42 60 55 50 50 48 45 38 30 34 39 38 40 42 41 37 36
100 99 98 99 98 98 93 95 97 98 94 82 83 55 47 46 40 25 16 12 7 5 4 4 4 4 3 4 6 10 23 46 65 64 58 51 44 41 43 38 30 29 28 30 32 25 24
98 99 97 96 98 98 96 97 97 97 95 85 72 61 49 41 41 27 18 14 9 5 5 4 4 4 4 4 4 7 28 51 58 70 73 72 61 59 48 48 41 35 38 44 45 44 42

GFSGBSN_500_rhum_078.txt.gz
RH
18 10 12 5 3 22 56 79 86 63 77 80 78 83 89 82 74 50 41 25 15 12 9 5 7 17 28 22 29 55 70 49 75 90 100 94 91 82 67 49 58 98 92 95 68 83 85
17 22 23 15 9 6 8 36 77 92 70 87 82 77 90 94 78 54 44 28 15 13 8 5 9 23 24 33 44 54 78 44 72 84 100 100 96 94 80 61 61 98 98 98 88 91 85
14 12 21 24 16 17 14 10 8 70 90 80 89 82 84 96 80 56 47 29 16 13 7 6 12 27 20 44 55 59 92 44 68 96 100 100 95 85 93 83 76 94 95 96 99 97 84
29 24 19 24 19 17 22 22 14 24 65 85 100 86 87 96 85 62 52 29 17 12 6 6 15 21 28 71 79 70 92 49 77 100 100 79 100 80 87 76 81 100 99 95 97 98 78
34 27 16 16 22 22 21 19 19 11 22 90 99 98 93 99 90 64 52 31 17 11 6 8 19 15 36 63 91 98 85 68 70 91 53 53 100 99 95 98 95 98 100 93 94 98 96
58 43 27 21 29 32 31 22 18 12 13 33 96 93 92 100 90 67 52 31 17 9 6 11 19 14 26 32 38 57 84 51 68 92 87 66 89 97 94 90 95 93 83 97 97 99 97
60 54 46 39 38 34 28 21 17 10 11 9 94 100 86 98 87 67 53 31 17 7 6 12 19 20 32 26 34 40 44 46 71 76 100 68 83 99 100 100 81 95 92 100 100 100 97
53 44 40 38 33 28 14 17 14 10 8 9 89 100 89 97 82 65 56 29 17 7 7 16 14 26 33 28 69 89 61 59 75 64 67 76 99 84 98 100 100 100 99 98 100 97 97
65 59 48 38 17 14 12 8 14 13 9 7 66 98 98 96 81 60 52 28 17 6 8 18 13 31 38 63 96 97 98 98 98 66 84 100 98 100 89 95 95 98 89 99 94 97 99
53 40 31 20 16 17 16 11 11 12 9 6 39 86 97 97 86 60 50 25 14 6 8 19 16 35 50 44 93 98 96 74 57 68 81 88 100 97 100 100 100 100 94 98 100 98 98
38 41 34 29 22 21 18 13 8 9 9 8 17 40 98 96 85 68 45 24 10 5 9 19 17 36 30 38 45 71 100 83 57 88 85 100 95 84 90 100 94 91 96 98 100 100 97
13 16 20 20 22 19 18 17 7 6 6 6 7 56 92 97 84 71 41 20 8 6 9 18 21 31 36 27 39 46 99 88 60 86 100 76 97 94 100 90 79 99 99 99 100 98 95
23 17 15 16 14 13 15 14 11 6 6 5 5 42 80 97 83 72 34 15 7 5 7 18 20 24 34 42 60 75 97 95 98 74 83 80 65 62 63 70 82 96 99 100 98 100 100
21 18 13 7 10 9 9 9 11 8 6 5 4 36 96 97 84 67 30 12 6 4 6 21 15 23 42 34 57 65 88 77 70 99 75 51 47 60 62 72 68 86 100 98 92 97 90
21 11 8 6 4 4 5 6 6 8 6 4 8 93 98 97 85 63 23 9 4 4 5 14 15 31 44 26 32 48 52 52 62 72 79 78 53 41 33 50 79 63 69 73 75 91 86
9 15 17 15 23 7 10 3 4 5 7 4 52 98 97 97 86 55 18 8 4 3 4 9 18 44 52 27 31 69 56 64 65 66 76 75 75 73 65 57 62 75 80 68 71 76 68
16 38 12 18 87 59 87 23 3 80 86 25 85 98 97 97 87 45 15 6 4 3 4 6 17 36 49 88 75 64 62 70 72 73 74 76 76 73 78 74 70 81 86 91 80 69 64
40 52 9 24 100 98 100 12 48 96 75 97 98 98 98 97 78 36 14 5 3 3 3 4 13 16 60 62 76 57 39 34 56 76 74 67 64 72 78 71 82 84 79 78 74 73 65
62 42 11 66 92 83 62 39 100 90 100 98 99 98 97 98 72 29 11 4 3 3 3 3 6 27 15 29 52 47 43 34 28 49 75 71 65 72 72 75 86 88 90 98 83 76 74
76 26 12 46 71 86 21 98 93 98 100 99 98 96 97 99 60 28 10 4 3 3 3 3 6 20 33 18 26 44 41 32 27 44 56 68 67 75 74 71 68 76 85 79 73 80 88
73 40 23 35 88 18 99 100 96 99 99 99 98 97 97 93 51 28 9 4 3 3 3 3 4 9 37 38 31 23 29 38 38 53 62 72 66 62 56 73 74 72 76 79 80 96 85
61 19 30 47 36 100 100 96 100 100 99 98 98 99 96 94 42 28 8 4 3 3 3 3 3 5 10 38 49 54 45 41 42 45 59 67 63 62 59 56 74 78 74 70 74 74 72
22 18 50 24 79 97 100 98 100 100 97 98 98 98 97 83 42 31 7 4 4 3 3 3 3 4 6 10 20 33 38 36 52 54 42 37 43 41 45 56 61 58 74 58 56 65 72
8 24 21 67 99 100 100 100 100 99 97 98 99 96 95 84 42 32 8 4 4 3 3 3 2 3 4 6 9 13 22 40 45 42 47 52 54 56 54 41 36 67 74 67 62 60 63
10 14 69 95 100 100 98 98 96 97 98 99 96 98 94 82 44 28 9 5 5 4 4 3 3 3 3 3 4 6 9 17 26 34 45 56 58 47 45 54 63 72 80 77 66 46 48
8 10 74 97 100 100 100 100 99 89 96 94 97 99 93 78 46 24 11 6 4 4 4 4 3 3 3 3 4 4 7 13 13 21 29 32 32 45 53 44 43 54 64 81 80 63 58
6 63 98 97 98 98 98 99 99 99 91 93 97 98 94 73 47 23 12 8 5 5 5 4 4 4 4 3 3 4 4 7 8 10 12 23 30 30 30 36 40 40 40 42 45 54 62
32 95 96 97 99 100 100 98 99 98 94 92 97 96 93 92 50 27 16 11 6 6 5 5 5 5 4 4 4 4 4 5 6 7 10 12 11 21 24 25 27 24 29 32 35 36 38
36 99 87 96 100 99 99 97 98 100 90 90 97 98 96 90 47 29 20 14 11 7 6 5 6 5 6 4 5 4 4 4 4 4 7 10 9 11 15 18 22 23 26 25 28 31 32

GFSGBSN_500_rhum_081.txt.gz
RH
33 34 33 28 22 12 19 24 20 28 40 15 42 83 82 86 84 78 80 88 66 53 36 26 19 7 6 14 17 37 48 48 47 53 94 100 100 99 99 57 60 46 33 31 99 99 98
24 39 38 38 34 16 11 21 24 18 19 25 18 51 76 92 92 80 82 90 67 54 43 26 15 6 8 12 21 34 56 56 40 62 88 97 100 100 100 63 54 45 31 44 97 98 97
23 27 38 43 43 32 16 11 17 27 19 11 15 30 64 95 93 72 88 91 73 57 50 27 12 7 13 11 16 54 69 63 45 61 81 100 100 88 100 94 50 46 33 50 99 95 87
22 22 22 33 46 48 32 25 17 30 30 19 10 11 46 84 97 85 91 92 69 63 54 22 9 9 12 14 19 33 99 62 46 63 79 100 100 93 94 65 61 54 37 88 98 94 98
23 17 16 19 48 52 54 40 36 38 35 24 14 9 14 61 93 94 93 99 58 75 47 19 8 12 13 20 18 20 71 70 51 69 78 99 100 91 97 69 69 69 79 96 100 99 98
27 11 12 34 55 58 56 45 33 31 19 25 14 10 13 54 92 98 92 99 63 77 39 15 10 13 21 34 25 20 58 81 57 92 82 82 85 100 100 58 73 76 78 98 97 86 94
25 10 10 23 49 62 52 43 38 29 12 12 14 10 8 50 76 94 96 90 70 81 36 11 13 18 26 40 44 33 50 49 64 73 54 58 93 100 100 95 78 98 100 99 99 87 95
33 11 12 31 48 61 63 60 50 38 16 11 10 13 10 46 57 72 96 96 83 82 31 9 17 23 32 35 47 45 44 54 58 64 52 70 99 94 96 100 99 98 99 99 100 98 99
41 21 20 21 31 50 48 39 39 31 14 16 13 10 12 18 45 78 93 100 85 87 26 10 18 24 25 41 67 87 83 57 58 87 68 70 93 90 98 100 100 98 98 99 96 99 99
40 42 32 26 24 28 29 32 36 30 16 16 14 12 9 8 25 58 96 100 91 77 18 14 17 22 30 48 86 89 87 73 56 79 84 85 97 96 100 100 88 90 85 89 100 99 97
30 31 31 32 34 31 29 25 22 28 30 12 12 12 9 7 10 71 92 100 94 57 13 16 16 22 34 41 70 72 56 64 76 74 93 98 98 100 97 95 88 100 96 99 94 97 96
40 42 43 39 37 33 28 25 24 19 24 25 13 10 7 6 9 69 92 100 86 39 14 14 16 20 25 28 49 32 51 71 83 100 100 100 100 92 100 98 90 93 97 84 97 99 95
57 59 52 44 32 23 18 18 16 19 21 23 18 10 8 6 9 64 95 98 56 34 12 16 15 20 32 33 42 54 68 81 93 98 93 98 100 90 95 100 96 96 94 98 100 100 100
73 62 45 24 16 13 11 10 7 12 19 20 20 12 8 7 7 76 89 96 50 21 10 18 16 20 29 36 59 56 80 85 71 82 66 58 80 76 59 88 90 98 99 95 93 88 93
76 56 24 15 17 32 27 10 7 6 12 16 18 13 10 8 10 77 93 93 36 16 9 18 16 22 24 33 55 61 64 50 70 75 81 63 47 50 54 58 70 99 100 98 94 99 93
75 24 16 29 62 58 9 21 69 22 8 12 14 13 11 10 18 80 98 66 22 11 8 16 17 25 23 34 50 71 48 54 52 59 57 55 54 49 57 57 94 82 87 93 94 83 83
32 17 32 61 86 27 30 99 100 97 9 10 10 14 42 9 44 96 96 40 16 7 7 12 23 31 24 26 31 28 52 60 68 62 63 55 47 47 48 58 68 60 45 61 78 83 89
20 26 47 92 82 34 81 100 100 97 11 13 96 92 85 17 87 100 86 27 10 6 5 9 20 30 28 22 25 44 63 66 57 56 65 62 63 59 58 59 73 72 69 87 70 76 72
21 46 72 97 89 41 99 100 100 61 14 93 68 100 60 66 98 100 57 19 6 4 4 5 16 19 34 46 65 54 48 37 55 63 65 62 51 56 53 52 60 72 64 61 70 70 63
37 60 70 92 91 69 93 100 100 42 95 100 93 44 94 97 99 98 33 15 5 4 3 3 9 20 54 51 51 50 41 32 33 27 27 58 59 65 61 55 58 59 63 69 61 63 68
44 57 64 55 57 62 87 98 93 96 100 100 49 97 98 98 100 77 24 9 4 3 3 3 4 13 23 34 68 58 43 42 42 31 30 46 58 61 62 60 55 62 65 68 78 75 63
50 53 45 37 50 70 82 74 87 100 100 96 99 98 98 99 99 47 22 6 4 3 3 3 3 5 17 25 20 55 51 38 39 34 37 50 60 56 53 41 44 52 60 72 78 78 72
40 31 18 37 39 26 33 84 99 100 99 100 98 98 98 99 96 32 14 4 3 3 3 3 3 4 8 15 32 28 26 31 38 40 44 42 42 46 46 42 41 42 45 44 46 52 47
21 22 12 30 19 12 65 100 100 98 99 100 100 99 97 97 73 27 8 4 3 3 3 2 3 3 5 5 10 18 40 39 37 34 34 33 33 30 29 29 27 38 42 40 44 43 42
17 10 10 16 18 69 100 100 97 94 100 99 99 99 97 98 44 28 7 4 4 3 3 3 3 3 3 4 7 8 14 17 25 35 36 34 36 35 34 36 33 39 37 37 38 51 53
9 13 9 52 86 100 98 98 93 98 99 94 94 95 96 91 39 24 7 4 4 3 3 3 3 3 3 3 3 5 6 10 8 17 20 29 30 32 30 32 32 38 38 45 47 49 64
9 11 25 65 99 91 90 98 100 98 99 93 84 91 97 71 38 19 7 5 4 4 4 4 3 3 3 4 3 4 4 5 6 6 8 12 18 23 20 19 20 28 38 41 34 33 39
8 31 56 84 79 94 97 98 97 94 97 96 99 90 98 59 40 18 8 5 5 5 5 4 5 5 4 4 4 4 4 4 4 4 4 5 6 7 10 11 20 20 23 26 26 30 33
22 42 85 85 99 98 98 100 97 98 98 98 97 95 97 52 39 18 10 6 5 5 5 5 5 5 5 6 5 4 4 4 4 4 5 5 4 5 6 9 8 10 13 14 14 18 21

GFSGBSN_500_rhum_084.txt.gz
RH
26 19 14 13 14 16 19 24 40 44 18 12 17 24 29 15 19 53 78 97 90 84 82 79 68 52 54 23 9 7 8 10 26 46 45 45 87 91 100 85 86 61 77 38 38 43 94
31 23 16 14 15 17 16 15 21 44 41 29 20 21 32 23 12 48 68 93 99 100 96 87 71 66 40 14 9 9 11 14 47 53 54 61 96 84 100 64 100 57 76 58 37 74 85
34 29 19 16 14 12 14 10 24 52 55 43 38 34 36 24 30 100 62 84 90 99 97 91 76 62 26 12 10 15 14 16 61 63 53 81 87 97 93 94 98 95 81 54 40 51 93
36 33 25 18 16 14 14 10 18 51 63 54 45 35 25 17 12 80 100 83 97 96 100 93 73 49 17 13 16 19 14 18 69 53 67 74 92 100 75 77 71 85 90 74 57 56 99
39 36 28 22 18 19 19 14 13 46 62 53 37 31 22 12 11 43 63 59 92 97 99 92 75 32 16 20 24 28 17 46 72 51 63 94 92 82 99 97 63 83 80 64 44 86 98
47 45 38 28 21 19 19 16 12 22 62 56 43 34 21 17 12 18 90 100 99 97 96 93 69 22 21 19 32 44 31 47 55 59 76 98 99 79 100 99 64 90 88 52 35 68 99
52 52 43 34 26 25 28 27 14 24 40 62 60 49 31 22 14 10 22 100 100 98 99 99 54 19 16 27 46 64 45 48 56 70 69 98 98 100 100 94 77 81 76 66 41 84 98
61 53 37 34 36 40 47 44 29 32 37 49 48 51 52 19 20 14 18 100 96 98 95 99 32 22 20 28 67 71 77 49 67 68 62 63 88 100 100 100 89 100 86 58 46 91 100
78 59 44 45 54 62 64 59 47 37 33 38 44 40 47 16 19 16 10 30 99 97 100 86 29 21 24 32 67 70 69 41 54 44 45 56 100 90 100 99 94 86 95 56 82 99 100
90 55 46 44 50 60 70 71 71 56 44 36 29 34 30 36 17 16 12 64 77 100 99 80 25 24 26 36 65 68 48 45 62 31 46 82 78 100 75 97 89 95 96 96 99 100 100
65 44 38 43 56 76 82 77 65 58 49 39 33 28 19 36 22 16 10 10 74 98 100 63 24 23 25 28 48 82 76 72 60 55 85 76 94 95 90 88 100 89 90 98 99 96 96
52 42 40 61 74 84 79 72 62 49 46 29 32 29 20 22 30 18 11 36 100 89 99 58 22 22 23 23 40 77 91 92 98 91 71 88 95 99 87 93 99 91 78 78 74 93 98
48 42 50 74 54 40 26 19 18 18 18 17 21 26 22 18 28 19 12 40 90 95 98 46 20 24 24 28 44 69 85 97 100 98 96 77 98 96 100 99 86 85 91 67 81 98 97
53 51 71 48 31 20 22 28 36 36 22 13 13 20 22 18 25 20 13 18 59 100 100 36 20 23 24 33 49 65 70 74 81 91 100 86 74 81 88 100 90 94 100 100 84 78 80
41 60 55 34 22 37 54 59 51 13 20 24 9 19 20 21 23 19 13 24 100 100 90 21 21 25 29 51 59 67 64 60 72 70 86 93 64 48 44 86 99 100 100 100 95 94 85
48 60 39 24 46 63 70 100 28 100 100 100 12 18 18 22 20 15 15 49 92 100 60 17 25 26 31 50 63 51 44 60 68 79 86 74 84 67 45 60 99 100 100 100 100 93 82
57 46 24 39 53 67 99 71 100 100 100 100 13 16 19 21 16 21 22 36 89 96 40 16 20 26 26 54 52 47 35 51 62 64 54 52 55 65 75 100 95 75 90 93 94 94 92
54 27 31 55 68 86 97 88 100 100 100 100 23 14 18 18 16 28 35 68 100 74 20 15 22 30 31 44 54 42 41 53 50 56 58 53 54 62 63 54 54 57 48 47 42 63 54
42 24 48 63 82 96 82 87 100 100 100 91 13 16 16 17 49 55 76 100 98 41 14 13 20 26 28 34 37 30 37 38 43 44 47 46 42 43 47 52 47 38 28 36 38 50 50
26 33 57 57 95 91 73 90 95 100 98 33 14 15 15 18 64 79 99 100 84 17 9 10 16 23 22 27 29 54 48 42 45 32 25 40 46 54 57 58 59 48 44 45 48 48 46
23 42 60 50 79 100 68 90 100 100 80 20 13 13 67 81 75 98 100 100 43 9 7 8 10 21 30 29 44 50 42 33 36 33 30 25 46 51 59 56 53 55 52 48 44 38 34
27 42 54 35 58 78 80 97 86 89 63 23 15 68 72 84 96 100 97 80 14 7 6 7 12 20 26 41 48 73 59 48 44 43 34 24 33 48 51 42 41 43 47 45 37 38 45
37 40 31 20 65 56 87 86 74 59 33 40 94 87 74 99 97 98 92 31 8 6 5 4 4 12 29 37 43 52 48 50 46 32 30 26 22 41 44 42 39 39 41 38 33 28 31
39 29 9 32 59 55 72 68 66 49 43 74 93 86 100 99 97 88 38 8 5 4 4 4 4 5 8 19 23 20 28 51 44 42 30 30 27 32 35 34 30 31 30 26 29 31 32
33 13 9 50 44 41 49 35 50 92 99 95 97 100 98 100 85 41 17 6 4 3 3 3 3 3 4 4 10 20 23 24 26 27 31 33 32 32 31 28 23 26 28 24 23 28 31
17 6 18 52 36 27 74 95 99 98 96 99 100 98 98 99 57 33 12 5 4 3 3 3 3 3 3 4 4 6 10 14 16 20 26 25 27 28 29 28 25 24 23 22 21 23 30
7 8 10 30 48 94 100 98 87 96 100 99 97 93 96 81 49 24 8 5 4 3 3 3 4 4 3 3 3 3 4 4 4 4 4 7 9 14 16 15 21 22 23 23 28 25 24
6 9 15 47 88 97 94 88 92 95 92 96 98 96 85 66 33 16 7 5 4 4 4 3 4 4 4 4 4 4 3 4 3 3 4 4 4 5 6 6 11 8 11 13 15 15 18
5 15 22 75 95 81 90 100 88 92 98 97 97 96 77 54 28 10 6 5 4 4 4 4 5 5 4 5 5 5 5 5 5 5 5 4 4 4 4 4 4 4 4 4 5 4 5

GFSGBSN_500_rhum_090.txt.gz
RH
36 38 42 48 52 45 53 53 61 60 58 47 30 24 25 24 20 16 21 24 59 43 34 34 32 66 74 91 98 83 81 64 46 28 21 14 7 5 5 10 19 19 41 55 62 75 60
52 55 59 58 52 54 62 64 63 65 64 59 43 32 29 28 27 22 25 38 62 44 36 14 16 16 58 78 96 92 69 34 17 14 9 8 6 9 12 24 47 60 69 80 76 79 59
60 59 62 63 58 59 63 68 75 65 64 57 44 37 42 34 36 29 31 57 57 32 23 13 13 13 32 100 98 77 36 17 14 16 12 9 10 32 48 61 76 92 71 78 74 57 49
57 63 65 67 72 80 77 68 62 61 62 63 46 42 47 39 39 40 41 61 59 39 30 14 13 13 78 73 93 36 21 30 36 25 14 15 40 54 69 100 100 93 75 92 100 89 89
70 71 80 76 72 70 65 61 56 62 65 68 64 56 46 45 57 52 48 65 60 51 38 25 20 17 39 80 67 24 31 40 44 32 23 44 54 63 85 100 80 92 96 90 98 94 96
79 81 82 74 75 70 61 52 57 60 71 74 72 67 57 50 67 68 58 67 66 59 46 31 18 24 73 92 32 30 46 41 44 34 46 60 82 66 92 70 98 86 82 99 100 89 100
84 78 78 78 76 63 58 62 66 66 62 57 59 52 50 58 84 86 66 60 60 61 40 23 20 59 89 64 30 49 42 41 43 44 68 78 73 75 77 59 98 98 100 82 99 94 97
83 84 85 81 69 66 70 80 77 71 67 52 48 45 51 83 93 100 77 60 56 49 39 25 26 50 79 30 39 46 39 47 46 55 64 67 92 87 79 55 67 87 98 97 100 100 100
88 93 87 77 79 89 86 86 87 68 57 45 42 46 52 84 100 100 94 62 57 51 38 29 24 59 62 28 28 36 41 45 49 48 46 53 64 95 97 99 63 88 100 100 84 87 74
95 94 86 83 97 90 94 90 70 41 30 29 27 25 37 55 99 100 100 62 49 48 43 34 44 97 26 28 41 32 42 34 36 52 51 56 86 95 66 85 95 94 92 85 89 75 99
97 96 88 95 100 94 93 64 36 40 56 57 56 44 28 32 92 98 99 72 49 39 42 50 48 86 25 35 57 44 28 33 52 69 89 91 99 99 60 55 68 82 87 100 79 82 92
100 87 87 100 99 100 78 41 51 79 94 99 90 73 51 25 49 95 93 65 49 45 42 41 87 52 25 44 96 94 86 94 99 92 78 94 74 99 100 70 57 52 68 76 99 98 98
87 65 90 100 97 98 43 58 85 99 100 100 98 99 46 26 24 89 52 51 42 36 42 61 98 24 30 62 87 87 79 94 94 98 96 81 96 100 98 84 65 56 75 93 90 71 70
86 97 100 100 100 59 58 84 96 99 100 93 100 98 65 24 28 44 39 40 37 36 34 66 90 26 39 70 73 90 90 99 100 100 100 97 88 91 91 93 80 51 85 79 91 88 76
100 100 100 100 97 52 83 94 97 100 93 99 100 100 36 21 34 34 32 39 45 28 34 54 86 26 42 63 55 63 97 91 96 100 100 100 98 100 90 67 98 74 92 83 78 95 100
100 86 100 100 46 77 87 100 100 100 99 100 100 93 14 20 31 27 34 34 27 28 36 100 44 28 43 53 60 68 90 78 77 67 92 99 94 99 100 73 66 66 71 61 67 75 73
58 60 100 40 73 77 71 100 93 90 100 100 100 69 16 21 28 27 34 27 26 34 48 100 36 38 54 50 57 70 69 64 66 68 68 98 100 97 100 98 77 56 57 63 62 63 60
25 43 33 52 54 24 93 92 80 87 98 100 100 34 18 21 26 31 29 24 26 35 100 98 29 46 54 43 50 54 53 46 48 54 51 61 86 100 99 92 87 78 74 50 47 47 59
16 25 27 34 16 28 62 67 77 81 100 100 100 69 20 22 25 28 25 24 51 100 100 44 34 47 51 42 50 49 51 49 52 54 62 54 59 95 80 54 63 76 89 66 50 42 43
10 15 16 18 27 25 43 64 64 91 100 99 69 24 18 19 24 24 23 31 100 100 100 25 31 52 49 48 49 50 53 48 48 52 48 51 52 53 60 53 38 43 50 64 53 46 42
7 10 11 17 26 17 40 56 71 82 88 40 20 15 18 21 22 22 30 100 100 100 68 23 32 41 54 54 52 52 35 31 31 44 49 49 53 55 51 47 39 33 32 36 33 32 32
7 9 7 7 12 17 35 54 64 48 44 24 16 17 20 21 22 22 96 100 100 100 25 25 34 35 46 49 45 45 34 26 24 26 40 53 54 50 50 43 40 41 30 28 26 21 18
6 8 5 7 9 15 33 51 42 39 27 17 17 20 22 22 26 91 96 93 99 86 18 24 28 38 39 44 40 40 40 32 27 26 28 30 44 43 38 39 38 43 48 41 29 22 20
5 9 4 5 6 9 12 21 20 21 17 16 18 20 21 40 80 89 98 100 92 16 14 21 20 26 33 36 35 32 28 30 29 26 27 25 23 36 44 38 36 34 33 33 33 30 30
4 8 3 4 5 5 7 10 14 14 17 22 27 30 45 86 91 97 100 71 13 10 11 14 16 20 25 27 28 25 23 28 25 24 27 22 20 19 26 30 29 28 27 26 25 23 22
3 5 4 3 5 5 8 13 18 26 26 36 48 68 81 91 94 97 28 9 6 6 7 10 11 13 18 20 22 22 24 20 19 19 18 17 14 14 17 18 19 17 17 17 16 16 16
4 3 5 3 5 9 14 23 34 41 49 60 68 78 91 99 85 28 8 6 4 4 4 5 6 7 9 10 11 10 11 11 9 9 8 9 9 10 11 11 10 9 8 8 8 10 8
9 4 6 8 8 13 24 39 41 47 51 57 72 83 91 89 35 10 5 4 3 3 3 4 5 4 4 5 5 4 4 4 4 4 4 4 4 4 4 5 7 6 6 5 5 5 5
14 4 8 17 28 26 36 42 45 46 50 60 63 73 75 56 23 7 4 4 3 4 4 4 4 4 4 4 5 5 5 6 7 7 8 9 10 8 10 9 8 9 9 8 8 8 8

GFSGBSN_500_rhum_093.txt.gz
RH
58 64 64 60 57 58 62 64 68 72 71 74 77 72 66 67 65 45 30 30 35 30 25 27 36 57 42 26 17 22 35 65 63 71 61 44 34 29 23 17 20 25 12 10 6 4 3
67 74 80 80 78 76 79 80 78 75 82 87 79 68 72 74 73 57 41 37 41 36 33 32 49 55 30 16 24 30 38 57 61 46 30 21 15 13 11 13 10 7 5 10 15 12 12
76 83 88 89 92 86 78 80 79 84 84 72 60 59 70 79 80 68 53 44 47 45 44 41 57 42 30 17 14 19 26 45 55 33 18 12 9 9 10 18 29 35 39 43 44 48 43
81 90 93 96 92 82 81 86 87 78 69 64 62 69 74 89 89 72 57 52 52 57 53 46 58 47 39 26 21 26 51 54 43 21 19 14 17 34 40 60 61 61 52 52 61 70 69
92 94 96 96 96 92 87 74 66 67 68 74 80 89 92 92 97 90 78 65 51 70 60 56 61 50 42 34 37 60 67 39 26 26 21 34 49 45 55 65 70 66 74 68 88 100 63
93 95 100 96 88 82 70 61 54 44 43 67 69 75 74 73 68 68 73 68 71 74 65 58 65 51 47 50 66 54 39 25 24 24 43 47 47 41 73 68 83 91 85 75 99 87 80
97 99 94 86 78 64 60 68 84 82 67 59 52 57 59 64 61 87 86 100 100 86 67 59 57 56 39 50 63 34 23 25 25 38 56 51 44 52 72 68 86 97 100 89 82 84 84
95 94 88 78 61 67 62 82 92 69 74 58 39 35 35 44 47 91 100 100 100 86 72 61 50 74 27 75 38 27 28 28 38 61 53 68 77 99 77 59 75 97 81 93 100 96 100
97 92 81 65 77 71 95 94 72 96 56 52 55 51 44 33 29 67 100 100 99 100 77 61 49 51 68 78 34 32 31 44 46 42 52 53 76 91 59 46 76 100 96 98 100 98 96
92 76 59 60 80 96 98 82 100 79 74 93 99 98 84 52 32 34 99 99 100 92 62 52 53 61 91 30 43 24 33 38 39 46 49 62 70 82 80 50 74 98 93 100 82 92 94
85 80 96 100 100 100 98 100 100 81 86 97 100 100 92 73 46 27 92 100 100 79 53 54 61 78 89 43 27 29 33 33 43 62 62 84 88 72 59 80 80 71 81 100 88 96 100
98 100 100 100 100 100 100 100 88 85 95 100 81 97 98 70 38 28 91 100 86 55 56 58 69 99 29 51 80 38 43 79 83 71 85 93 99 69 52 66 86 77 100 94 97 99 96
100 100 100 100 100 100 100 93 86 96 98 87 74 95 94 52 24 72 100 99 100 99 63 56 98 46 60 87 96 81 86 95 71 82 94 100 100 100 98 65 85 100 98 100 100 88 82
100 100 100 100 100 100 88 81 90 100 95 98 100 100 99 42 26 100 95 100 88 60 55 98 100 31 73 88 90 76 87 100 100 100 61 82 82 100 100 88 98 100 98 99 97 81 92
80 97 58 67 84 74 52 92 100 100 100 100 100 100 46 24 48 96 88 56 72 49 76 100 88 44 75 69 77 100 99 100 100 99 100 98 96 100 100 99 100 97 91 90 91 100 85
35 35 31 46 59 35 93 90 92 100 100 100 100 44 23 29 85 61 46 94 68 92 83 93 71 58 72 62 89 87 90 97 97 100 100 96 100 100 100 95 87 77 73 86 97 100 80
18 18 27 61 50 41 56 84 97 100 91 62 30 22 34 67 43 54 54 68 100 72 100 100 43 64 61 65 67 88 81 74 76 93 100 92 97 100 97 84 61 63 61 71 73 78 82
12 20 36 56 28 47 74 75 100 100 39 22 22 47 54 33 47 40 32 37 46 64 93 100 47 61 53 66 68 63 63 77 69 69 100 100 100 100 88 75 66 69 59 62 52 68 64
14 23 23 18 35 61 66 99 100 94 30 24 44 40 32 37 32 30 33 34 52 90 100 76 62 57 47 57 64 56 49 50 55 50 65 89 100 91 86 78 58 65 64 52 44 53 56
13 9 18 18 27 45 56 51 54 48 28 37 38 33 33 31 29 25 26 64 97 98 96 40 69 55 44 55 62 56 56 52 58 62 63 70 85 78 73 82 80 74 60 54 47 37 36
5 6 10 12 9 16 22 20 23 30 28 26 26 26 30 31 25 22 39 90 98 98 41 41 68 57 49 57 49 54 46 46 47 49 43 45 44 45 43 58 64 74 67 51 42 38 29
4 4 5 4 4 9 12 11 12 14 16 18 20 24 24 21 21 54 88 100 100 37 33 39 62 52 42 40 44 50 36 34 46 53 56 53 53 43 40 34 45 51 52 44 38 34 29
5 3 2 2 3 5 7 10 12 16 21 24 24 23 25 30 90 100 100 100 91 22 30 38 56 48 48 40 38 29 28 26 25 38 48 50 52 52 45 33 31 38 42 37 29 26 24
4 3 3 3 4 5 8 12 19 29 36 36 32 40 67 99 100 100 100 92 22 21 26 29 44 37 41 40 38 35 34 28 27 23 23 26 42 42 40 36 32 33 32 34 31 28 23
4 6 3 4 5 6 12 20 33 40 45 57 66 77 87 97 90 48 18 13 13 19 24 22 22 28 31 31 30 28 27 26 25 24 19 20 20 30 28 26 28 24 24 22 22 20 17
11 6 4 3 5 8 16 33 38 43 48 58 70 80 73 50 15 8 8 7 8 10 13 15 17 17 19 22 26 26 24 20 22 22 18 17 18 19 19 19 17 15 17 17 14 16 14
20 6 6 4 3 7 17 33 35 39 49 46 39 34 18 10 5 4 4 5 5 5 6 8 10 13 16 17 17 16 14 13 14 14 11 10 10 10 10 9 8 8 8 8 9 10 8
25 14 5 5 5 5 17 31 31 31 34 30 24 16 12 5 3 3 3 4 4 4 5 6 7 6 7 8 8 7 7 7 6 5 5 5 5 5 6 6 7 6 6 6 6 7 7
33 17 10 6 5 4 13 29 30 31 27 20 12 9 5 4 4 3 3 4 4 4 5 5 6 6 6 6 7 7 7 7 8 8 9 8 8 10 10 9 9 10 10 11 12 13 13

GFSGBSN_500_rhum_096.txt.gz
RH
65 68 69 75 82 89 92 94 95 95 96 98 99 98 99 98 97 100 98 98 98 94 80 46 30 35 34 30 26 33 40 39 30 25 30 35 44 42 47 46 44 44 45 45 47 45 45
62 71 77 85 91 95 93 94 96 98 97 98 98 98 98 99 98 99 100 99 100 98 91 65 37 42 40 38 32 38 37 29 21 18 23 30 42 38 32 26 25 22 26 26 26 25 26
74 80 80 81 81 84 87 90 92 98 98 98 97 100 100 100 100 100 100 99 98 99 98 83 54 48 46 46 41 45 38 28 17 18 44 33 34 31 24 15 12 12 14 13 14 14 14
69 75 80 82 82 86 86 85 77 79 73 72 67 60 54 49 64 96 100 100 100 98 100 89 65 53 51 50 45 50 40 35 29 28 54 40 26 21 11 12 18 20 20 14 18 15 16
71 78 82 83 86 81 76 74 79 79 55 39 50 48 36 39 52 54 88 100 100 99 94 76 62 64 57 53 51 48 47 40 39 43 38 24 18 16 25 39 43 31 42 37 60 46 32
74 79 82 83 80 79 77 73 72 52 60 59 46 40 41 56 56 36 74 96 95 100 100 98 87 70 58 53 52 50 36 34 42 33 19 19 28 30 41 61 48 77 80 46 46 52 53
90 98 99 96 76 68 66 76 76 90 99 88 55 70 73 51 39 41 73 100 100 88 74 99 79 66 57 50 59 52 41 51 26 20 26 36 38 38 56 67 66 63 55 62 81 77 61
90 94 93 94 100 100 98 99 99 100 100 98 100 72 70 86 61 39 83 100 100 99 100 99 86 68 52 53 59 45 50 30 24 34 47 63 72 93 54 48 56 74 67 83 100 66 63
100 100 100 100 100 100 100 98 100 100 100 100 73 70 90 100 67 40 99 100 100 100 98 90 80 60 54 59 54 67 35 36 44 44 54 53 52 60 34 42 54 84 62 96 68 66 57
100 100 100 100 100 100 100 100 100 100 100 80 69 75 81 89 66 38 68 100 88 80 86 84 78 50 58 77 76 44 32 40 40 44 48 59 67 76 37 68 93 64 65 73 82 99 100
100 100 100 100 100 98 100 100 100 100 76 75 75 76 94 73 63 35 60 100 100 100 100 86 54 78 99 79 41 26 35 36 43 62 55 72 67 63 48 53 66 48 79 91 98 100 100
100 100 100 97 60 61 96 98 76 70 74 66 66 79 91 66 52 30 94 100 100 98 100 59 66 94 97 50 27 29 34 52 65 67 69 60 53 73 68 70 86 93 98 97 99 100 99
49 31 40 47 85 88 55 60 77 82 88 94 100 100 73 46 29 54 97 99 95 90 100 100 100 100 57 68 31 57 100 99 71 58 92 100 96 50 82 82 89 99 100 100 99 98 100
14 19 24 36 31 42 52 70 98 100 100 100 86 96 44 28 55 84 82 93 99 100 100 99 98 53 99 89 56 79 95 84 71 64 80 100 95 86 77 99 100 100 98 100 100 99 100
6 10 14 38 60 78 95 100 98 77 98 100 61 26 32 59 92 100 100 100 100 100 99 100 52 95 95 87 92 99 100 99 92 97 85 100 98 100 95 100 100 99 97 99 99 99 100
7 6 13 27 50 43 30 23 25 28 25 20 32 63 69 90 100 100 97 97 93 99 100 80 60 88 81 100 100 100 100 100 100 87 85 81 100 99 99 98 97 97 100 99 96 99 97
4 4 9 11 14 15 27 36 40 46 53 55 56 60 76 90 92 64 66 96 100 100 100 62 64 78 89 100 97 98 94 98 99 86 77 100 100 100 100 97 95 95 99 99 90 86 95
3 4 5 5 7 19 34 42 46 47 47 47 42 34 43 56 61 72 73 75 86 87 100 77 63 65 80 92 86 78 82 72 90 94 79 99 100 100 96 88 78 81 78 82 82 72 80
3 4 3 5 8 15 18 25 33 34 37 38 35 31 35 47 56 44 49 52 74 92 100 58 67 62 81 74 66 71 78 58 57 100 97 96 99 100 99 88 78 70 65 63 62 65 68
4 4 4 6 9 10 12 16 20 24 28 33 37 42 42 30 26 52 77 79 78 87 93 59 64 62 69 62 61 55 58 60 60 61 92 93 90 83 85 88 80 76 59 57 64 51 37
4 4 5 6 11 20 22 24 26 30 32 32 26 24 26 31 61 83 80 95 85 81 66 64 56 54 53 50 47 47 54 56 54 56 66 74 60 66 85 77 76 71 62 46 46 57 50
8 4 5 6 11 25 34 39 39 41 39 43 51 72 89 98 100 100 100 89 37 45 49 51 46 44 50 39 35 43 50 51 50 42 42 39 38 38 58 69 64 64 62 48 40 41 55
14 5 4 6 9 18 32 35 46 59 71 88 100 100 96 77 56 51 53 22 20 27 48 41 37 37 42 34 30 27 29 42 49 47 46 44 43 40 32 42 55 64 54 46 42 40 32
15 6 5 5 6 14 26 29 26 38 47 66 63 46 32 17 13 12 14 16 18 23 34 38 37 32 29 28 25 26 26 25 26 30 38 36 32 34 34 28 29 39 39 41 38 36 31
22 11 6 5 5 8 15 24 21 16 19 12 7 9 10 6 6 6 8 11 14 16 20 26 29 35 29 25 27 26 24 24 21 22 20 23 28 25 24 25 26 23 24 26 28 25 23
24 14 10 6 5 6 9 17 18 15 10 7 3 3 4 5 4 4 4 5 7 9 15 19 25 30 31 28 26 24 22 20 19 19 18 19 19 17 16 16 17 18 16 16 15 13 11
27 21 14 10 8 7 7 11 14 17 12 9 4 3 3 3 3 4 4 4 4 5 6 9 11 13 14 14 16 16 18 16 16 16 14 14 14 13 11 10 12 11 11 9 9 7 6
23 27 22 17 9 9 8 7 10 16 15 8 6 3 3 4 4 5 6 7 7 7 7 7 8 7 7 7 8 8 9 10 9 7 7 6 6 6 6 7 8 6 8 7 8 8 10
24 20 25 25 16 16 10 12 8 11 14 15 7 5 3 3 4 4 4 5 6 8 8 8 8 8 8 8 8 8 7 8 8 8 9 9 10 11 10 11 12 13 14 14 15 15 15

GFSGBSN_500_rhum_099.txt.gz
RH
57 58 62 66 67 74 87 93 95 100 100 99 98 98 98 99 98 99 100 100 100 98 99 99 99 96 98 91 61 38 35 36 30 24 22 26 33 34 30 27 32 34 34 33 38 37 48
60 64 69 78 82 82 86 91 96 100 100 99 99 100 100 98 89 77 93 97 99 99 98 98 99 97 100 97 77 44 43 40 32 28 27 31 32 24 20 23 24 31 26 27 30 34 38
67 82 88 83 82 87 96 100 98 96 93 100 86 91 87 42 32 23 25 44 82 97 99 94 99 100 100 97 81 50 47 41 34 34 34 37 36 29 25 40 23 18 18 18 17 19 24
82 79 73 78 88 100 99 76 72 63 66 68 65 79 78 75 52 42 35 34 40 32 86 99 100 98 100 99 86 57 54 43 38 41 42 47 41 30 38 38 25 17 14 13 14 16 18
68 64 79 92 100 100 98 95 73 70 91 76 80 65 41 57 71 54 33 34 58 67 75 98 99 100 100 100 93 61 54 42 43 45 43 37 31 33 32 20 19 18 15 13 15 17 18
36 22 70 100 100 100 100 100 100 94 96 90 100 99 76 80 70 52 43 34 39 38 97 100 95 100 100 91 81 66 48 46 47 46 42 40 35 21 23 32 34 22 32 31 35 52 38
6 10 79 100 100 100 100 100 100 100 100 100 97 94 100 97 82 40 53 91 80 60 97 100 98 98 96 98 86 55 50 49 53 44 45 24 27 30 35 43 42 45 38 46 75 52 40
3 6 10 37 100 100 95 100 100 100 100 100 99 98 82 65 42 60 52 100 100 90 100 100 100 100 96 86 55 52 55 55 47 41 23 43 56 70 59 42 56 64 44 68 79 48 40
4 5 7 16 22 22 56 96 100 100 100 98 97 92 77 72 78 63 87 100 100 100 100 100 100 100 79 57 52 56 59 62 42 33 51 58 52 58 52 41 45 59 53 84 68 50 47
5 5 4 7 25 46 30 45 71 90 79 89 87 62 79 68 63 52 100 100 100 100 100 100 100 96 58 53 63 71 85 32 37 45 46 47 53 71 36 40 36 49 69 80 78 76 96
6 7 6 6 16 76 89 86 67 73 85 71 70 93 58 56 45 71 100 100 100 100 100 94 84 67 54 69 74 59 34 40 40 45 50 80 68 43 58 67 58 56 83 96 90 83 99
8 10 10 10 9 12 51 100 81 86 92 80 94 98 44 44 50 90 100 90 98 100 95 92 77 63 89 93 31 31 36 36 48 48 71 58 53 37 41 62 70 78 98 99 95 100 100
10 14 12 14 15 17 8 22 67 100 96 71 57 32 34 37 91 100 100 100 100 97 100 80 65 100 87 36 31 53 80 70 51 60 86 80 60 44 66 76 96 95 100 98 99 100 100
10 16 12 18 19 24 26 17 17 18 18 20 26 32 50 80 100 100 100 100 91 88 87 89 100 86 62 30 69 98 100 70 63 82 100 73 59 68 73 92 100 97 97 100 100 100 97
10 18 13 13 17 22 28 27 25 26 21 22 40 61 85 94 84 87 91 79 99 100 100 100 77 94 78 55 94 97 91 99 80 79 93 94 86 82 90 100 100 100 100 100 100 100 100
10 22 20 16 14 16 23 30 33 33 28 23 26 43 36 35 48 59 64 69 92 93 91 74 88 91 90 100 100 98 100 99 94 97 87 88 90 84 96 100 100 100 98 99 99 100 95
10 23 29 28 22 26 23 22 25 29 32 38 38 36 34 40 43 54 58 71 94 93 68 80 69 84 93 92 96 100 99 100 100 94 100 99 96 95 100 97 100 100 100 99 95 89 100
9 19 32 36 36 36 35 37 40 43 45 46 48 46 51 55 56 60 64 69 74 83 68 78 78 86 96 100 85 70 75 100 98 85 100 99 98 99 95 91 95 97 99 97 100 98 100
7 14 28 39 41 44 51 47 39 35 38 30 25 31 52 65 85 90 79 72 81 63 60 62 78 94 85 70 66 63 51 97 97 95 100 99 97 91 79 85 85 87 91 90 100 99 86
11 9 23 31 39 40 51 62 75 74 79 77 89 95 88 92 98 95 100 92 84 64 54 60 58 63 53 51 47 46 42 62 82 92 97 93 95 87 79 74 76 74 74 86 90 86 78
25 8 12 29 29 32 33 38 59 68 64 39 36 30 37 69 94 83 86 82 76 56 51 52 53 49 44 43 40 51 54 59 69 87 76 70 71 74 66 63 61 66 58 56 74 59 92
21 15 8 19 28 28 26 20 23 29 33 22 9 9 12 14 16 20 27 56 52 46 42 43 37 31 37 32 27 27 38 39 39 41 45 48 56 63 61 55 53 58 59 44 43 44 54
21 20 13 9 21 23 20 16 12 8 7 5 5 4 5 7 10 12 16 39 34 42 34 33 32 29 25 21 22 22 33 34 36 35 35 32 37 50 55 42 32 38 38 46 36 32 31
25 19 20 13 11 21 22 17 11 7 4 3 4 3 4 4 5 6 10 24 28 33 30 25 27 24 21 22 22 22 22 27 29 30 31 28 25 31 44 48 50 39 30 28 32 35 31
27 24 20 16 12 12 22 20 15 10 6 3 3 4 5 6 4 4 5 8 13 22 23 22 24 22 24 24 22 23 20 20 23 22 26 30 28 24 24 29 34 31 37 33 30 24 23
30 26 23 19 16 15 12 23 17 14 14 7 3 4 6 7 8 7 5 4 6 8 12 16 25 28 26 27 26 25 20 17 17 19 20 19 19 19 20 22 23 23 20 19 15 14 10
40 25 26 23 17 16 15 12 19 14 14 16 9 3 4 5 6 8 9 8 7 6 5 7 9 11 14 14 13 13 13 12 12 13 14 15 15 14 13 12 11 13 11 9 8 8 6
61 31 26 26 26 16 14 19 16 15 19 19 19 7 3 4 4 5 6 9 10 9 9 8 8 7 8 8 9 8 8 8 7 7 7 7 7 7 7 7 8 6 7 7 9 7 8
68 51 28 29 29 27 16 12 15 14 12 22 25 18 8 3 4 6 6 7 9 10 10 10 10 10 10 9 9 8 8 9 9 9 10 9 9 9 9 10 9 10 11 12 14 16 17

GFSGBSN_500_rhum_102.txt.gz
RH
23 6 4 4 4 8 47 100 100 100 100 100 100 100 100 100 100 100 99 98 99 100 99 100 100 96 100 100 100 89 96 87 69 42 31 33 37 34 30 24 20 17 17 16 32 34 29
4 7 7 6 5 32 92 100 100 100 93 100 100 100 100 100 99 100 100 99 75 62 88 99 100 100 100 99 99 93 98 95 94 50 37 41 42 36 30 24 21 20 19 20 24 27 29
8 9 9 9 7 62 100 100 84 100 100 81 85 86 84 96 100 83 81 64 57 67 38 44 94 95 100 100 100 100 96 93 92 54 44 49 45 35 29 24 21 22 24 28 26 22 22
7 8 12 11 4 4 79 100 100 100 100 95 91 68 86 96 89 93 66 56 63 55 42 33 41 99 100 100 100 100 93 90 80 53 52 51 38 31 26 22 22 26 26 30 31 23 18
8 6 9 13 5 4 17 45 100 100 100 100 89 81 80 99 99 95 99 78 63 54 41 39 35 70 98 100 100 99 98 89 73 59 55 41 32 28 28 32 33 31 28 28 25 21 16
7 5 12 13 5 14 34 18 100 100 100 100 100 96 93 65 63 78 56 43 50 46 35 54 46 99 95 100 100 100 89 84 69 55 41 34 34 36 36 37 34 30 22 19 27 26 15
6 5 14 12 4 24 76 31 89 100 100 100 100 100 100 100 97 68 55 59 46 55 67 44 69 100 100 100 100 92 82 75 56 43 37 42 42 38 30 24 19 24 25 39 49 53 28
7 8 17 11 6 6 78 78 52 49 70 76 82 76 62 74 93 58 44 40 41 97 90 38 95 100 100 100 98 88 78 55 49 48 50 46 37 29 35 34 36 56 45 56 76 67 32
9 13 18 13 8 4 28 74 95 80 62 70 67 71 69 67 66 78 75 94 98 90 97 89 96 100 100 100 98 72 53 57 63 54 42 28 42 48 48 44 46 50 43 58 69 35 38
14 17 19 16 11 8 8 43 95 100 92 66 95 61 45 66 83 90 82 95 95 98 97 100 100 100 100 100 68 54 63 65 56 32 45 44 44 50 41 36 43 49 43 74 68 54 68
22 22 21 18 14 12 16 22 16 33 66 58 27 51 83 98 96 98 87 100 100 100 100 100 100 100 94 65 62 67 77 43 38 40 42 61 64 55 38 33 42 50 82 100 92 83 78
29 24 27 21 20 15 13 18 27 26 33 43 47 61 71 92 100 100 100 90 100 93 89 100 100 99 66 68 74 46 42 35 34 34 63 66 56 41 58 57 48 73 96 99 99 99 98
36 31 32 29 26 26 16 19 26 37 40 52 45 59 61 81 98 100 94 92 96 89 97 96 72 59 88 41 34 34 34 36 36 54 78 61 33 35 44 56 67 99 98 100 97 97 100
40 37 35 37 39 40 34 24 24 27 34 34 55 53 68 79 63 48 57 62 63 74 70 72 85 76 33 63 87 72 43 48 74 97 95 48 40 46 64 91 94 97 100 100 98 100 97
37 45 43 42 39 41 42 45 46 46 41 32 30 32 40 52 49 66 60 55 60 68 76 98 78 34 56 92 97 84 54 59 75 90 84 73 66 74 78 96 98 100 100 99 100 99 98
12 46 55 54 49 43 39 36 34 39 43 51 51 47 48 54 61 69 66 67 75 88 76 62 45 53 98 95 88 73 71 80 75 95 99 76 77 80 96 99 100 100 99 95 94 97 98
11 31 53 67 70 67 59 71 87 74 51 46 53 61 68 70 67 72 54 60 74 79 78 81 82 73 80 89 97 91 82 79 88 98 100 99 96 98 97 95 100 99 99 91 93 70 98
24 11 38 60 73 68 52 36 30 41 80 90 84 84 100 96 93 78 66 50 72 88 94 98 84 84 88 88 79 98 82 71 92 100 100 93 99 99 99 98 98 99 98 97 85 83 79
41 18 13 43 55 68 53 32 21 12 15 32 65 91 100 100 98 79 67 53 55 61 66 83 83 74 68 59 52 98 88 74 92 98 97 97 97 98 100 100 96 100 95 100 98 93 83
32 34 14 17 48 57 66 36 15 8 7 9 11 18 34 58 78 72 69 54 46 55 61 78 67 56 57 45 48 73 71 70 91 91 90 89 90 84 83 89 88 96 100 94 95 96 97
25 27 25 13 20 44 42 27 17 7 5 5 5 6 9 12 18 31 50 47 38 40 48 52 41 40 53 55 44 50 64 75 78 70 64 64 66 64 63 65 64 60 82 92 100 91 95
38 22 24 21 15 26 40 34 19 7 5 5 5 4 5 6 12 27 37 32 27 28 29 32 31 29 32 36 35 37 48 56 57 53 47 46 52 52 50 48 49 48 47 56 49 46 35
69 26 22 23 20 17 27 36 29 9 5 6 6 6 5 4 7 15 23 23 22 23 26 26 23 20 21 26 29 28 28 32 36 40 42 39 40 37 42 42 37 38 43 28 26 21 16
88 42 24 23 20 19 18 25 35 29 6 5 6 8 8 6 5 6 10 16 18 20 22 21 19 19 18 18 19 22 27 25 25 26 31 37 36 36 32 33 38 24 22 23 24 19 17
93 80 32 26 22 18 21 23 20 34 33 6 5 6 7 9 8 5 6 7 10 13 15 17 15 14 15 16 15 17 18 21 22 24 22 23 29 31 33 37 30 31 31 32 31 28 26
83 96 64 28 28 23 17 23 22 17 32 28 6 4 5 6 9 10 8 6 5 6 8 11 14 18 18 20 23 19 15 16 18 19 20 20 18 18 21 23 27 25 28 26 24 19 15
75 80 86 48 29 29 22 21 17 17 15 30 27 8 4 5 6 8 10 9 9 7 6 6 6 6 8 10 10 11 12 11 12 13 14 15 15 14 14 14 14 16 17 15 8 7 5
70 76 83 71 43 30 27 23 23 21 20 13 29 34 16 5 5 6 8 11 10 10 10 10 10 8 7 6 6 6 6 6 6 7 6 8 7 8 8 7 8 8 7 8 7 9 12
67 72 80 72 60 39 31 27 24 19 16 16 11 21 34 28 5 5 6 8 10 12 12 12 12 12 11 11 11 11 10 8 6 7 6 6 5 6 7 7 9 6 8 9 11 11 14

GFSGBSN_500_rhum_105.txt.gz
RH
5 3 2 3 10 10 6 20 90 100 100 100 100 94 98 100 100 100 100 100 100 100 100 100 98 99 100 100 99 92 93 89 70 55 56 62 55 46 33 31 32 30 29 27 24 22 18
3 2 3 10 13 8 4 9 27 30 100 100 100 80 66 100 100 100 100 100 100 99 99 100 99 100 100 100 100 99 100 97 94 88 77 78 70 54 38 35 38 37 34 31 25 21 17
3 2 4 12 12 7 5 16 25 44 98 100 100 96 70 95 100 100 100 98 100 98 97 98 99 100 100 100 100 100 98 96 99 83 82 96 87 67 46 43 42 39 33 26 21 17 14
3 3 7 15 10 6 12 48 33 100 100 100 100 100 69 82 100 100 100 100 100 100 80 52 47 81 100 100 100 100 100 94 90 83 88 88 75 60 49 47 42 35 27 20 18 15 14
3 3 10 19 10 6 19 72 40 95 100 100 100 100 86 67 88 100 100 100 100 85 72 51 40 44 69 100 100 99 100 90 97 90 78 77 62 56 51 42 30 22 18 15 18 23 19
4 4 17 22 12 8 15 96 62 56 96 99 100 100 90 63 53 81 69 88 88 96 75 61 47 67 70 86 100 100 100 99 86 87 79 68 60 50 38 28 22 19 17 22 31 30 26
5 6 23 27 19 11 5 34 84 71 46 62 61 67 80 94 67 57 64 70 76 69 60 56 63 47 27 60 100 99 99 97 100 89 70 60 44 34 27 26 26 29 33 30 24 22 18
9 9 29 32 25 16 9 17 31 37 39 38 37 36 27 43 74 67 52 56 67 60 56 38 43 37 62 100 100 99 100 98 87 72 55 39 33 35 34 33 29 25 21 31 39 31 36
17 18 32 41 30 23 13 20 31 38 38 47 63 67 76 86 85 65 49 58 45 38 39 56 41 34 93 100 99 97 97 92 78 49 47 48 40 35 30 32 29 28 34 42 57 55 35
28 28 33 44 38 32 22 18 25 49 60 62 48 48 51 67 88 95 59 64 67 75 96 100 97 100 97 100 100 100 99 65 53 56 46 38 38 33 43 42 30 42 39 48 71 56 51
37 42 39 40 44 45 39 26 27 34 54 83 80 54 59 71 76 82 95 73 80 94 96 95 100 100 100 100 100 75 58 66 51 35 43 40 45 33 37 27 33 34 41 90 100 85 75
36 38 52 49 45 40 48 39 30 28 32 54 59 42 34 40 50 80 79 100 100 97 99 100 100 100 100 93 68 74 73 40 40 41 42 54 46 38 39 26 32 59 84 97 94 94 88
13 43 57 72 58 59 36 49 50 39 42 52 57 74 67 53 46 40 45 78 89 85 98 100 99 78 78 74 62 62 43 39 48 64 66 49 38 40 37 35 49 66 91 98 97 99 99
14 32 46 57 74 79 82 44 46 57 52 57 62 67 77 73 58 50 62 66 68 82 83 81 90 60 38 42 44 41 46 57 83 76 86 42 32 32 47 61 77 83 100 100 94 100 98
29 13 37 49 53 50 64 77 81 49 60 68 69 74 69 65 77 64 56 54 57 66 78 62 52 97 100 100 89 57 62 75 91 95 64 58 50 57 72 74 86 100 100 98 97 99 99
40 16 15 42 40 40 54 58 54 100 86 77 74 94 80 70 64 94 69 56 67 73 36 57 88 98 99 88 70 60 59 80 100 82 70 62 64 76 83 86 99 100 91 94 98 99 99
45 31 15 20 42 31 17 20 25 33 79 99 92 98 91 73 61 81 56 36 40 32 36 74 95 96 91 81 76 81 86 90 88 82 84 86 92 92 89 94 99 98 95 98 98 98 98
39 41 26 16 22 40 16 9 7 8 18 27 39 59 88 69 59 63 35 38 44 62 68 70 78 72 75 84 78 78 80 92 89 91 96 93 94 95 97 100 100 95 78 94 98 98 98
53 33 36 20 16 26 27 8 6 5 6 12 15 22 59 66 62 40 28 32 40 66 72 60 52 55 61 88 92 90 99 95 100 99 98 97 93 99 97 97 97 100 80 76 83 97 98
72 32 29 30 19 15 29 16 7 6 5 5 8 12 13 20 41 37 29 28 27 39 44 45 31 35 56 77 73 70 91 87 87 96 96 94 89 93 95 97 100 93 92 95 95 95 94
74 66 27 28 23 20 18 29 15 6 6 6 4 6 8 16 29 27 29 28 29 30 26 32 32 36 43 61 63 66 72 67 67 86 60 66 69 76 76 77 93 82 94 94 96 97 99
77 73 51 26 27 21 21 18 25 16 6 6 6 4 6 8 21 21 22 23 22 22 22 21 20 22 29 35 45 52 53 53 50 48 45 47 52 52 58 53 50 60 78 81 86 84 75
82 75 73 33 25 23 20 19 15 24 11 6 7 7 6 4 10 16 17 16 17 20 20 19 17 16 17 23 30 35 35 35 38 40 38 39 42 44 42 40 39 38 34 35 33 18 16
80 72 72 71 28 26 23 23 20 15 15 7 6 8 7 6 6 7 9 10 13 17 19 16 15 14 14 15 21 27 30 32 29 30 32 33 34 35 35 35 31 21 24 21 21 23 16
71 78 71 73 56 30 24 23 24 21 16 14 7 6 8 9 7 6 6 7 10 12 13 12 12 12 13 13 15 18 22 25 25 25 26 26 24 22 24 29 29 27 23 20 20 21 21
63 74 73 71 75 41 28 27 23 23 17 15 17 8 5 8 9 9 7 7 6 8 9 12 12 12 10 9 9 10 12 15 16 19 20 21 24 22 22 20 23 24 26 24 21 25 23
67 76 76 68 73 66 36 30 24 22 17 13 14 22 9 5 6 9 10 9 9 8 7 6 6 6 8 8 8 8 7 7 8 9 11 11 13 14 14 15 14 13 19 19 22 14 7
57 66 86 68 67 72 62 32 32 25 15 14 11 13 23 14 5 5 6 10 10 11 10 11 10 9 7 6 5 5 5 5 6 6 6 6 7 8 8 8 8 10 10 11 10 7 6
63 73 87 74 68 71 69 58 33 32 22 12 11 12 10 19 16 10 5 6 6 8 11 13 12 12 12 12 11 10 9 8 6 6 6 5 5 5 6 6 6 6 6 7 7 9 12

GFSGBSN_500_rhum_108.txt.gz
RH
2 2 3 6 11 8 5 8 28 77 44 62 100 100 100 100 100 98 90 99 97 97 100 100 98 100 100 100 99 98 98 98 97 95 79 56 48 44 44 50 47 40 35 30 25 26 21
2 3 3 9 14 8 6 9 44 96 99 100 100 100 100 93 94 100 99 91 100 99 100 100 99 93 98 100 99 99 100 97 94 97 89 64 53 51 53 56 53 47 41 34 30 28 26
3 3 4 16 20 13 12 12 21 92 100 100 100 100 100 97 90 95 100 90 100 100 100 100 100 100 100 100 100 100 100 97 99 97 98 90 74 67 70 71 70 65 53 45 39 36 34
3 3 6 24 32 19 22 32 13 56 93 100 100 99 99 95 96 100 100 100 92 98 100 100 100 99 100 100 100 100 100 100 96 92 100 94 94 84 74 72 73 65 55 49 44 39 32
3 4 14 33 42 22 18 27 36 31 40 70 83 89 82 77 68 88 100 96 95 74 79 92 100 100 98 99 99 100 100 99 93 99 100 93 78 79 81 73 68 61 51 44 36 29 24
4 7 27 48 48 26 25 31 30 41 44 43 32 41 70 82 52 59 100 95 96 73 66 57 53 94 96 85 100 100 100 91 85 92 91 83 86 73 62 62 54 48 39 33 26 22 19
6 9 26 45 56 41 29 38 32 39 40 60 72 74 34 66 84 48 67 91 98 84 74 57 64 50 71 97 97 100 98 92 83 86 87 91 78 58 59 55 45 35 28 21 20 16 12
12 10 24 59 72 51 34 45 54 52 40 32 66 89 90 41 41 65 56 73 90 88 69 59 51 38 30 38 79 100 98 98 82 86 92 82 65 57 48 35 26 20 18 22 20 17 13
17 17 15 39 85 78 53 49 64 78 76 53 30 51 65 52 42 47 60 78 68 73 86 64 43 29 24 32 33 98 82 84 85 90 78 64 55 42 31 26 26 23 20 16 16 27 43
11 21 20 29 64 95 74 58 59 75 95 71 57 57 58 64 37 58 65 61 47 48 29 29 27 25 33 77 72 88 87 93 88 79 72 50 39 32 28 23 24 23 20 31 45 53 55
17 18 20 32 49 68 86 83 64 69 85 87 68 53 49 52 76 63 46 42 32 41 87 100 99 69 82 100 100 100 100 92 87 58 42 33 27 24 26 28 24 24 38 55 92 83 60
30 14 26 23 41 56 80 76 89 75 85 82 80 66 47 51 41 51 67 67 84 96 97 100 100 100 100 100 100 99 86 65 44 31 31 35 36 34 31 28 29 34 59 80 69 61 77
40 21 17 20 18 25 43 44 35 82 88 96 84 77 64 66 66 73 59 65 77 67 87 95 99 99 98 96 76 69 53 38 41 64 47 35 40 46 42 35 40 62 76 87 86 98 96
40 34 16 21 20 19 24 24 17 22 71 100 80 73 65 58 62 63 73 78 60 75 82 83 70 52 50 56 55 40 51 70 72 71 48 36 35 37 40 48 65 72 88 85 76 91 98
69 38 24 16 23 16 11 10 10 10 24 76 64 64 79 58 63 66 69 56 49 53 56 77 88 88 62 49 52 80 88 100 92 63 65 54 49 53 63 64 75 86 86 90 95 97 98
84 48 37 19 19 14 10 7 6 6 12 40 61 43 42 48 60 85 69 39 67 88 95 99 83 80 73 67 69 68 79 100 84 63 60 58 62 70 74 80 85 84 89 94 95 98 98
83 77 38 37 20 20 10 8 6 5 8 14 56 35 27 33 45 47 32 39 64 84 94 92 90 90 89 86 88 91 90 83 80 77 76 87 94 87 88 94 95 96 98 97 98 98 97
89 84 47 37 28 16 19 7 8 5 4 8 25 35 27 33 46 60 46 52 51 61 66 66 74 83 88 89 89 88 83 88 88 88 94 100 98 100 100 100 92 88 93 99 99 99 94
89 86 76 33 33 23 13 15 6 8 5 4 8 22 28 24 25 41 38 35 33 38 47 47 68 80 89 99 95 96 92 89 91 98 100 99 99 100 100 100 85 91 92 96 98 98 99
92 88 83 53 32 28 23 15 9 6 8 5 5 9 20 22 20 21 24 24 22 22 30 41 65 73 77 91 86 74 74 92 92 85 75 83 97 95 99 100 99 94 98 89 97 97 99
80 85 83 76 36 30 26 24 14 6 6 9 5 4 7 14 18 19 20 18 18 19 24 38 51 62 65 69 66 57 51 52 52 51 53 61 64 70 76 96 98 98 100 99 100 99 98
60 66 82 81 63 33 26 26 24 13 6 7 8 6 5 8 18 16 18 18 17 16 16 18 26 34 40 43 47 50 45 42 40 41 40 40 45 49 41 43 83 58 89 98 99 94 85
62 51 64 79 73 45 30 26 24 17 12 4 8 9 7 6 9 15 15 15 14 12 12 12 16 20 26 31 34 42 44 46 42 38 35 29 29 28 29 29 28 29 30 38 34 24 21
72 64 48 80 75 64 35 28 24 23 13 10 5 7 9 7 7 8 9 10 11 10 10 11 13 16 17 22 24 30 34 38 38 37 34 26 22 20 19 19 20 19 22 25 23 21 16
68 65 48 55 81 75 50 30 26 21 21 10 8 5 6 10 8 7 7 9 9 8 8 9 10 12 14 18 21 24 28 32 32 32 30 27 19 17 14 14 14 13 14 16 15 18 19
66 71 51 52 86 82 65 40 31 23 19 15 10 10 6 6 8 10 9 8 7 8 8 7 7 9 12 12 13 16 19 20 23 24 26 27 26 22 21 20 17 17 17 15 14 21 22
64 77 92 60 78 87 77 59 36 30 22 18 13 10 12 10 5 7 8 11 10 9 8 8 7 7 6 7 7 7 8 10 12 13 10 13 17 16 14 13 13 13 13 13 10 14 16
49 49 67 57 83 96 90 72 54 35 30 20 14 13 10 10 13 9 6 7 8 10 10 12 11 11 10 8 7 6 6 6 6 6 6 6 6 6 6 6 6 7 8 8 9 10 9
47 43 47 46 88 91 96 92 70 52 38 30 16 16 14 12 9 10 14 11 6 7 8 8 11 11 10 11 11 12 12 11 9 8 7 8 8 7 7 6 6 6 7 6 6 6 6

GFSGBSN_500_rhum_111.txt.gz
RH
4 4 5 4 9 35 29 28 23 32 89 100 94 94 100 100 98 94 96 96 74 82 88 91 98 97 99 99 93 100 97 97 94 83 56 46 40 41 48 51 47 42 39 38 36 32 26
4 5 5 7 20 40 38 38 25 30 53 84 99 100 99 100 100 89 100 98 73 80 69 75 98 89 82 97 100 100 100 97 96 97 93 81 63 58 61 56 50 46 44 44 43 42 36
4 5 6 9 32 56 44 50 35 32 27 40 63 95 100 100 100 95 76 95 92 63 100 99 100 100 85 86 100 100 100 94 86 98 97 98 95 92 83 58 50 48 50 52 53 52 46
8 6 7 11 49 61 55 52 60 32 52 41 28 38 64 92 92 92 67 98 100 100 100 100 93 100 100 91 100 100 100 98 100 97 98 100 97 94 79 68 66 64 62 65 63 58 50
11 8 9 16 50 45 66 59 65 51 71 65 65 42 34 81 72 90 97 98 100 100 100 100 100 100 100 100 100 100 98 98 98 94 96 95 92 96 91 82 76 71 57 59 61 53 43
12 13 13 22 48 62 59 68 75 62 54 86 78 51 35 84 71 97 100 95 89 94 100 100 100 100 100 100 100 100 99 99 98 81 81 88 96 82 82 74 62 53 50 49 54 43 34
17 15 16 21 40 71 43 76 74 81 45 59 86 50 33 62 58 68 88 99 75 67 85 100 98 98 100 97 94 100 99 97 87 80 84 87 85 74 76 62 49 44 41 42 40 33 22
25 15 20 24 26 57 59 43 73 86 68 37 72 36 23 49 79 69 95 83 69 64 60 75 84 81 64 68 96 100 93 89 84 76 78 81 76 76 67 54 45 37 35 32 28 21 16
25 18 18 24 27 41 51 25 52 72 92 51 56 43 21 50 80 67 73 90 88 74 57 48 43 36 26 29 65 97 88 82 79 79 77 70 74 66 55 44 37 34 29 24 18 14 12
29 30 16 21 24 24 37 19 27 65 83 74 60 69 33 47 64 61 52 75 91 69 46 35 34 34 27 20 32 99 92 83 81 74 68 64 58 49 43 35 29 23 19 16 13 13 25
55 30 23 20 15 17 20 14 20 49 68 73 52 72 81 42 26 36 37 45 52 38 30 53 40 25 29 39 44 86 88 85 80 74 66 54 44 34 27 22 18 16 15 21 48 55 41
80 39 29 20 21 12 10 8 13 28 46 55 55 51 76 73 59 60 66 61 58 64 74 98 78 78 95 92 88 88 98 83 78 65 45 32 25 22 20 21 21 20 45 66 55 54 68
86 61 32 23 17 14 11 6 8 14 23 51 54 51 62 74 82 82 74 79 81 81 98 97 91 100 100 100 100 100 95 77 41 31 24 21 22 24 27 26 36 54 67 72 70 85 88
88 84 43 26 18 16 9 7 6 9 17 22 42 50 55 62 67 69 75 71 50 50 50 59 87 97 93 81 45 39 36 37 36 33 25 31 34 44 36 49 60 66 76 77 69 84 95
91 89 76 36 24 17 10 8 5 6 14 20 25 30 37 47 58 66 71 67 58 67 64 59 48 44 47 69 82 76 59 43 35 38 41 44 46 56 56 58 72 82 90 85 94 96 98
91 89 86 58 30 24 16 7 6 5 7 16 21 30 35 40 52 82 66 42 48 58 69 73 67 65 64 70 78 86 65 65 73 77 71 60 62 65 70 88 93 97 98 97 98 97 98
75 85 87 77 44 26 23 12 8 5 6 9 14 23 27 42 53 70 44 40 56 72 82 82 79 80 76 80 88 93 92 86 82 78 74 75 79 86 97 97 98 98 99 99 100 97 96
73 66 81 86 62 36 26 17 7 8 5 5 11 16 21 21 35 51 26 35 47 59 77 77 78 86 96 96 92 92 94 96 98 96 91 91 95 98 99 99 97 94 97 100 98 97 92
79 57 61 83 79 42 30 23 14 7 8 5 5 10 16 17 15 20 19 25 35 56 66 74 80 76 74 76 85 96 97 97 98 100 100 97 90 99 99 95 95 93 99 97 91 94 87
90 89 56 74 84 61 31 28 16 10 9 8 5 6 9 14 15 17 15 18 43 46 49 54 59 60 64 62 68 74 62 58 72 89 87 88 92 97 98 99 100 92 96 96 97 97 95
92 89 70 69 77 76 41 26 26 12 8 9 9 6 5 8 14 16 14 14 24 33 36 37 39 43 49 52 49 47 45 42 42 43 44 49 46 51 89 69 98 95 92 93 95 92 91
90 75 79 71 74 77 62 33 26 21 11 7 9 9 6 5 6 10 13 13 14 19 22 24 24 28 34 39 41 43 43 40 38 35 30 30 30 33 46 34 36 76 89 76 33 25 23
81 74 93 91 88 76 71 48 24 24 12 10 6 9 10 8 5 5 9 11 12 13 16 19 19 22 23 26 30 32 34 38 38 36 34 26 22 21 22 21 21 21 19 16 12 10 9
63 62 75 77 96 67 83 64 42 22 20 11 11 7 8 11 10 6 4 7 9 10 12 14 16 16 17 20 22 22 23 25 26 27 26 28 23 17 15 14 14 14 12 13 13 13 12
57 54 62 56 90 82 87 76 58 33 26 17 11 12 9 6 11 12 9 6 5 8 9 10 11 13 14 16 17 18 20 19 17 18 18 16 17 18 15 14 12 12 10 10 10 10 10
52 50 56 52 49 55 94 89 70 53 31 24 14 12 10 12 6 8 12 12 10 8 5 5 8 9 9 10 11 12 13 13 14 14 14 16 13 13 13 13 13 15 16 16 16 14 14
50 49 43 54 45 49 71 94 88 67 48 31 21 16 14 9 11 11 6 8 11 13 12 11 10 8 7 6 6 6 5 5 5 6 6 6 6 6 6 6 7 7 8 8 8 9 10
50 52 42 47 46 44 49 57 84 85 67 45 30 18 17 14 9 9 13 14 7 7 8 10 12 12 12 12 12 11 10 10 9 9 9 9 9 9 8 8 7 6 6 6 6 6 7
57 48 48 40 48 44 42 55 58 92 87 67 46 33 18 18 16 12 7 9 13 14 13 10 8 7 8 9 10 11 12 13 13 13 12 12 12 12 12 12 10 10 9 9 9 7 6

GFSGBSN_500_rhum_114.txt.gz
RH
8 6 7 8 12 25 40 73 76 48 27 22 43 80 80 85 97 87 74 78 77 71 82 100 94 100 100 100 99 100 98 91 97 96 79 51 36 32 32 31 30 30 34 35 33 30 29
11 8 7 9 18 20 29 79 88 68 27 38 36 30 77 95 95 94 73 60 65 68 77 89 100 99 100 98 86 100 99 93 90 97 96 93 68 45 36 34 33 35 38 42 42 39 36
13 10 8 11 20 17 23 89 90 77 41 49 76 37 79 78 100 97 75 66 51 60 66 89 100 100 100 100 99 100 96 99 83 95 99 97 95 88 62 42 39 40 46 49 47 44 42
16 13 11 12 16 14 21 77 97 73 50 52 72 53 84 100 95 99 63 50 66 70 94 97 100 99 96 100 100 100 100 99 95 98 92 94 98 95 91 79 60 55 64 57 51 49 48
21 17 14 14 18 10 18 60 90 64 51 31 52 65 71 100 100 93 51 43 99 100 100 100 100 100 100 100 100 100 100 100 90 92 85 89 91 95 98 97 96 93 71 60 58 56 48
25 21 14 15 19 9 14 53 62 53 50 23 25 51 81 100 100 62 76 94 100 100 100 100 100 100 100 100 100 99 100 92 86 95 86 88 87 86 90 92 82 75 71 70 62 45 36
33 23 18 15 22 9 12 48 42 48 53 22 23 51 93 100 100 74 100 85 96 99 100 100 100 100 100 100 100 97 97 90 89 86 78 71 75 86 87 80 76 73 69 56 41 30 26
67 29 24 15 18 9 11 38 36 43 60 28 64 78 73 70 82 92 100 69 62 96 99 96 97 100 100 100 100 100 88 85 92 87 72 67 69 75 72 62 61 62 52 41 35 28 23
83 49 26 22 14 11 8 19 35 41 56 45 46 55 53 47 73 99 85 73 65 63 47 60 94 86 69 97 100 100 98 79 81 78 72 70 71 69 65 58 56 49 41 36 29 24 18
83 86 36 25 13 13 7 12 20 39 48 63 54 32 36 44 68 96 68 64 60 43 40 39 33 42 40 69 100 100 100 92 82 77 73 65 62 58 52 47 46 35 33 26 20 15 12
84 86 55 27 21 12 7 9 14 22 37 52 67 68 36 28 33 35 35 36 38 30 32 35 20 19 19 30 95 98 93 89 71 60 53 50 43 40 39 38 32 23 18 15 13 13 19
75 84 88 36 26 11 8 7 12 17 27 34 50 62 68 65 48 42 43 44 53 54 51 35 34 30 15 25 75 89 81 72 58 49 43 44 37 31 24 22 20 18 16 18 27 44 48
64 79 86 62 26 16 8 6 9 12 21 30 46 57 53 55 57 74 79 75 68 65 89 88 95 86 46 31 60 75 65 54 49 48 43 27 21 18 19 19 21 33 48 53 54 74 79
62 67 79 86 36 24 8 8 6 10 14 25 35 44 59 60 56 57 43 41 48 82 94 100 100 91 84 69 66 72 69 67 45 32 24 19 15 24 33 46 54 62 69 72 66 69 87
79 60 74 81 66 29 14 8 6 7 10 14 20 24 29 38 47 50 47 40 43 42 45 52 55 57 53 46 41 36 34 29 24 20 23 32 46 50 51 57 69 77 83 81 81 86 94
93 78 68 78 80 38 24 7 9 5 7 10 13 14 16 30 42 55 52 44 56 64 65 67 69 78 78 67 54 46 45 55 51 58 59 61 60 65 67 79 94 97 97 90 88 92 90
96 90 81 74 76 65 32 16 8 7 6 7 10 12 13 18 28 55 37 48 50 56 62 67 70 71 69 73 78 85 88 92 91 87 81 76 86 96 98 96 96 94 95 94 93 89 85
95 86 80 78 73 76 46 26 9 9 6 5 6 9 12 13 24 32 39 51 54 60 63 64 69 78 84 94 96 98 97 92 90 86 89 92 94 93 94 93 97 96 98 84 80 78 83
92 94 79 91 80 77 70 39 18 7 10 6 5 6 8 11 17 24 24 30 41 43 50 54 64 77 83 86 80 91 98 100 96 91 92 93 89 96 89 84 87 98 95 83 84 87 87
91 83 70 86 92 78 75 55 32 11 6 10 6 5 6 8 11 17 20 22 25 27 34 45 50 53 59 50 47 43 38 47 60 62 61 82 89 88 89 90 86 80 86 89 89 88 88
70 64 64 67 74 86 76 67 42 24 10 6 10 7 5 6 8 10 14 19 19 19 24 29 38 42 42 44 44 40 37 33 30 30 32 38 58 39 49 81 84 85 74 58 52 43 31
56 58 62 60 58 90 80 74 54 35 19 10 6 10 8 4 5 7 9 11 13 14 16 15 20 26 33 36 38 36 34 34 35 31 27 22 22 25 22 23 26 24 20 16 14 12 12
60 57 62 60 54 53 62 90 68 42 30 16 10 7 11 10 6 5 6 8 9 10 11 12 14 15 16 20 23 25 25 25 22 23 24 24 20 18 17 16 15 15 13 12 12 10 10
63 56 60 58 51 52 46 81 87 68 35 29 16 10 7 10 11 9 5 5 6 7 9 10 11 13 11 14 15 15 15 17 17 18 18 17 17 16 15 14 14 14 11 10 9 9 12
55 55 57 55 54 43 47 45 75 89 63 33 29 18 11 8 8 11 11 10 7 5 5 6 7 7 7 8 8 8 9 10 10 10 11 11 11 11 12 13 12 11 13 11 11 12 12
58 54 52 51 51 48 40 43 44 59 83 88 34 25 19 12 9 8 8 11 12 12 11 9 8 7 6 6 6 6 5 5 6 6 6 6 5 6 6 7 7 8 8 9 9 9 8
61 59 51 50 49 50 43 39 42 44 60 88 55 33 20 19 16 10 10 9 8 9 11 12 13 12 12 12 12 12 11 11 11 12 11 12 12 11 11 12 11 10 9 7 6 6 6
68 58 54 53 49 45 46 39 39 43 42 73 82 57 37 23 19 18 11 8 13 12 10 8 8 8 10 10 11 12 12 12 13 12 12 13 13 13 13 13 13 13 13 13 12 12 11
67 61 57 51 51 43 43 42 34 42 42 44 53 75 68 46 29 22 19 15 10 10 10 11 13 18 15 12 12 13 13 12 12 12 12 15 12 13 13 13 11 10 11 12 14 14 14

GFSGBSN_500_rhum_117.txt.gz
RH
18 18 11 6 8 8 23 42 45 54 69 77 72 36 47 92 100 90 68 85 86 80 94 100 98 100 100 100 99 99 100 96 95 72 62 58 51 39 31 27 26 25 25 25 26 26 25
24 22 17 7 7 9 24 36 44 43 42 85 100 94 88 99 93 84 49 64 70 64 85 100 100 100 100 100 100 99 100 100 93 96 78 69 62 50 38 32 30 29 27 26 26 27 29
31 25 20 8 8 11 21 37 46 20 30 98 100 100 98 100 91 62 40 44 72 88 93 100 100 100 100 100 100 100 100 100 82 83 94 94 78 59 47 37 33 32 31 29 28 27 30
29 25 23 10 8 12 20 40 40 21 18 45 90 77 100 100 53 30 54 63 78 78 89 100 100 100 100 100 98 100 100 100 91 81 96 98 97 92 79 64 49 39 35 33 33 32 34
48 28 25 11 8 12 22 40 42 48 54 55 81 98 81 75 38 63 87 100 100 99 100 100 100 100 94 100 100 100 100 99 100 97 91 83 87 94 99 96 82 68 54 44 40 39 40
71 39 26 12 8 12 21 33 47 34 46 46 61 54 62 50 46 86 100 100 100 99 100 100 100 100 100 100 100 100 95 92 93 92 81 82 75 76 81 89 97 92 93 84 74 66 67
76 62 29 15 8 10 17 26 40 31 34 58 45 38 32 36 80 100 100 99 100 100 100 100 100 100 100 98 96 94 89 90 77 79 75 78 72 72 81 84 89 93 98 97 86 68 65
71 79 32 20 9 8 15 18 35 40 28 24 35 56 39 52 70 60 58 89 100 100 94 100 100 100 100 84 98 100 97 88 85 82 84 81 74 72 74 76 83 88 86 76 66 54 45
63 81 46 25 11 8 12 16 26 37 41 35 21 31 43 65 67 59 49 51 56 82 98 94 99 99 92 84 91 96 100 88 79 82 80 74 68 70 76 77 72 62 50 43 40 35 27
69 72 78 31 14 8 8 14 20 27 35 36 38 23 36 60 52 44 52 44 32 33 30 74 70 78 87 94 95 94 91 92 92 87 74 68 66 61 61 62 54 42 40 36 29 23 20
86 74 78 40 18 9 7 11 17 21 21 27 33 46 35 25 25 24 25 27 27 21 21 22 36 73 90 100 99 98 94 87 81 70 67 63 52 46 45 42 38 35 32 26 19 15 11
83 91 68 75 27 12 8 7 11 18 21 23 26 31 34 53 54 50 53 61 50 32 20 17 18 34 86 94 96 98 92 78 65 55 47 44 37 37 36 33 28 23 19 16 12 12 13
88 90 78 80 40 18 8 6 9 11 17 20 23 32 34 32 35 65 66 70 77 49 40 22 13 19 48 74 78 68 63 53 48 41 33 32 31 27 23 19 16 14 14 22 30 48 43
86 90 90 76 84 28 10 9 6 9 11 14 19 24 34 44 43 40 41 61 61 86 70 33 20 20 46 58 58 52 44 44 38 35 29 26 20 16 15 22 33 45 52 58 61 56 59
92 95 83 97 78 53 18 8 8 7 8 10 14 19 28 35 45 51 50 45 55 48 53 56 52 45 40 55 56 50 46 46 41 28 20 18 24 36 44 48 56 68 72 78 80 80 79
77 62 68 70 95 82 33 10 9 7 6 8 11 15 22 27 35 42 57 38 42 47 51 50 30 32 27 26 26 23 22 22 21 21 27 39 44 57 68 77 85 90 97 96 91 81 80
67 59 71 66 83 81 62 19 7 10 6 6 7 12 14 19 26 40 42 41 50 54 56 54 51 50 50 52 57 61 60 59 61 57 58 69 90 96 100 98 94 93 91 85 79 79 77
69 58 73 84 61 93 82 45 15 7 9 6 6 8 12 15 18 25 27 41 52 64 72 76 82 79 80 90 92 89 78 85 89 94 95 92 88 92 94 94 92 93 80 77 74 74 78
51 58 58 66 60 59 90 76 34 11 8 9 5 6 9 14 14 15 17 25 44 55 63 57 62 67 70 82 80 78 75 86 92 92 94 97 95 95 84 86 87 89 81 72 70 73 75
43 50 62 61 56 60 54 91 60 27 10 8 9 5 6 8 10 12 14 17 22 31 40 47 49 45 41 37 41 54 54 48 49 78 54 59 77 92 81 74 78 78 76 75 72 67 46
34 42 53 57 62 56 54 64 91 50 25 10 7 10 6 5 6 9 10 12 14 15 19 22 25 31 34 33 33 33 32 30 28 25 27 29 27 32 59 74 60 25 18 15 14 14 14
32 40 45 56 58 61 52 51 86 82 41 28 11 7 10 7 5 6 7 9 10 10 11 10 12 12 15 18 18 19 20 19 22 25 26 25 23 20 18 17 16 15 12 11 10 10 11
36 43 45 57 54 56 56 50 53 90 73 50 32 13 8 10 11 6 5 6 7 7 8 9 10 12 11 13 13 13 12 12 14 12 14 17 18 19 20 18 17 16 15 13 12 12 12
45 58 62 58 58 52 50 51 47 50 80 85 41 35 16 9 8 11 11 8 6 6 6 6 7 8 8 8 8 8 8 9 8 8 8 9 10 14 15 16 14 15 14 12 10 10 10
72 65 63 58 62 54 50 48 47 47 46 62 88 42 36 19 12 8 8 10 12 11 9 7 7 6 6 6 6 6 6 6 6 6 6 6 6 6 7 7 7 8 9 8 8 7 6
68 61 62 60 60 59 52 48 46 42 45 42 67 81 68 41 22 18 12 9 8 9 11 12 12 13 12 12 12 11 11 11 11 12 12 12 12 12 11 12 12 12 11 12 12 12 11
70 63 54 57 55 57 51 50 44 41 41 45 38 60 82 72 45 26 19 14 9 11 10 8 8 8 9 10 12 12 12 12 11 13 13 13 12 13 13 13 13 14 14 15 14 15 15
68 62 56 54 52 56 50 46 43 39 40 38 41 35 36 62 76 59 32 22 17 12 11 10 12 14 14 15 12 10 9 11 12 12 12 13 12 13 14 13 11 10 8 8 6 4 4
63 64 60 54 53 55 56 49 41 42 38 40 37 39 38 35 44 79 66 44 29 22 16 15 14 13 11 12 12 12 12 12 11 11 14 13 11 9 10 11 9 8 6 5 4 4 3

GFSGBSN_500_rhum_120.txt.gz
RH
31 11 10 7 6 10 24 23 46 19 84 94 100 87 98 98 98 53 77 83 69 74 81 72 71 76 98 94 98 100 99 99 97 93 49 44 41 36 28 26 23 22 23 22 22 21 20
39 15 9 8 7 12 27 28 49 34 66 75 88 99 82 82 53 50 49 57 69 77 94 97 100 65 99 98 100 100 97 98 99 96 92 55 45 43 40 31 29 27 25 24 24 24 23
47 19 9 8 7 12 26 25 38 66 84 48 71 82 74 49 48 41 45 62 64 82 93 100 96 100 100 95 93 100 100 100 92 80 96 79 60 50 47 41 37 33 30 28 26 26 25
56 21 11 8 8 12 22 28 27 35 60 86 58 34 30 36 41 33 45 61 54 72 98 100 100 100 100 100 100 100 99 100 85 75 81 93 77 73 61 52 46 43 38 34 32 29 28
61 26 15 8 8 12 17 28 20 20 29 43 35 25 23 30 82 93 88 100 70 98 100 100 100 97 100 100 100 99 100 100 80 79 84 97 93 82 78 75 63 51 45 42 38 35 34
67 43 22 8 8 10 17 22 28 20 21 30 33 39 60 70 87 98 100 94 93 100 100 100 98 99 100 93 96 99 100 100 92 83 90 98 97 92 95 96 86 80 74 59 57 52 46
71 71 27 10 8 10 15 19 21 29 22 25 37 56 56 42 34 78 97 100 94 96 93 100 100 98 100 82 73 90 92 98 95 90 81 76 72 68 70 76 79 82 92 90 78 72 76
82 73 42 15 8 8 12 18 22 24 32 24 34 47 42 42 30 34 91 100 98 100 86 99 100 100 88 79 80 92 88 82 82 80 79 74 66 70 63 62 67 70 73 69 73 70 73
87 83 72 24 9 8 9 14 20 27 26 35 32 31 27 23 28 28 34 71 94 98 87 77 69 80 84 89 88 96 94 97 92 80 72 75 70 64 64 68 71 69 71 71 70 66 56
78 91 80 42 12 8 7 11 15 21 29 31 31 46 40 34 26 24 19 28 62 64 72 72 74 67 65 85 95 96 94 92 84 81 78 73 66 60 64 67 67 63 58 47 39 36 28
59 69 92 76 19 9 7 8 12 18 21 30 36 33 52 57 57 54 20 20 28 39 49 64 77 83 87 92 80 94 96 93 94 83 73 67 57 53 48 50 46 51 41 35 28 21 14
59 77 75 87 34 9 9 6 10 14 18 22 27 32 39 49 65 77 32 15 21 25 44 72 81 87 95 93 93 83 82 76 67 60 56 49 42 37 37 33 30 28 23 17 13 10 9
56 70 85 94 81 17 8 7 8 12 16 20 24 28 32 42 46 58 50 17 17 18 28 55 69 86 93 98 96 98 90 68 61 56 46 37 33 30 25 21 17 15 14 13 10 10 10
59 61 73 63 96 59 11 9 6 9 12 17 22 26 31 36 34 42 30 23 15 14 15 22 45 56 66 71 70 64 55 52 44 35 30 25 22 17 15 14 16 14 18 19 21 24 27
52 62 75 68 60 97 39 9 9 6 9 12 18 22 24 34 42 42 42 18 14 16 19 20 26 36 46 56 49 40 36 38 36 34 27 21 15 16 31 36 44 49 53 53 55 50 58
47 58 61 63 58 74 96 22 8 8 6 8 13 18 21 28 39 50 53 45 32 25 25 33 30 32 34 36 36 37 35 30 25 16 19 33 35 40 48 57 68 68 70 70 72 68 77
38 46 48 58 56 56 87 87 15 8 9 6 9 13 17 22 31 43 46 52 58 65 64 59 53 50 48 45 33 26 28 29 34 43 50 57 71 75 78 76 76 77 76 72 73 75 68
30 40 45 54 58 54 51 83 70 14 8 9 6 8 12 16 21 31 37 43 46 44 54 63 66 71 74 71 76 80 76 76 83 89 87 87 90 90 87 86 84 73 72 71 66 65 65
19 32 41 45 62 58 50 56 62 53 16 9 10 6 7 10 14 18 24 24 30 34 38 34 48 61 67 72 82 88 90 92 94 94 90 82 81 79 84 80 77 72 70 67 66 65 52
14 25 35 46 55 61 60 47 82 68 59 20 10 10 7 6 8 10 14 16 16 15 15 22 30 30 30 30 29 29 38 67 57 41 40 66 89 80 74 77 66 45 41 37 26 18 15
18 28 37 52 69 61 58 57 48 69 71 65 25 10 9 10 6 6 8 9 11 11 10 10 12 16 20 20 21 23 25 26 26 26 25 24 25 34 49 42 20 16 14 14 16 16 16
27 34 50 68 70 62 56 58 53 46 57 83 68 33 12 8 10 11 7 6 6 7 8 8 8 12 12 13 12 12 12 13 15 16 18 21 21 23 22 20 18 17 17 16 15 14 12
24 71 76 75 69 68 58 54 54 52 45 47 84 48 34 17 9 8 10 11 10 6 6 6 7 7 7 8 8 8 8 9 9 9 10 13 16 17 17 20 18 17 14 15 14 12 10
31 72 67 64 64 70 64 56 50 52 48 42 45 83 60 42 24 16 9 8 9 11 12 11 9 8 8 7 7 7 6 6 6 6 6 6 6 6 7 8 9 8 7 7 7 7 7
17 52 67 64 60 57 63 57 50 49 46 42 41 46 83 75 41 31 22 16 10 8 8 10 11 12 12 12 12 12 12 11 11 11 11 11 10 10 11 10 10 11 10 10 10 11 13
16 27 62 69 59 56 56 58 53 47 47 37 40 39 39 53 76 73 50 33 21 12 11 11 9 9 8 8 9 9 10 11 10 11 11 12 12 12 12 12 12 14 14 13 11 10 6
19 22 31 51 67 60 52 52 55 52 47 41 34 39 38 36 35 54 75 67 42 27 18 14 11 12 13 13 13 13 11 10 10 10 12 11 11 12 12 11 11 10 10 8 7 5 4
74 66 52 43 57 62 61 55 49 53 52 47 37 35 37 39 36 36 37 67 78 64 43 29 18 16 16 14 13 13 13 13 12 13 10 9 9 9 9 9 9 10 9 8 6 6 4
75 66 64 67 66 59 61 59 56 51 55 54 47 38 38 40 39 37 36 36 43 73 82 72 56 45 26 24 22 18 17 16 16 15 14 11 12 10 11 12 10 9 10 10 9 7 6

GFSGBSN_500_rhum_126.txt.gz
RH
8 5 5 5 8 14 17 17 14 15 31 40 38 34 47 50 24 32 36 50 82 92 99 100 100 99 98 98 90 97 94 74 58 78 63 37 28 19 14 13 14 14 13 13 12 13 13
11 6 6 6 8 15 22 26 15 16 16 17 22 59 69 62 51 25 35 46 60 78 100 100 100 100 99 100 100 98 93 83 86 90 76 50 32 26 19 15 15 16 16 16 15 16 16
28 7 7 6 8 18 24 31 32 16 19 22 40 63 66 65 64 75 26 32 49 64 94 98 100 99 98 99 100 100 91 100 100 100 83 55 37 30 23 19 17 17 18 18 18 19 19
49 8 7 6 9 17 27 33 40 49 36 22 84 84 77 85 82 57 50 42 30 49 77 99 100 100 99 100 94 85 94 90 100 100 92 62 42 36 30 25 21 20 20 20 20 20 21
52 20 7 8 8 13 28 34 43 49 62 25 63 70 80 67 76 94 98 85 69 79 90 90 100 97 100 98 100 89 100 94 98 98 89 79 63 61 46 33 28 27 26 26 25 24 25
55 48 12 8 6 11 24 34 38 46 62 28 43 55 67 71 54 96 94 87 58 62 73 84 100 98 94 96 60 68 89 85 98 98 94 82 76 70 60 54 37 32 31 32 32 31 32
50 58 33 7 8 8 18 32 36 30 30 16 30 44 53 58 39 49 98 69 89 100 71 83 100 100 66 60 77 67 49 61 96 94 97 93 84 79 74 65 61 44 38 37 38 38 38
53 45 57 17 8 7 14 26 32 20 9 11 20 33 44 57 62 68 95 69 54 69 62 65 75 94 53 46 74 70 43 64 52 80 85 91 92 92 94 89 83 74 66 59 57 57 56
55 49 45 56 9 8 10 23 30 28 9 8 11 21 31 37 40 53 52 48 44 58 46 52 73 66 48 58 85 69 77 81 85 92 97 93 92 85 83 80 79 76 72 67 62 59 47
52 55 45 67 27 8 7 16 26 30 22 10 9 12 16 21 35 50 56 55 52 50 35 34 46 45 51 54 69 98 76 93 98 96 91 92 92 86 76 62 55 52 51 48 43 37 32
44 56 54 50 66 14 8 10 18 28 29 22 13 10 11 13 21 35 50 68 61 54 38 54 59 46 44 56 54 54 82 62 75 77 73 72 68 68 59 53 50 41 40 38 36 34 33
22 41 57 50 67 51 11 8 11 17 26 27 26 21 16 14 14 17 36 46 60 47 49 60 65 81 80 74 82 89 66 47 68 81 82 75 64 58 55 52 46 45 44 42 40 36 33
6 24 51 59 46 78 52 10 7 12 16 22 22 28 31 27 22 16 18 36 34 38 65 65 58 66 85 95 94 93 90 77 76 76 65 55 49 43 38 34 30 27 24 22 21 18 17
4 11 33 65 53 53 79 74 9 7 10 12 17 21 23 33 39 32 18 14 13 28 50 70 71 64 66 63 61 68 77 81 70 58 46 38 35 27 21 17 14 11 10 9 8 8 8
4 5 21 47 68 50 58 83 72 9 8 8 10 13 21 26 32 46 44 28 17 16 25 28 28 30 32 31 32 32 30 29 26 25 20 18 15 13 11 13 16 15 12 17 20 21 19
4 4 13 29 70 63 48 48 83 58 10 8 8 10 11 13 16 25 46 37 39 40 30 18 16 19 19 18 17 17 16 16 16 18 21 18 18 21 27 40 39 36 40 44 40 42 45
4 4 5 17 68 78 62 50 48 72 57 10 8 8 8 10 10 11 11 10 28 44 49 54 46 43 39 40 44 47 51 56 58 57 58 58 61 59 57 50 49 50 52 53 54 58 55
5 5 4 29 72 72 75 62 52 46 65 48 12 9 9 7 7 9 9 9 8 11 18 27 40 54 54 58 58 58 58 62 64 66 67 72 67 64 61 59 58 59 62 58 57 55 55
5 5 5 17 77 70 74 70 57 49 44 60 57 18 8 9 9 7 6 8 8 8 8 8 8 11 14 35 43 43 46 56 60 59 56 59 61 61 61 60 58 53 52 50 47 35 26
6 6 6 6 67 72 70 72 65 55 44 38 61 58 24 10 8 10 10 9 7 7 6 7 7 7 8 8 10 13 26 38 41 49 52 53 50 46 40 36 28 23 18 16 14 15 14
6 6 7 8 29 66 66 65 68 66 55 40 36 53 62 43 22 12 8 9 11 10 10 9 7 7 7 7 7 7 7 8 10 16 24 26 25 25 24 25 23 24 20 16 15 14 8
7 6 8 12 9 44 63 62 60 64 63 54 39 34 37 58 52 45 25 14 8 8 10 10 10 11 11 11 10 8 7 7 7 7 6 6 6 6 6 6 6 7 7 7 8 10 12
7 11 12 16 9 16 39 58 61 58 59 55 56 45 36 35 40 53 59 54 30 15 10 9 9 9 9 10 11 11 12 12 12 12 12 12 10 9 9 9 10 11 11 13 13 12 10
13 24 35 30 16 11 15 32 43 52 60 62 56 58 51 39 34 32 33 57 68 59 34 15 11 10 10 9 9 9 9 8 9 9 9 9 9 9 11 12 12 13 11 10 11 8 7
41 46 43 35 21 12 12 17 29 37 44 56 58 57 54 50 44 37 35 31 36 55 61 55 42 24 16 13 13 12 12 13 11 11 11 10 10 8 8 8 8 9 8 8 8 9 9
60 48 38 27 15 12 11 16 31 52 68 56 56 56 57 54 51 48 40 38 35 31 34 44 62 60 52 43 28 23 19 18 15 14 15 16 15 14 12 8 10 9 9 9 10 10 10
36 18 10 9 10 10 16 25 37 51 60 66 63 57 59 56 53 50 48 45 43 41 36 36 31 51 62 64 70 64 44 37 34 32 27 25 22 19 17 17 17 17 14 12 14 16 18
14 10 8 40 62 70 56 42 50 56 60 60 59 61 61 63 58 56 53 50 49 50 52 50 42 34 34 38 59 68 67 71 70 72 64 51 48 42 32 26 24 26 28 25 26 24 28
59 69 66 67 67 76 75 72 73 78 67 63 60 60 56 61 63 59 58 56 53 53 56 53 51 37 44 44 37 36 38 51 70 76 89 80 82 81 86 81 61 43 36 37 42 40 40

GFSGBSN_500_rhum_129.txt.gz
RH
17 4 5 6 7 12 11 24 40 19 34 62 75 79 71 51 30 29 58 89 100 99 99 55 36 49 99 100 99 95 86 28 21 46 69 52 30 20 15 11 8 7 7 7 6 6 6
33 7 6 6 7 12 9 10 15 17 44 68 74 91 82 45 57 25 46 81 96 81 73 67 41 99 100 97 92 72 65 53 28 62 75 64 37 26 17 13 10 9 9 9 9 8 8
48 17 6 6 7 12 9 7 11 19 35 65 72 100 85 62 39 31 31 55 98 99 100 91 72 82 84 100 100 96 79 58 30 83 84 61 42 30 21 14 13 12 12 12 12 12 12
43 38 7 7 7 10 11 8 12 19 29 53 82 90 78 70 61 31 21 33 94 100 100 100 100 96 100 100 97 96 91 76 45 46 91 66 45 34 26 19 15 14 14 14 15 15 15
40 49 9 7 8 8 13 9 14 21 22 37 48 78 79 78 64 47 24 30 75 99 100 100 98 100 100 99 99 100 98 93 96 85 85 75 53 39 32 26 20 17 16 16 16 17 18
45 50 20 8 8 9 12 13 9 14 16 21 36 46 60 81 76 88 64 42 58 85 100 99 100 96 77 74 74 89 94 98 100 99 90 75 58 46 36 34 31 22 20 19 19 20 21
52 45 49 11 8 9 9 16 14 10 12 17 23 42 53 55 78 70 78 45 50 80 98 81 98 92 65 68 75 79 64 80 97 97 99 92 65 52 41 40 48 32 26 24 25 24 26
55 49 54 32 8 8 9 11 20 15 11 14 20 29 42 55 59 70 68 69 56 63 71 67 55 45 60 73 58 51 78 85 86 93 92 94 83 61 50 52 54 51 38 31 30 31 32
47 56 46 66 28 8 9 8 13 24 18 12 14 21 33 45 51 56 66 58 44 58 63 58 46 40 31 27 42 49 66 57 94 91 91 93 87 78 72 73 70 66 63 55 45 41 40
29 57 49 56 73 12 8 10 9 16 29 24 16 15 20 31 46 41 39 58 56 40 33 31 36 42 50 40 61 53 62 65 86 88 90 92 91 90 89 84 81 78 74 71 67 64 56
9 36 61 46 69 70 10 8 10 12 20 33 29 17 15 22 33 35 44 39 43 34 20 43 35 32 39 48 45 35 68 93 96 97 94 93 88 83 83 80 74 68 66 52 46 43 37
3 13 47 54 47 62 62 9 9 10 14 22 32 30 15 16 21 34 30 24 25 27 33 30 32 35 51 44 54 67 59 61 75 66 73 74 76 74 66 57 48 42 35 31 26 24 18
3 5 25 65 50 48 71 39 9 9 10 12 18 29 30 18 14 15 30 30 23 22 39 50 49 45 54 67 66 54 45 57 73 78 68 61 56 49 46 43 40 42 38 37 34 33 29
4 3 11 57 63 53 50 79 25 9 8 10 9 11 22 30 27 14 11 19 21 32 41 51 52 54 65 86 88 82 69 56 66 67 61 54 50 48 45 41 38 36 32 30 26 23 19
4 4 5 47 66 65 55 49 85 18 9 8 9 9 9 12 30 33 25 17 12 12 17 22 21 21 21 24 37 51 58 57 49 42 37 33 29 25 21 19 18 16 13 12 10 10 8
4 4 4 28 66 65 63 52 48 76 25 9 8 8 9 8 9 17 31 25 30 33 25 17 16 16 16 15 15 14 14 15 16 14 13 12 11 10 10 17 23 17 26 31 33 35 34
5 5 5 6 38 68 65 57 51 45 72 34 9 9 8 8 8 8 9 7 9 17 32 40 47 48 50 52 53 54 50 49 49 46 43 43 41 41 40 41 39 39 41 42 44 48 46
5 5 5 5 11 73 66 62 56 51 45 78 35 11 9 9 8 7 7 7 7 7 7 11 23 36 44 51 54 56 58 64 62 61 57 55 53 51 48 49 51 55 55 54 52 46 36
6 5 6 6 7 54 65 69 63 54 47 44 72 51 18 10 10 9 8 7 7 7 7 7 7 7 8 21 31 40 44 49 52 54 53 50 47 46 46 45 42 36 31 24 19 18 14
7 6 5 6 7 20 57 68 67 61 53 46 40 53 66 43 21 10 10 10 10 9 8 7 7 7 7 7 6 8 14 22 27 28 28 26 25 25 25 26 24 22 22 20 19 17 9
7 6 6 6 8 14 22 57 64 64 59 55 48 40 38 56 61 49 28 12 9 10 10 11 11 10 10 8 8 8 7 7 7 6 6 6 6 6 6 8 10 8 7 6 7 8 12
9 8 7 7 11 13 14 24 57 53 56 58 59 55 46 36 35 46 60 63 34 14 9 9 10 10 11 11 11 12 12 12 11 11 12 11 10 9 9 12 12 10 11 11 12 12 10
11 9 9 10 14 21 27 12 22 40 40 48 57 59 62 52 40 35 32 34 61 63 38 16 11 10 9 9 8 8 9 9 10 10 9 10 10 9 12 10 11 11 12 10 9 9 8
9 9 9 14 27 29 25 14 11 15 26 33 45 55 57 57 54 46 39 36 32 35 50 61 52 28 15 12 12 12 12 12 12 11 10 10 9 8 8 8 8 8 7 7 8 8 8
12 18 23 29 41 38 27 21 12 12 16 35 61 52 56 58 56 54 49 44 40 38 34 33 38 53 63 45 25 20 16 16 14 14 14 14 16 15 13 13 9 9 8 8 8 9 8
61 60 52 51 50 39 22 13 11 11 13 25 51 65 61 57 60 58 53 51 48 44 43 44 37 41 34 56 65 61 61 50 35 32 30 28 23 25 24 21 17 17 17 15 14 12 11
70 60 46 36 28 24 11 8 10 53 62 53 42 57 70 63 58 59 59 56 54 52 50 50 50 49 43 35 33 34 43 62 61 62 67 62 60 67 60 51 44 33 28 25 27 25 21
46 24 12 11 12 12 40 58 55 61 63 62 61 60 64 67 59 61 64 60 60 57 57 55 52 52 52 50 39 42 40 38 40 40 46 48 41 54 59 70 73 72 73 76 67 52 37
12 10 11 20 64 75 66 54 49 53 63 69 62 67 62 69 65 64 63 65 67 67 64 64 59 55 56 56 48 45 54 48 44 42 45 37 42 36 44 52 52 49 54 55 53 67 71

GFSGBSN_500_rhum_132.txt.gz
RH
32 17 6 5 6 10 10 13 24 40 54 71 81 65 40 26 24 100 100 100 79 91 70 59 46 82 100 99 91 99 62 35 16 54 74 50 29 23 17 12 11 11 16 15 20 27 26
40 31 10 6 6 10 13 10 17 34 53 63 76 56 23 22 21 91 100 100 99 52 57 46 33 40 62 73 100 100 47 25 19 48 81 63 37 26 20 14 12 10 9 10 10 10 8
43 43 26 6 6 10 16 12 15 25 49 57 65 47 18 13 34 82 99 100 100 88 36 60 48 54 90 100 100 85 79 36 14 52 89 66 44 34 24 16 13 11 9 8 7 7 6
42 48 37 7 6 7 15 17 16 21 37 62 48 70 27 16 52 97 100 100 91 74 45 37 88 93 100 100 88 85 72 52 24 39 81 73 53 36 27 20 14 12 10 8 8 8 8
40 49 50 7 7 6 11 16 15 15 24 51 52 48 30 20 37 81 77 99 100 95 76 93 97 100 97 100 96 92 84 59 32 21 66 72 59 43 36 26 17 14 12 10 10 10 11
45 44 59 12 7 7 7 12 18 14 15 28 63 52 39 17 29 70 94 94 99 99 100 93 100 98 98 100 97 89 95 71 59 37 45 76 64 52 41 32 25 17 14 13 13 13 14
53 44 52 59 10 7 7 10 13 16 13 17 45 58 41 17 42 60 70 56 58 75 78 90 88 91 81 94 83 82 77 72 62 76 79 84 72 60 46 36 28 25 20 18 18 16 17
36 53 45 57 48 8 7 7 13 13 12 14 30 50 41 20 29 32 46 56 38 40 36 31 32 29 27 56 74 82 77 86 90 85 83 74 80 63 49 40 31 29 28 25 22 22 22
10 52 50 46 66 17 8 8 8 14 13 11 23 34 32 20 17 17 47 34 29 31 30 26 25 24 28 26 38 55 65 68 87 98 95 82 74 61 53 45 38 35 41 42 37 31 29
4 27 55 49 48 66 9 8 8 9 15 13 10 25 24 20 23 24 37 37 35 33 21 20 25 25 29 39 50 51 47 88 96 84 87 94 80 75 60 55 50 49 54 59 56 53 51
3 8 52 59 52 50 42 8 8 8 10 17 13 10 20 20 18 23 29 32 37 34 26 40 41 37 45 50 44 64 85 95 89 97 97 81 81 82 74 69 66 67 67 64 63 61 57
3 4 34 60 63 55 58 18 8 9 8 11 20 14 10 17 18 20 24 29 27 29 41 50 60 46 41 48 65 58 71 84 86 89 90 96 92 72 67 66 68 67 62 58 56 50 43
3 4 16 54 62 63 51 66 14 8 9 9 11 22 19 12 15 16 18 20 18 26 39 53 60 56 51 55 69 56 60 66 66 65 68 80 78 71 66 60 56 51 47 42 34 28 22
3 3 5 15 68 62 60 52 69 13 9 9 9 9 20 25 22 14 14 18 18 24 20 23 38 56 71 51 48 44 57 71 77 67 62 62 56 48 40 38 34 30 32 32 27 25 24
3 3 4 7 54 67 64 61 52 72 19 9 9 9 9 11 20 30 27 21 15 14 14 15 15 19 39 61 60 64 66 61 57 53 52 50 48 47 43 41 36 31 30 26 22 16 11
4 4 4 5 14 69 64 63 61 48 70 22 9 9 8 9 9 11 23 33 35 39 38 36 31 21 16 16 20 27 31 34 30 29 30 29 29 27 26 23 19 16 12 12 18 27 30
5 4 4 4 6 46 62 64 64 59 45 64 37 11 9 8 8 9 12 8 17 30 37 41 46 50 53 52 49 40 35 26 21 15 16 16 17 22 26 29 29 26 29 33 37 40 38
5 5 4 4 5 14 56 61 62 63 57 43 54 64 28 11 9 9 8 8 9 8 11 26 34 36 43 48 48 52 54 57 56 54 50 51 49 47 47 48 46 43 39 36 31 26 19
6 6 6 5 4 6 26 47 62 63 63 58 47 43 66 62 30 12 10 10 8 8 8 8 7 14 28 31 34 37 39 38 36 37 34 31 27 27 26 26 24 21 18 14 15 15 14
7 7 6 6 6 5 9 27 46 58 57 61 60 52 44 43 57 62 37 14 9 10 10 10 8 7 7 7 12 20 26 25 22 20 17 18 18 19 20 17 16 16 14 12 10 10 10
9 9 8 8 8 7 9 12 24 52 50 53 57 60 55 46 41 41 49 66 45 16 10 10 10 11 11 10 8 7 7 7 7 7 7 7 6 6 6 6 8 7 6 8 8 10 12
10 11 11 11 10 9 11 17 17 21 42 45 46 55 61 61 53 43 41 40 49 64 49 18 11 9 9 9 9 10 11 12 12 11 12 10 9 10 10 11 12 11 12 11 12 12 9
12 10 10 9 9 9 12 25 27 19 45 28 33 40 47 54 59 59 48 41 39 38 46 60 52 26 16 13 12 11 11 11 10 10 9 9 9 9 10 9 8 8 9 8 8 8 7
9 9 9 9 12 15 20 29 38 29 14 17 23 34 49 54 54 59 61 54 44 40 39 36 36 41 55 52 37 26 20 18 18 14 15 14 14 13 14 13 11 11 8 7 8 8 7
21 14 20 34 44 43 43 37 41 32 21 12 12 15 32 61 64 58 60 60 56 49 44 42 42 38 40 37 51 57 56 51 48 51 40 37 39 39 37 32 24 20 16 12 16 15 10
71 60 60 63 58 57 48 46 36 33 15 10 10 14 37 46 56 61 56 60 58 54 54 50 47 47 47 47 36 35 37 47 53 60 59 54 59 62 65 68 68 62 48 43 39 30 23
77 72 54 52 55 43 40 23 14 11 12 34 40 50 58 61 62 57 62 58 60 62 58 58 57 55 53 53 52 52 44 37 41 46 47 44 36 42 45 42 69 74 70 66 62 67 72
63 61 62 52 48 41 26 13 24 42 56 56 53 49 49 53 86 67 60 63 62 61 64 62 62 61 59 58 59 58 55 44 44 51 53 47 41 39 37 44 51 52 45 54 57 54 43
40 66 59 35 20 15 14 16 32 59 58 57 57 49 49 57 65 78 90 81 65 70 70 74 65 64 64 63 60 61 63 61 53 53 64 64 64 52 52 56 57 45 42 41 46 58 60

GFSGBSN_500_rhum_138.txt.gz
RH
34 36 26 6 5 5 6 8 11 19 29 34 40 48 60 47 36 55 57 68 91 97 92 99 99 95 97 100 93 92 92 100 100 60 25 20 16 17 35 37 19 15 16 16 17 16 16
39 36 42 8 6 5 7 8 12 19 23 23 34 48 63 63 34 35 48 87 100 95 95 100 100 99 94 82 66 95 68 82 100 66 29 22 18 18 23 40 39 25 16 15 15 16 16
46 38 40 23 6 6 8 8 10 17 17 20 24 36 42 45 23 24 33 68 74 72 85 100 100 100 99 100 96 98 75 71 100 92 38 24 19 17 20 26 40 44 37 26 18 15 15
50 46 40 43 8 6 7 9 9 11 18 28 26 22 23 30 34 23 35 36 43 70 94 100 100 100 98 98 89 62 81 63 70 94 56 29 22 19 21 18 20 30 34 32 30 29 29
39 49 47 36 33 7 6 9 10 10 13 18 34 26 23 22 26 47 65 68 59 55 58 79 77 99 94 91 86 74 100 95 83 89 83 44 28 22 19 18 17 15 15 16 19 19 21
8 54 50 46 39 12 6 7 11 11 10 13 19 34 29 25 25 26 38 76 65 73 87 57 91 100 100 100 82 66 89 57 61 89 83 69 45 30 23 20 17 15 13 14 12 11 9
2 26 56 50 41 42 8 6 8 13 12 11 14 17 24 30 27 27 36 43 51 74 79 80 83 95 100 100 98 68 54 36 28 59 78 80 63 50 42 30 23 18 15 14 14 12 11
2 5 44 52 46 39 26 8 6 9 14 13 12 16 22 26 29 25 38 54 36 40 84 80 84 95 94 100 100 80 56 46 32 37 50 70 66 56 48 41 33 26 20 18 16 16 16
3 3 11 58 52 44 46 10 8 6 8 16 16 14 17 29 43 46 41 40 48 38 44 54 84 95 94 81 86 95 83 50 30 32 36 58 56 57 53 49 40 34 31 26 22 21 19
3 3 3 17 60 54 40 47 8 8 6 7 16 20 16 19 27 40 42 41 43 58 52 57 71 73 77 78 89 71 82 88 64 44 29 27 38 48 49 50 51 50 44 38 33 30 29
3 3 3 4 38 56 52 39 28 9 8 7 6 16 24 19 18 19 27 44 42 40 46 55 58 62 75 78 84 81 69 59 63 60 51 45 44 38 44 43 45 48 42 42 40 37 31
4 4 3 4 5 57 58 50 43 27 9 8 8 6 13 24 26 23 19 23 27 31 34 40 55 57 49 59 71 85 77 68 52 53 54 55 60 58 51 39 37 36 33 33 34 32 16
4 4 4 4 4 10 55 58 48 49 34 11 9 8 6 10 19 29 28 19 24 22 28 25 34 45 50 54 59 63 80 82 82 65 55 45 39 48 51 43 30 36 28 28 30 15 12
4 4 4 4 4 5 21 55 58 49 48 49 15 9 8 7 7 14 28 33 18 23 27 30 32 43 50 60 51 55 63 67 76 81 79 72 46 28 22 29 37 39 36 25 14 15 15
4 4 4 5 4 5 6 23 54 57 56 44 51 30 10 9 8 7 13 24 32 26 17 37 46 54 58 60 52 47 45 48 62 70 75 73 61 53 37 29 26 33 23 23 16 16 14
5 5 5 5 5 5 6 8 25 50 55 58 47 46 44 14 9 9 8 8 17 32 36 26 17 22 34 37 39 41 43 42 39 40 48 54 62 62 61 53 46 36 30 22 12 9 9
5 5 5 6 6 6 6 7 9 26 44 52 59 58 42 50 31 10 9 9 7 12 26 38 37 32 23 17 16 17 21 25 24 27 27 26 25 27 22 22 20 15 11 11 10 18 25
7 6 6 7 7 8 7 8 8 10 26 38 50 57 60 54 43 53 22 10 10 8 8 18 29 36 38 36 32 26 20 18 16 14 14 14 15 14 14 16 15 12 14 20 21 23 17
8 8 8 8 8 9 10 9 9 9 13 24 33 43 48 57 58 48 46 54 16 10 10 8 8 16 24 31 35 38 39 38 37 35 34 32 32 30 30 27 26 24 22 18 14 12 14
11 9 9 9 9 10 10 10 10 10 10 15 26 30 35 46 51 54 59 43 51 47 13 10 11 10 8 8 16 20 21 25 25 25 24 21 19 18 16 15 15 13 12 12 10 12 12
39 18 10 9 10 10 10 10 10 10 10 12 22 30 28 30 39 46 48 61 53 40 57 40 13 10 10 10 10 9 8 8 9 8 8 10 10 8 7 7 8 9 9 8 8 8 7
47 39 22 11 10 10 11 13 14 14 15 16 23 32 35 30 21 34 44 56 58 62 50 41 59 36 17 12 11 9 9 10 10 10 11 11 10 9 10 9 10 10 10 10 9 10 10
42 36 29 21 13 12 14 16 22 25 30 34 33 33 36 37 33 17 22 38 56 57 60 58 46 39 48 51 40 19 18 15 13 14 13 12 12 11 11 10 10 11 12 12 10 9 10
74 74 64 55 44 36 43 44 40 38 42 43 44 37 35 34 34 19 14 14 20 38 54 56 60 54 46 42 42 49 52 45 37 37 34 28 28 31 21 18 25 26 26 28 30 29 28
86 87 82 77 72 64 64 73 68 50 49 44 47 50 39 35 30 18 15 20 14 21 42 50 55 57 55 54 46 46 46 44 51 54 52 49 50 56 57 49 48 50 52 56 52 56 56
92 86 79 72 73 72 75 85 85 53 46 43 40 45 45 29 15 16 21 25 37 28 35 49 48 56 56 55 57 52 51 52 52 52 56 54 48 44 48 49 48 49 43 42 46 45 44
83 78 73 76 75 77 76 74 80 63 52 48 47 41 29 20 16 25 44 46 49 49 48 51 54 66 67 63 60 60 60 60 59 60 63 62 63 62 57 54 60 64 64 66 69 66 64
91 88 80 80 79 84 77 72 74 71 60 59 56 53 40 24 22 42 67 68 70 69 68 73 68 64 82 95 73 66 65 65 65 69 70 68 66 68 68 68 69 67 61 60 62 71 73
88 86 85 84 79 84 85 73 70 73 72 80 83 81 87 93 92 81 73 74 80 82 77 77 90 98 96 96 97 95 89 73 73 74 80 76 81 76 79 81 86 76 73 70 67 73 80

GFSGBSN_500_rhum_144.txt.gz
RH
40 40 30 29 17 8 6 6 11 16 14 20 18 24 34 66 70 71 90 97 100 92 84 97 100 100 82 51 77 100 100 99 100 92 84 49 43 62 31 17 15 9 6 11 13 15 16
16 44 39 31 23 10 6 6 8 16 18 15 24 20 20 28 73 68 85 99 100 98 96 87 93 99 94 73 98 98 99 100 92 98 99 53 49 64 29 20 16 14 9 10 13 15 16
2 23 47 37 31 16 8 6 6 12 21 18 19 26 20 20 42 71 64 87 74 93 90 84 82 100 100 100 100 100 100 100 99 100 92 36 76 62 35 21 16 18 16 11 12 15 16
3 3 37 46 34 29 10 8 6 8 17 24 18 25 25 20 28 84 77 80 95 88 94 90 98 85 97 96 97 94 100 100 92 89 89 39 32 61 36 24 20 21 21 16 12 13 14
4 3 6 49 45 34 25 9 8 6 10 24 25 19 30 21 18 65 86 81 78 90 95 99 79 87 98 99 94 100 97 100 100 98 62 48 45 68 41 27 24 22 21 18 16 12 12
7 4 3 12 53 43 36 22 9 8 7 14 28 19 18 21 17 29 77 85 89 85 73 100 86 96 93 80 100 97 99 98 95 93 67 71 81 68 49 33 27 22 18 17 18 17 16
6 6 4 3 24 53 39 41 24 9 8 7 21 29 16 13 17 17 41 65 100 85 100 76 90 100 85 82 89 100 96 99 100 90 82 83 78 73 65 49 36 27 22 18 18 17 16
7 5 5 3 3 41 52 37 44 24 9 8 10 29 21 16 14 16 22 45 66 82 75 84 72 92 100 100 100 100 98 89 89 76 71 70 64 64 72 69 64 60 49 35 31 21 17
7 5 4 4 3 5 50 52 39 45 24 9 8 13 32 18 15 15 21 28 41 70 72 72 79 71 80 99 96 99 99 87 72 56 43 43 44 50 56 54 51 46 42 40 35 32 28
9 5 4 3 3 3 8 53 53 41 47 27 9 8 19 27 17 18 19 29 30 39 58 82 91 84 71 99 96 87 84 94 69 56 42 38 32 23 22 23 22 19 18 16 15 14 13
9 5 4 4 4 4 4 16 52 55 46 48 26 9 9 26 24 19 23 29 33 32 47 74 96 94 91 87 100 86 76 83 95 93 53 37 33 30 24 23 23 22 24 24 24 25 26
12 5 5 4 4 4 4 5 21 48 58 53 49 32 10 9 26 24 20 24 33 40 38 57 76 91 83 78 72 91 86 79 85 60 48 40 34 37 36 39 39 38 36 36 34 32 28
24 6 5 5 5 5 5 5 6 21 44 58 60 50 35 10 9 25 27 21 30 35 33 41 55 64 77 78 69 53 70 82 72 74 64 59 57 56 53 51 46 44 42 36 30 29 28
27 9 6 5 5 5 6 6 6 6 19 38 53 62 50 43 12 9 25 30 17 29 30 29 39 52 65 74 68 68 49 44 61 64 63 56 39 49 40 38 34 26 23 21 18 22 18
37 21 9 6 6 6 7 7 8 7 7 15 32 45 61 54 48 23 9 14 28 21 23 31 34 31 47 66 79 72 56 44 34 37 42 36 30 19 18 14 17 16 12 11 8 6 5
40 35 18 10 7 7 7 8 9 9 8 7 11 27 37 54 55 50 38 11 10 24 34 21 21 31 38 39 53 68 68 54 45 35 25 20 23 19 17 13 13 15 13 10 7 6 6
50 32 39 23 13 8 8 9 10 10 10 9 8 13 25 32 42 52 52 47 22 9 14 27 35 26 16 26 29 35 48 57 59 50 37 24 19 18 13 11 11 10 8 7 7 6 6
48 46 30 39 26 14 9 9 9 10 10 11 11 10 13 24 28 32 43 52 48 46 15 9 12 25 33 34 20 14 17 26 37 46 52 47 35 25 21 15 12 10 9 9 8 10 11
53 46 47 31 40 32 21 11 9 10 10 12 12 14 16 16 27 30 29 39 51 54 46 44 15 9 9 18 29 33 31 21 14 13 16 27 37 40 34 33 32 24 17 15 12 8 8
63 55 50 57 42 38 43 33 17 10 12 13 16 18 20 26 26 24 24 27 32 40 55 55 45 40 17 10 9 11 18 21 26 29 28 25 18 16 17 16 20 14 10 12 12 15 20
83 67 63 64 66 47 36 34 28 21 16 18 23 29 31 31 35 34 31 23 29 27 27 38 54 53 41 43 28 11 9 9 9 8 9 12 14 16 16 17 17 17 14 13 11 11 7
76 86 72 69 70 65 58 41 35 37 40 42 42 42 46 43 41 39 34 34 24 24 27 24 21 34 54 54 38 38 41 24 12 10 10 10 8 7 7 6 6 5 6 6 6 6 6
61 70 79 79 76 72 75 66 58 65 69 64 62 62 58 68 55 36 37 33 35 30 23 25 22 16 15 44 54 54 45 37 40 40 29 20 15 11 10 10 9 9 9 9 9 9 8
63 65 69 73 70 73 79 76 74 77 79 81 76 74 69 74 64 35 30 33 36 37 30 21 28 27 27 22 26 44 54 56 49 42 39 40 42 38 36 32 27 27 25 24 28 23 22
68 65 56 61 72 72 69 71 72 72 68 68 66 70 72 73 71 49 33 34 33 34 30 19 24 34 37 30 32 36 33 48 58 59 54 50 45 44 40 35 37 39 41 41 45 49 48
68 71 71 58 53 61 62 69 73 68 68 64 60 62 60 66 70 72 57 44 47 36 23 17 18 27 38 45 49 48 40 47 42 54 67 67 67 64 58 52 48 49 51 53 52 53 57
56 54 64 72 72 65 62 64 67 70 70 71 63 60 58 55 62 62 69 71 68 62 57 48 38 38 42 52 58 58 58 59 56 56 62 72 82 91 90 69 68 66 64 61 61 62 62
68 61 58 59 62 64 64 67 71 72 75 76 75 63 59 54 55 62 64 62 63 68 74 76 71 70 76 80 80 80 78 74 71 71 76 74 78 86 96 94 90 99 96 94 85 80 85
74 65 64 69 67 62 60 63 69 82 80 76 77 66 58 57 57 60 66 64 64 64 60 58 60 63 61 64 62 61 68 75 80 77 78 86 98 95 100 99 96 86 93 93 93 100 100

GFSGBSN_500_rhum_147.txt.gz
RH
3 13 38 36 30 28 23 11 7 7 18 17 13 20 18 33 70 73 91 88 80 92 96 94 93 78 27 24 24 18 33 97 100 100 80 30 41 39 40 22 14 10 7 6 5 6 10
4 3 13 39 36 29 30 18 9 6 14 22 12 18 18 41 64 71 96 66 75 86 67 66 82 78 44 53 59 72 39 100 100 100 100 36 47 45 35 22 16 12 8 6 7 10 14
6 4 4 15 43 34 32 30 12 7 9 25 13 16 18 28 42 62 82 82 78 91 90 54 53 40 59 92 96 100 76 100 98 100 100 70 42 67 40 24 19 16 11 8 9 11 15
7 6 4 4 26 44 33 33 25 8 7 19 17 12 17 21 32 54 61 72 88 75 72 88 98 99 100 100 98 100 100 95 92 99 94 81 48 45 48 25 21 19 16 11 10 11 14
8 7 5 3 6 38 44 33 34 16 8 11 23 13 14 18 26 28 58 72 54 89 84 66 78 96 66 79 95 80 91 98 98 98 96 76 51 37 50 26 24 24 20 12 10 11 13
10 8 6 4 3 12 49 43 34 34 10 8 20 17 13 17 21 23 21 54 70 64 89 90 86 96 74 64 98 97 84 97 100 84 93 74 48 46 44 27 28 26 23 19 12 12 13
12 9 5 4 4 4 30 53 44 36 31 9 11 24 16 14 22 24 23 35 61 70 78 88 99 97 91 86 100 100 100 100 99 100 100 66 59 58 49 29 30 29 28 24 20 14 14
16 11 6 4 4 4 6 43 55 44 38 27 9 16 21 18 22 25 30 43 50 68 70 76 87 93 98 94 100 100 100 100 97 91 95 63 70 61 42 29 27 28 27 29 25 22 17
22 14 6 4 4 4 5 10 46 57 45 41 18 9 20 20 23 30 29 29 40 62 69 69 85 100 100 100 89 99 100 97 90 91 87 72 66 61 50 33 26 24 23 24 22 20 18
29 20 7 5 5 4 6 5 16 48 57 48 42 16 10 20 19 26 32 29 29 39 65 77 83 92 98 100 92 80 97 99 94 88 80 74 76 71 63 51 39 29 32 28 22 19 19
36 29 7 5 5 5 6 6 6 21 50 57 52 42 15 11 25 20 22 24 25 23 53 75 85 83 89 95 89 81 84 87 99 98 77 72 73 70 67 62 59 57 51 44 38 33 28
35 34 19 6 6 6 6 8 7 8 22 48 58 55 42 14 13 24 19 14 21 25 41 62 69 65 83 92 88 94 81 80 75 70 62 67 59 53 32 27 24 21 18 16 15 15 15
32 40 30 9 6 6 6 8 10 9 8 22 44 60 57 45 19 12 26 20 14 16 25 49 62 58 51 59 83 88 93 81 72 59 48 44 32 30 22 22 22 25 28 28 28 27 26
32 43 38 29 10 7 7 8 9 10 10 9 20 40 58 59 51 25 12 22 22 18 28 31 55 55 66 52 50 59 84 85 92 92 88 73 52 36 34 35 33 36 35 32 30 26 26
27 46 48 35 26 11 8 8 9 10 11 11 10 21 32 52 59 54 32 12 11 29 22 22 32 44 60 55 50 38 36 54 72 69 59 50 46 44 43 46 44 39 37 29 20 15 14
34 37 43 45 34 28 12 9 9 10 10 11 12 14 20 26 35 57 63 47 21 10 25 34 20 23 34 50 50 39 36 29 26 41 55 53 50 58 50 49 41 29 20 17 12 11 8
35 44 46 48 39 35 33 17 10 9 10 11 12 14 18 22 23 29 49 66 56 43 15 12 24 33 19 21 32 42 33 30 28 22 18 22 30 29 28 18 15 13 13 11 11 8 6
50 60 59 47 45 41 36 40 36 24 10 12 14 15 20 23 31 34 27 35 53 65 55 35 10 10 19 29 22 15 28 33 25 21 23 20 16 18 15 13 11 11 10 10 9 9 9
66 71 77 69 48 51 54 38 42 46 32 16 15 22 27 32 31 34 33 27 29 35 57 62 52 34 11 10 16 21 28 19 15 21 25 24 20 18 17 16 14 14 12 11 11 11 11
74 74 70 71 68 59 62 63 47 39 34 28 28 34 38 40 45 45 31 30 28 26 28 30 54 60 50 37 16 10 9 11 18 24 24 25 18 13 14 13 12 13 14 13 11 9 8
71 64 63 62 62 65 66 67 68 62 44 44 54 56 55 59 56 61 57 30 29 28 24 24 27 25 47 59 50 42 29 13 10 9 8 9 12 16 18 18 18 16 13 10 9 12 10
71 64 60 58 57 60 63 68 68 71 70 60 67 77 77 72 67 66 65 36 26 28 29 24 24 23 18 23 48 57 55 44 43 33 20 12 9 9 8 7 6 6 7 6 6 6 6
68 62 55 52 53 55 56 58 61 65 67 69 69 75 76 74 69 67 69 54 26 23 28 29 26 19 20 23 22 24 42 52 58 50 42 42 41 35 27 18 14 12 11 10 9 8 8
72 69 64 59 54 49 48 51 49 58 62 62 63 62 66 65 64 66 69 67 52 32 29 25 26 23 19 23 28 27 26 26 36 48 55 55 50 45 41 41 37 37 35 40 40 34 30
65 64 66 62 61 62 56 49 50 49 54 59 62 61 58 58 61 63 62 66 69 66 52 48 37 22 18 19 25 36 44 37 34 37 39 45 50 55 55 52 47 50 48 44 43 42 43
62 61 62 62 62 59 56 57 49 51 50 53 56 59 61 67 64 62 60 62 65 67 70 68 65 65 60 53 49 44 45 46 58 57 51 48 45 54 56 56 59 65 68 66 60 57 59
72 67 62 64 61 58 54 50 50 49 51 50 50 52 55 57 58 54 58 62 68 70 70 68 65 66 69 67 62 64 69 70 68 70 71 68 62 55 54 43 49 71 81 94 89 83 82
79 77 70 68 75 72 65 56 49 45 44 43 46 50 49 51 58 57 47 46 49 58 70 74 70 65 64 60 54 59 61 62 60 60 62 71 74 74 72 70 68 73 81 90 87 87 96
78 79 75 77 76 82 78 68 62 56 53 50 49 46 48 50 52 56 64 61 54 46 48 57 64 74 76 67 61 55 56 55 56 52 54 50 50 50 53 53 51 51 64 81 86 88 91